GFSMA_sfc_30mbdewp_003.txt.gz
Dewpoint
55 55 56 56 57 57 57 57 55 53 51 48 44 43 44 45 44 40 36 54 59 58 54 54 54 55 56 55 53 52 52 53 53 53 53 53 53 53 53 53 53 53 53
55 53 53 54 54 55 54 54 53 52 48 48 44 42 41 39 36 36 37 36 57 58 56 51 52 52 53 53 54 53 53 53 53 53 53 53 53 53 53 54 54 54 54
55 54 53 52 52 53 51 51 51 50 49 47 48 48 44 40 37 36 35 37 39 54 55 47 47 48 50 51 51 51 54 55 55 56 56 56 55 55 53 53 53 53 53
55 55 54 53 52 53 53 52 52 51 51 49 48 48 48 45 41 38 37 36 37 39 50 54 51 51 52 49 49 50 52 54 55 56 56 56 56 56 53 51 51 52 53
55 55 55 55 53 52 53 53 53 53 52 52 51 50 49 49 48 45 41 39 38 39 40 44 53 52 52 52 47 48 50 53 55 55 56 56 56 56 53 52 53 53 54
55 55 55 55 55 53 53 54 53 53 53 52 52 51 51 50 49 49 47 44 42 40 40 40 41 50 53 52 51 47 48 51 54 55 56 56 56 56 53 52 53 54 55
55 55 55 56 56 55 53 53 53 53 53 53 52 51 52 51 50 49 49 48 48 46 44 42 41 42 43 53 52 51 50 49 52 54 55 56 56 56 53 52 54 55 55
58 56 56 56 56 56 56 54 53 53 53 54 52 51 50 51 51 52 51 49 48 47 48 47 46 45 44 44 46 52 52 50 49 50 53 55 56 55 53 54 55 55 55
59 59 58 57 57 57 56 57 55 54 53 54 54 52 50 48 48 49 51 51 51 50 50 49 48 46 45 45 46 47 50 52 50 50 51 53 55 54 55 55 56 55 54
59 59 59 59 58 58 58 58 58 57 55 54 55 54 53 50 48 48 48 48 49 50 50 50 50 48 46 45 45 46 47 50 50 50 52 54 55 56 56 56 55 55 54
56 59 59 59 60 60 59 59 59 59 59 56 55 55 54 54 53 51 49 49 50 48 47 48 48 46 45 45 46 46 48 49 50 51 52 53 55 57 56 56 55 54 54
53 55 58 60 60 60 60 60 60 60 60 60 58 57 55 54 53 53 52 51 51 50 50 47 46 45 45 45 46 47 49 51 53 53 52 54 55 56 56 56 55 54 53
48 47 50 53 58 60 60 60 60 61 60 60 59 59 58 57 56 55 53 52 51 50 50 50 49 48 48 48 48 49 50 51 53 54 53 54 56 57 56 55 54 53 50
42 43 42 43 45 50 57 60 61 61 60 60 59 60 59 58 58 56 55 53 51 50 49 49 50 50 50 50 49 49 49 51 53 54 55 54 56 57 56 53 52 50 48
43 43 43 42 42 42 43 46 50 55 57 57 57 57 58 58 58 58 57 56 54 50 49 48 49 50 50 50 49 49 49 50 52 54 55 55 55 55 53 51 49 46 45
45 44 44 43 43 43 43 43 44 45 47 49 53 55 55 56 57 58 57 57 56 54 51 51 51 51 51 50 50 50 49 50 51 54 54 53 54 53 51 49 46 44 42
44 44 43 44 44 44 44 44 44 44 44 45 48 50 52 54 55 55 56 56 56 55 53 53 52 52 51 51 50 50 50 49 49 52 52 53 52 52 49 46 44 42 41
42 42 42 43 43 42 43 43 43 44 44 45 46 49 50 51 52 53 54 54 54 55 54 52 52 52 52 50 50 48 47 47 47 48 50 51 51 50 47 45 42 41 39
38 39 40 40 39 39 39 40 41 43 44 44 47 48 49 50 50 51 52 53 53 53 54 53 52 53 53 47 44 43 43 44 45 46 49 50 49 47 46 43 41 39 36
37 38 38 37 36 39 39 38 41 38 40 43 46 47 47 48 49 49 50 51 52 52 52 52 52 53 53 48 46 46 41 42 42 42 46 47 47 46 44 41 40 36 35
34 35 33 32 37 36 38 38 38 39 43 45 46 45 45 47 48 48 49 50 51 51 51 50 50 51 52 45 45 45 45 44 41 41 41 43 42 42 41 40 38 37 33
29 29 29 34 31 35 36 37 40 43 43 38 36 39 42 45 45 48 50 50 51 51 50 49 49 49 49 51 49 47 45 40 38 39 38 37 38 37 36 36 35 33 32
23 22 29 27 29 31 31 38 39 38 31 33 37 37 41 40 39 42 44 46 47 49 50 51 50 50 51 51 52 49 46 44 42 37 37 35 34 33 33 32 30 28 28
18 19 22 20 24 21 27 35 38 28 28 32 35 36 39 33 36 41 43 44 44 45 46 49 50 50 51 53 53 51 48 41 33 34 35 30 30 31 30 29 29 27 28
16 14 14 19 15 19 24 33 28 27 25 27 32 36 28 29 33 37 39 40 41 41 43 44 47 47 48 50 52 44 40 36 31 30 30 29 28 28 28 25 25 27 27
12 13 11 12 17 20 26 23 21 23 25 27 33 30 29 31 33 35 36 37 38 38 40 42 44 45 44 46 49 48 44 39 31 28 29 28 27 27 21 21 19 20 23

GFSMA_sfc_30mbdewp_006.txt.gz
Dewpoint
57 56 57 59 59 59 58 57 57 56 55 52 50 47 46 48 49 48 43 44 50 60 56 56 55 55 56 56 55 54 53 53 53 54 53 53 54 54 53 53 53 53 53
57 56 55 57 57 57 57 57 56 55 54 52 50 47 44 44 45 46 44 42 44 58 59 52 54 55 55 55 56 57 57 56 55 55 55 55 55 55 54 54 54 54 54
56 56 55 54 54 54 55 55 54 53 52 51 49 47 45 43 41 39 38 37 38 48 58 54 51 53 55 54 54 55 58 59 58 57 57 58 58 58 56 55 54 54 54
55 55 55 54 53 53 53 52 51 51 51 50 49 48 48 48 46 43 40 37 37 37 41 55 55 52 52 53 50 52 56 57 58 58 58 58 58 58 58 57 56 55 54
55 55 55 55 54 53 52 52 52 52 51 51 51 51 50 49 49 48 45 41 38 38 38 39 48 54 52 52 49 48 52 54 56 57 57 58 58 58 58 58 57 56 54
54 55 55 55 55 54 53 53 52 52 52 52 52 52 52 52 51 50 49 48 45 41 39 39 39 43 52 52 51 51 51 52 53 55 56 57 58 58 58 58 57 56 53
54 54 55 55 55 55 54 54 53 52 52 53 52 52 52 52 52 52 51 50 49 48 45 43 41 41 41 48 53 53 53 53 53 53 54 55 57 58 58 58 57 57 54
57 56 55 55 55 55 55 55 54 53 53 53 52 52 50 51 52 52 52 51 51 50 49 47 45 43 43 43 43 51 53 53 51 52 54 54 56 57 57 58 57 56 56
60 59 58 57 56 56 56 56 56 54 54 55 54 53 51 49 49 49 50 52 52 51 50 49 48 48 47 46 46 47 50 52 51 51 51 53 54 56 56 57 57 56 56
58 59 59 59 59 58 57 57 57 57 56 54 56 54 54 54 51 50 51 49 50 50 51 51 51 50 49 48 47 47 48 50 51 52 51 50 51 52 54 55 55 55 57
51 53 55 58 59 59 59 58 58 58 58 57 57 56 55 55 54 53 51 51 52 50 50 50 50 50 50 50 49 48 49 50 51 52 51 51 52 53 55 55 55 56 57
47 46 46 48 54 58 59 60 60 60 60 60 59 58 57 55 54 54 53 53 52 53 53 50 49 48 48 48 48 48 49 50 51 51 51 50 53 54 55 55 56 57 57
43 43 43 43 43 44 47 52 57 60 60 59 59 58 58 58 57 56 55 54 54 54 53 53 52 51 51 49 48 47 47 49 50 51 51 51 54 55 56 57 56 57 57
44 43 43 43 43 43 43 44 46 48 51 54 56 57 56 56 56 56 56 55 52 53 53 52 52 51 51 51 50 49 48 49 50 51 52 53 54 55 55 57 58 57 57
42 42 43 43 43 44 43 43 43 44 45 46 47 50 52 53 54 55 56 55 54 50 50 52 52 52 51 51 51 50 50 49 51 51 53 53 53 55 55 56 57 57 56
41 41 41 41 42 43 43 43 43 43 43 44 45 45 47 49 50 53 55 55 54 53 50 51 51 53 53 51 51 51 51 51 50 51 52 53 53 54 55 55 56 56 55
37 37 38 39 40 41 39 39 40 40 40 42 44 43 46 48 49 50 52 52 52 52 50 49 51 53 54 54 52 51 51 51 50 51 52 53 54 54 55 55 55 54 52
33 34 36 36 35 34 36 38 39 39 40 37 38 42 45 46 47 48 49 49 49 50 50 48 49 51 52 53 54 52 51 51 51 51 51 52 53 54 54 54 53 52 49
30 30 31 30 29 31 36 34 36 38 35 37 39 42 45 46 44 44 46 47 47 48 49 48 48 49 51 52 52 51 52 51 50 51 51 52 53 54 54 53 51 49 48
26 26 26 24 27 32 28 31 36 32 37 38 43 45 43 38 39 43 44 45 46 46 47 47 47 47 48 49 51 51 49 46 47 46 47 49 51 53 53 52 50 48 47
21 23 20 20 22 28 21 33 28 29 34 40 39 33 35 36 40 43 37 36 41 43 43 44 45 46 48 47 46 47 47 49 45 47 45 45 49 50 51 50 48 46 44
17 18 18 18 23 17 23 28 28 28 35 31 27 27 33 33 39 31 31 37 40 41 42 42 42 43 44 46 48 48 48 47 45 45 45 44 46 46 46 47 45 44 42
15 14 14 16 13 15 20 24 30 26 23 25 23 24 26 33 32 27 30 34 34 37 40 41 40 40 42 43 47 47 47 48 46 42 42 41 39 41 40 41 43 42 41
11 11 12 12 13 11 18 24 28 18 14 16 24 24 29 33 30 31 32 32 33 35 36 38 40 40 41 43 45 45 46 47 39 38 40 37 35 36 35 37 41 41 39
11 11 11 11 11 12 18 26 22 18 21 23 24 25 31 32 32 32 31 32 33 35 37 40 41 42 42 43 44 44 43 40 37 34 34 32 30 29 31 32 36 38 37
12 12 12 12 12 12 17 18 20 21 22 23 25 27 31 30 30 29 30 32 34 35 37 38 39 40 42 43 42 41 42 41 39 31 31 32 29 29 27 28 30 32 35

GFSMA_sfc_30mbdewp_009.txt.gz
Dewpoint
58 57 57 57 58 59 58 58 57 57 56 55 54 52 50 48 47 47 48 49 51 50 51 54 57 57 56 56 55 54 54 53 53 54 54 54 54 54 54 54 53 53 54
58 57 56 56 57 58 58 57 57 56 56 55 54 53 51 48 46 47 48 48 50 51 49 50 54 56 56 56 57 58 59 58 57 57 57 57 57 57 55 55 54 54 54
58 57 56 55 55 56 56 56 56 55 55 54 53 52 50 48 46 44 43 42 43 46 50 50 50 53 56 55 55 58 59 60 60 59 58 58 58 58 58 57 57 56 55
57 56 56 55 55 54 54 53 53 52 52 52 51 51 50 49 48 46 44 42 41 39 40 45 51 53 55 55 50 53 57 58 58 59 59 60 59 59 59 59 59 59 58
56 55 55 55 55 54 53 53 53 52 51 51 51 51 51 50 50 49 48 47 44 43 41 41 44 49 53 53 51 49 52 54 55 57 58 58 59 59 59 59 59 59 59
54 55 55 55 55 54 54 53 53 53 52 52 51 51 52 52 52 51 51 50 49 46 44 43 43 43 47 49 52 51 53 53 53 54 55 57 57 58 58 59 59 59 59
54 53 54 54 54 54 54 54 53 53 53 53 52 52 53 53 52 53 52 52 52 51 49 45 44 43 43 46 49 51 53 55 54 54 54 55 56 57 57 58 58 58 58
57 56 55 55 55 55 55 55 54 54 53 53 52 53 51 52 52 53 53 52 52 52 51 50 48 46 45 45 45 47 51 52 53 55 56 55 55 56 56 57 57 57 58
57 59 59 58 57 57 56 56 56 55 54 55 54 53 52 50 51 51 51 52 52 52 52 51 50 49 47 46 46 46 48 49 50 52 54 56 56 57 57 57 57 57 57
49 48 50 53 56 59 58 57 57 57 56 55 56 55 54 54 52 52 53 52 51 51 52 52 51 50 49 49 49 49 49 50 51 52 53 54 55 55 55 56 56 57 56
46 45 44 44 45 49 52 55 57 58 58 57 57 57 57 55 55 53 51 51 53 53 52 51 51 51 51 51 50 50 50 51 52 53 54 55 55 54 53 53 55 56 57
44 43 43 43 43 43 43 45 46 49 53 56 57 56 55 53 53 53 53 53 53 54 54 54 51 51 51 51 51 51 51 52 53 54 54 55 55 55 54 54 56 56 57
41 42 42 42 42 43 43 44 44 45 46 47 48 50 52 53 53 53 52 51 50 51 55 56 55 53 52 51 51 50 51 52 53 53 54 54 55 56 56 56 56 56 58
41 40 41 41 41 42 43 43 43 44 44 45 45 46 47 48 50 51 51 50 47 48 48 49 51 55 54 53 53 52 50 50 51 52 54 54 55 55 55 55 56 56 57
37 37 38 38 39 40 41 41 39 40 41 42 44 45 46 45 47 49 50 51 49 46 44 46 47 50 53 54 53 52 52 52 52 51 53 54 54 54 54 54 55 56 56
35 34 34 36 37 37 34 34 37 39 39 39 41 39 39 41 45 48 49 49 49 47 44 45 46 48 51 52 54 53 52 51 52 53 53 53 53 53 54 54 54 55 55
30 30 29 30 28 28 30 35 32 33 37 36 34 37 38 41 45 46 44 45 44 46 44 44 45 47 48 50 51 54 53 53 52 52 53 54 54 54 54 54 54 55 55
25 25 24 24 21 23 27 30 26 33 30 30 34 36 39 43 43 42 39 40 43 44 43 42 43 44 46 47 49 51 52 53 53 52 53 53 53 53 54 54 53 54 54
21 20 20 19 19 20 26 23 21 30 23 25 30 34 42 37 38 34 36 42 40 35 37 39 42 43 43 45 47 49 50 52 53 53 52 52 53 53 53 54 54 54 54
16 16 17 16 16 18 18 16 24 23 24 29 33 39 31 31 33 33 37 32 29 33 37 37 37 40 40 42 44 46 47 49 49 50 50 50 51 52 53 54 53 54 54
14 14 14 13 14 14 11 18 21 24 29 21 19 22 22 25 25 32 36 33 30 32 35 33 34 36 36 38 39 42 43 44 47 49 48 48 48 48 49 51 52 53 53
12 12 12 12 13 12 15 18 23 27 22 16 14 16 23 24 24 33 33 32 33 32 32 32 32 33 34 36 38 40 40 40 40 45 47 47 47 46 47 49 51 52 51
12 11 11 12 12 12 15 19 22 23 18 18 21 23 24 24 28 33 32 32 32 31 31 31 32 34 35 36 37 37 37 39 41 44 44 43 45 45 46 46 49 51 49
11 12 12 12 13 13 16 19 21 20 21 21 22 23 24 26 29 29 29 27 29 29 30 32 35 36 37 38 40 40 40 40 41 43 42 39 42 41 39 41 46 47 46
13 13 13 13 13 13 17 19 22 22 23 23 25 25 28 27 27 26 27 27 28 28 30 35 35 36 36 36 37 40 38 38 38 40 39 39 36 33 33 35 42 45 43
13 14 14 14 15 15 17 22 23 24 24 25 30 30 27 26 25 26 26 27 31 33 35 34 34 33 33 34 36 38 37 34 34 35 35 35 31 30 29 30 33 41 41

GFSMA_sfc_30mbdewp_012.txt.gz
Dewpoint
58 58 57 57 57 57 57 57 57 57 57 56 56 55 53 52 51 49 48 49 50 51 52 51 51 54 55 58 59 58 58 57 56 56 57 56 56 55 55 55 55 55 54
58 58 57 57 56 56 57 57 57 57 57 56 55 54 54 53 52 50 48 47 49 50 52 52 52 49 52 55 59 60 60 59 58 58 58 58 58 58 57 56 56 55 55
58 58 57 57 56 56 56 56 56 56 56 55 55 54 54 53 51 50 48 47 47 50 51 52 52 51 49 50 52 58 59 59 59 59 59 59 59 59 59 59 59 58 57
57 57 57 57 56 55 55 55 54 54 53 53 53 53 52 52 51 50 49 48 47 45 45 48 51 52 52 50 50 52 56 57 58 59 59 59 60 59 59 59 60 60 59
56 56 56 56 56 55 54 54 53 53 52 53 52 52 52 51 51 50 50 49 48 47 46 45 48 50 52 53 51 50 53 54 55 56 57 58 59 59 60 60 60 60 60
54 55 55 55 55 54 54 54 53 54 53 53 53 53 53 52 52 52 51 51 51 50 48 47 47 47 49 50 52 53 54 56 55 55 55 55 56 58 58 59 59 60 60
55 54 54 54 54 54 54 54 54 54 54 54 53 53 53 53 53 53 53 53 52 52 51 49 48 48 47 49 50 51 53 55 57 57 56 56 56 56 57 58 57 57 58
56 57 56 56 56 56 56 55 55 55 55 55 53 53 52 53 53 53 53 53 53 53 53 52 51 48 47 47 47 49 52 52 54 55 57 58 58 57 57 57 57 57 58
45 45 46 48 50 54 55 56 57 56 55 55 55 54 51 51 53 54 52 53 53 53 53 53 52 51 50 48 48 49 50 51 52 54 54 56 58 59 59 58 58 57 57
44 42 42 43 43 45 44 47 48 52 54 53 55 56 56 55 51 50 53 53 52 52 52 52 52 52 51 51 49 49 49 50 52 54 55 55 55 55 56 59 59 58 58
43 42 41 42 42 43 43 44 43 44 45 47 48 51 52 51 52 50 47 47 50 53 54 53 52 52 52 52 51 50 51 52 53 54 56 57 57 56 56 56 58 59 58
41 40 40 41 41 42 43 43 44 43 44 45 46 45 45 46 47 48 47 46 47 48 50 52 54 53 53 53 52 52 52 53 54 55 56 57 57 58 57 57 58 58 58
37 37 37 38 39 40 41 42 43 42 43 44 43 43 45 45 46 47 46 44 44 46 47 49 51 53 54 55 54 53 52 53 54 55 55 57 58 58 58 58 58 58 58
36 34 35 36 37 37 38 36 37 39 40 41 41 42 44 42 43 43 44 45 42 42 43 43 46 47 50 52 54 53 53 52 53 54 55 55 56 56 57 58 58 58 58
29 30 32 31 31 30 28 30 34 34 33 37 40 39 36 38 40 42 45 46 43 38 38 39 40 43 47 48 49 51 53 53 54 54 53 54 54 55 56 57 56 56 57
26 26 25 24 24 21 24 24 33 24 28 36 26 30 33 37 39 42 46 44 41 40 37 36 37 40 42 44 46 48 49 50 52 53 54 54 54 54 54 56 56 55 55
22 22 20 21 19 19 20 21 27 20 27 28 23 26 30 34 39 39 41 36 34 38 39 37 33 32 34 40 44 47 47 48 50 52 53 53 54 54 54 54 55 56 56
18 18 17 18 16 16 17 21 18 17 25 22 25 29 32 36 30 34 35 29 34 39 30 31 31 32 35 36 39 42 43 45 47 49 50 52 53 53 54 54 54 54 55
15 14 15 15 14 14 15 14 16 20 21 23 27 24 17 24 23 23 24 26 33 33 32 31 32 34 33 33 38 39 38 39 43 46 48 51 52 52 53 53 53 53 54
14 13 13 13 12 13 13 13 18 21 23 27 21 18 16 17 20 25 23 25 33 33 32 32 32 32 32 33 34 34 34 36 38 40 44 44 48 50 51 52 52 52 52
13 13 12 12 12 13 11 18 20 22 23 22 19 19 21 23 24 25 27 28 31 31 30 32 31 30 29 29 31 33 34 35 37 37 39 41 44 48 48 49 49 49 50
12 13 12 12 12 13 16 20 22 22 22 20 21 22 22 24 24 27 27 27 27 27 26 27 29 27 27 28 32 34 36 34 33 36 38 39 40 43 44 46 47 48 49
13 12 12 13 13 14 17 20 22 22 22 22 23 23 24 25 27 28 27 26 27 26 26 25 26 27 28 30 34 33 32 33 34 35 37 35 39 40 43 43 46 47 48
13 13 13 14 14 14 18 21 23 23 23 23 24 25 26 29 27 25 26 30 31 26 25 29 30 33 33 36 34 33 34 34 35 37 39 36 39 40 42 42 43 45 46
13 13 14 14 15 15 19 22 23 22 23 24 24 26 30 26 24 25 28 26 24 28 28 27 30 30 31 30 30 32 32 32 32 33 36 37 38 38 35 35 37 40 44
14 15 14 15 16 16 19 22 22 22 23 23 27 29 24 23 24 24 21 23 25 22 23 27 30 30 29 28 29 31 33 30 30 29 34 35 37 33 33 30 33 38 46

GFSMA_sfc_30mbdewp_015.txt.gz
Dewpoint
58 59 58 58 58 58 58 57 57 57 57 57 57 57 56 55 55 54 53 52 53 54 52 50 51 52 51 53 57 60 61 61 59 58 58 58 58 58 56 56 55 55 55
58 58 58 58 57 58 57 57 57 57 57 57 56 56 55 55 55 54 53 52 52 54 55 54 52 51 52 52 53 58 60 61 61 60 59 58 59 59 59 58 58 58 57
59 58 58 57 57 57 57 57 56 56 56 56 55 55 55 55 54 54 53 52 52 52 53 55 55 55 53 53 53 54 57 59 61 61 61 60 59 59 59 59 59 59 59
58 58 57 57 57 57 56 56 55 54 54 54 54 54 54 54 54 54 53 53 52 51 51 52 54 55 56 55 54 53 55 56 56 59 61 61 61 60 60 60 60 60 60
57 57 56 56 56 56 55 55 55 55 54 54 54 54 54 54 54 53 53 53 52 52 52 51 51 53 55 55 56 55 56 56 56 57 58 59 61 61 61 61 61 60 60
55 55 55 56 56 56 56 56 55 55 55 55 54 54 55 55 55 54 54 53 53 53 52 52 52 51 51 52 53 55 56 58 58 57 57 57 57 58 59 60 60 60 60
54 53 53 52 53 54 54 55 55 54 54 55 54 53 54 54 55 55 55 54 54 54 54 53 53 52 51 51 52 53 55 56 58 59 59 58 57 57 58 58 58 59 60
42 41 42 43 43 45 44 45 48 49 50 51 53 53 50 50 51 54 54 54 54 54 54 54 54 53 52 52 51 52 53 54 55 56 58 59 59 59 59 58 58 58 58
40 39 40 40 41 42 41 43 43 44 42 42 45 48 45 45 48 47 50 51 53 54 54 54 54 54 54 53 52 52 52 52 53 55 56 58 59 60 60 60 59 59 59
40 37 38 39 39 40 40 40 40 41 40 40 41 41 44 45 40 40 37 44 45 47 50 50 52 53 53 54 54 53 52 52 53 55 56 56 57 58 58 59 60 60 59
38 34 35 37 36 37 39 39 38 39 40 40 41 41 41 42 42 42 41 40 43 42 45 47 49 50 52 53 54 54 54 53 54 56 57 58 58 58 58 58 59 60 59
33 30 31 31 32 32 34 33 35 37 38 39 40 40 41 41 42 41 40 40 40 40 41 44 45 46 49 51 54 54 54 54 54 55 56 58 59 58 60 59 59 60 60
27 26 27 25 26 26 25 27 30 36 35 35 38 40 40 37 35 36 38 39 39 40 41 42 42 43 46 47 48 51 51 53 54 54 53 54 55 57 58 58 59 59 60
23 23 22 21 21 20 18 21 25 34 26 31 37 33 30 27 30 35 37 40 38 38 36 34 35 36 38 40 44 44 42 45 48 50 49 50 53 54 55 56 57 57 59
16 18 19 18 18 17 17 19 20 24 21 23 29 24 26 28 34 36 39 41 36 35 29 26 28 31 37 38 35 30 36 43 47 49 50 51 52 53 54 55 55 55 57
17 16 15 15 16 14 15 15 17 19 17 20 21 22 27 29 32 36 34 33 35 30 28 28 29 35 33 32 31 32 32 37 40 43 45 46 49 50 52 53 54 55 55
15 14 12 13 12 12 12 13 13 13 16 20 21 25 27 26 21 23 29 28 27 25 25 27 32 34 31 30 32 33 33 32 39 43 44 44 45 48 50 51 52 53 54
13 12 12 11 11 11 12 11 12 15 18 20 22 26 22 18 18 19 21 22 25 26 27 29 34 31 29 31 33 34 33 37 36 37 37 43 41 41 44 49 51 52 53
12 11 11 11 10 11 11 12 14 18 20 21 22 22 19 19 19 21 24 25 27 27 29 30 28 30 31 32 30 31 32 33 35 36 35 36 40 41 41 42 45 50 52
12 11 11 11 11 11 12 12 18 20 21 21 21 21 20 21 21 24 24 26 27 28 28 28 27 27 28 28 29 27 28 30 32 34 35 36 36 38 41 43 46 49 51
12 12 12 11 12 12 9 19 21 21 21 21 22 21 22 23 25 25 26 26 27 26 26 26 26 26 26 25 25 26 26 29 32 36 33 33 36 38 42 39 41 47 48
12 12 11 11 12 12 16 20 22 23 22 22 22 22 23 24 25 27 26 25 25 27 27 29 26 24 24 26 28 29 30 29 30 33 31 34 34 35 38 38 39 42 44
13 12 11 12 12 13 17 21 22 23 22 21 22 22 24 24 27 27 26 26 30 26 22 24 25 27 27 26 30 31 31 31 29 31 32 31 32 35 37 38 40 41 43
13 12 12 13 13 13 18 21 23 22 22 21 21 22 23 27 25 23 24 32 23 21 22 26 24 23 26 28 28 28 29 30 31 31 31 31 35 33 36 41 42 43 44
13 12 13 13 13 14 18 22 22 21 21 21 22 22 28 22 20 23 32 23 20 21 23 22 22 24 25 25 27 29 29 28 26 27 30 31 30 33 36 38 39 39 39
13 14 13 14 15 15 19 22 21 21 21 21 23 27 21 19 22 31 22 19 19 21 23 23 23 23 24 25 26 28 30 28 27 26 29 30 29 29 30 34 33 34 35

GFSMA_sfc_30mbdewp_018.txt.gz
Dewpoint
56 55 55 56 56 55 56 56 56 56 56 56 56 56 56 56 56 55 55 55 55 55 57 57 56 53 52 55 55 57 59 61 61 61 60 60 60 60 59 57 57 57 57
58 58 57 57 57 56 56 56 56 56 56 56 56 56 56 56 56 56 56 56 56 56 56 58 58 57 56 54 53 56 57 59 61 62 62 61 60 60 60 60 59 59 59
59 59 58 58 57 57 57 57 57 57 56 56 56 56 55 55 55 55 56 56 55 56 56 56 58 59 58 58 57 55 57 58 58 60 61 62 62 60 60 60 60 60 60
58 58 58 57 57 57 57 57 57 57 57 56 56 56 55 55 55 55 55 55 55 54 55 56 56 57 59 59 59 59 59 58 58 58 59 61 62 61 61 60 60 60 60
57 57 57 58 58 58 57 56 55 55 55 55 55 55 54 54 55 55 55 55 54 54 54 54 55 56 55 55 58 59 59 60 60 59 58 58 58 60 61 61 61 61 61
56 56 53 50 51 51 50 49 50 50 50 50 50 51 50 51 52 52 53 53 54 55 54 54 54 54 55 55 55 56 57 58 60 60 59 59 58 58 59 60 61 61 61
40 41 41 40 40 40 40 40 40 40 40 41 39 40 42 44 48 45 50 52 49 50 51 53 52 54 54 55 55 55 55 57 58 59 60 60 60 59 59 59 59 60 61
38 37 38 37 38 38 38 38 39 39 38 38 37 38 35 36 36 40 39 38 40 41 45 49 50 52 53 54 55 55 55 55 56 57 58 59 60 60 60 60 59 58 58
35 36 36 36 36 37 36 37 36 37 35 35 35 36 34 35 37 35 35 35 35 39 38 39 43 44 45 47 51 52 54 55 55 56 57 57 58 59 59 60 61 61 60
32 30 30 31 31 31 31 30 29 31 30 31 31 32 35 35 33 33 32 35 35 37 37 38 38 39 40 42 46 50 53 54 55 55 55 56 57 58 59 60 60 61 61
29 25 24 25 25 24 25 25 25 25 28 28 28 30 33 34 33 33 34 28 29 29 30 33 35 37 39 41 42 45 50 51 52 53 55 56 57 58 57 58 62 61 61
23 21 19 18 19 20 20 19 21 24 30 27 27 29 33 32 30 28 25 26 27 27 27 31 34 36 40 41 42 43 45 43 41 42 44 47 50 52 54 56 59 57 58
17 16 16 14 15 16 15 17 21 25 28 25 27 30 29 22 21 20 21 26 27 30 31 32 31 32 32 34 34 39 40 40 34 33 39 43 45 47 48 51 52 54 55
12 15 14 13 13 13 13 13 16 21 20 19 18 22 24 20 22 25 28 31 32 32 30 27 28 25 24 27 32 39 33 33 33 34 39 34 34 44 47 45 48 50 51
10 11 11 10 11 11 11 12 13 13 14 15 16 18 19 20 24 25 26 29 29 26 27 27 25 20 19 23 27 34 32 31 33 32 32 35 40 44 47 48 47 49 52
9 9 8 8 8 8 8 9 9 10 11 14 15 17 19 21 23 21 19 18 21 21 21 21 22 21 22 24 30 30 27 30 32 32 31 33 37 41 42 43 47 48 49
8 7 7 7 7 7 7 7 8 9 12 14 16 17 18 22 19 17 17 17 18 19 22 23 24 25 23 25 26 25 27 27 29 29 29 35 34 38 41 44 42 43 47
7 8 8 7 7 7 8 8 8 11 14 15 16 17 17 17 18 17 17 18 20 22 23 26 24 23 24 23 25 25 25 25 25 25 26 28 32 34 38 40 43 43 43
8 8 8 7 7 8 9 9 9 13 15 16 17 18 18 18 18 18 19 21 22 24 25 25 25 25 26 25 24 25 25 24 23 26 27 27 28 30 34 38 39 38 42
9 9 9 9 9 9 9 8 14 16 17 17 18 19 18 18 18 20 21 21 25 25 24 24 26 26 25 25 24 24 23 24 26 27 28 30 31 34 35 34 38 40 43
10 10 10 9 8 9 6 15 18 19 19 19 19 18 18 19 21 22 23 25 26 24 25 26 26 23 21 21 22 23 25 24 25 28 30 32 33 35 34 33 34 36 38
10 11 9 8 8 8 12 18 22 21 20 19 17 17 17 18 19 23 24 23 22 25 25 28 23 20 20 22 24 22 24 24 24 27 30 29 29 29 32 32 32 36 39
10 10 9 8 8 9 12 19 22 22 20 18 17 16 17 16 21 24 21 21 24 30 28 22 20 21 23 23 24 25 27 27 26 26 27 27 30 31 32 33 36 36 38
9 9 8 9 9 9 14 19 22 21 18 17 17 17 17 20 23 21 20 24 30 22 19 19 19 22 26 28 25 25 26 28 28 29 29 29 30 29 32 33 33 37 38
10 9 9 9 9 10 14 19 21 19 17 16 17 17 21 22 19 19 25 30 24 20 17 18 22 23 21 21 22 25 27 25 25 25 28 28 29 32 33 32 30 31 35
10 10 9 9 10 12 15 20 21 19 18 17 19 21 20 19 19 24 27 18 21 18 19 22 21 19 20 21 22 24 28 25 25 24 27 28 28 27 26 29 34 33 34

GFSMA_sfc_30mbdewp_021.txt.gz
Dewpoint
55 54 54 55 55 55 55 55 56 56 56 56 56 56 56 56 56 56 57 57 57 58 57 57 59 60 58 56 55 58 59 60 61 62 62 62 61 61 61 59 59 59 59
57 57 57 57 57 57 56 56 56 57 57 56 56 56 55 55 55 55 56 56 57 58 59 58 59 60 61 60 59 58 58 60 60 60 61 62 62 61 61 61 60 60 60
59 59 58 58 58 57 57 57 57 57 57 57 56 56 56 54 54 54 54 55 56 57 59 59 59 59 59 61 61 61 61 59 59 59 59 61 62 62 62 61 61 61 60
58 58 58 57 57 57 58 57 57 55 53 53 52 53 54 53 52 52 53 54 55 55 55 59 59 59 58 58 59 60 61 61 61 60 60 60 60 61 62 61 61 61 61
58 58 57 55 52 53 51 50 47 47 47 47 47 47 48 48 49 48 49 51 52 54 55 55 56 58 58 57 57 57 58 60 61 61 61 61 60 60 60 61 61 61 61
45 46 44 41 41 42 40 40 39 40 40 39 38 39 39 41 43 43 48 48 50 49 46 49 52 54 56 57 58 57 57 57 58 60 61 61 61 61 60 60 60 60 62
39 39 39 38 38 38 37 38 38 39 39 39 38 38 38 38 38 38 39 37 37 38 39 40 42 47 49 53 54 57 57 57 57 57 58 60 60 61 61 61 61 60 60
36 35 36 36 36 36 36 35 35 35 35 34 33 33 32 33 35 35 32 34 34 36 38 39 39 41 42 42 43 48 51 53 53 54 55 57 58 59 59 60 61 62 61
30 30 31 30 30 30 30 30 29 30 29 30 30 30 28 27 32 32 32 32 32 31 35 34 32 33 36 38 39 40 42 50 50 51 52 53 54 54 55 56 57 60 62
29 24 24 25 25 24 24 25 23 24 25 27 28 25 30 31 30 29 28 29 28 25 24 28 27 29 32 36 40 42 48 47 49 50 51 50 51 52 54 56 58 57 58
25 22 19 19 19 20 21 21 21 22 24 27 27 26 27 29 31 26 23 23 23 22 23 25 28 29 30 32 39 40 41 44 43 44 45 46 44 45 46 48 50 53 56
21 19 17 15 15 17 18 17 19 22 26 30 27 25 25 29 26 22 21 22 23 26 27 28 30 32 33 31 33 34 36 38 37 39 40 40 40 41 44 45 45 50 52
16 16 14 13 13 15 15 16 20 23 24 26 25 22 21 23 24 21 22 24 25 28 30 28 28 23 25 26 24 27 26 31 31 33 37 38 37 37 38 38 38 40 43
12 12 12 11 10 11 11 13 17 20 19 18 20 19 20 21 21 22 23 25 25 24 21 19 22 23 22 21 23 24 23 24 30 34 35 35 33 33 35 36 36 35 41
8 8 10 9 9 9 9 11 13 12 13 14 16 18 18 20 22 22 25 24 22 19 18 19 19 20 23 22 24 25 25 29 31 30 30 30 33 34 32 34 38 40 40
7 8 7 7 7 7 8 9 10 11 11 12 14 16 18 19 19 22 23 21 20 19 18 19 20 22 24 26 24 25 25 28 27 25 26 30 31 29 30 34 35 36 37
6 6 6 7 7 7 7 8 9 9 9 13 15 16 17 18 19 19 20 20 20 20 20 21 22 26 25 23 24 25 25 26 25 25 24 25 27 28 28 31 32 33 34
6 7 7 8 8 8 9 9 9 9 10 13 15 17 17 17 19 20 20 19 20 21 21 22 24 24 23 24 25 25 24 24 24 24 25 24 25 25 27 30 32 35 37
7 8 9 9 9 9 9 9 9 9 13 15 16 17 18 19 19 19 20 21 21 22 25 25 24 23 24 26 25 22 19 20 23 24 23 24 25 26 29 30 34 35 36
9 10 10 11 11 9 9 9 10 15 17 17 19 19 19 18 18 19 20 22 24 26 26 25 23 24 25 26 23 20 19 23 24 22 22 23 24 26 27 29 34 37 37
11 11 11 11 10 10 7 12 16 18 19 20 19 19 17 19 19 19 19 22 25 27 23 23 26 27 28 22 20 20 20 21 22 23 24 26 27 28 30 29 29 31 32
11 12 11 11 10 9 10 14 18 20 20 20 19 18 17 18 17 18 21 22 23 22 21 25 27 27 22 19 18 20 22 23 22 24 24 24 25 26 27 28 28 30 30
11 11 10 10 9 10 12 15 18 21 21 19 17 17 16 16 18 22 23 23 22 22 27 24 23 23 18 18 22 24 26 24 21 22 24 25 26 28 30 30 29 28 31
10 10 10 10 10 9 11 15 19 21 19 19 17 17 17 19 22 22 21 27 28 27 23 19 20 18 19 23 27 25 22 24 26 26 26 24 29 26 29 29 30 28 30
10 10 10 10 9 8 11 16 19 20 20 19 18 18 20 21 21 21 25 28 22 18 18 19 20 20 19 20 20 21 24 23 21 22 24 24 26 29 26 27 28 27 35
10 10 9 8 7 9 13 17 19 20 20 19 20 23 21 19 20 25 25 18 18 17 23 21 19 18 18 19 20 21 24 23 22 22 21 22 23 25 23 27 29 30 28

GFSMA_sfc_30mbdewp_024.txt.gz
Dewpoint
56 56 56 56 57 57 56 56 57 57 57 57 57 57 56 56 56 56 57 57 58 59 59 59 59 59 60 60 62 62 60 60 61 61 61 62 63 63 62 61 61 60 60
59 59 58 58 59 58 58 57 57 57 58 57 57 57 56 55 55 55 54 55 55 58 59 59 59 60 60 60 60 61 62 62 61 61 61 61 62 62 62 62 62 61 61
59 59 59 59 59 58 58 58 57 57 57 56 54 54 54 54 54 53 53 53 53 55 56 59 60 59 59 59 59 58 60 61 62 62 61 61 61 61 61 61 61 62 62
58 58 58 53 54 57 55 52 48 45 47 47 47 49 51 52 52 51 49 50 51 52 54 56 58 58 58 57 57 57 57 59 60 61 61 62 61 61 60 60 61 61 62
49 50 45 41 42 44 42 41 41 42 41 41 40 39 40 40 41 43 44 44 42 40 38 40 44 52 56 57 57 56 56 58 59 60 61 61 61 62 62 61 61 61 61
40 41 41 40 40 40 40 39 38 40 39 39 37 37 38 38 40 39 39 34 32 36 38 38 39 41 44 48 47 48 51 53 56 56 58 59 59 60 60 60 62 62 61
38 37 38 37 37 37 37 35 35 34 33 34 33 33 32 34 32 32 28 29 33 32 35 33 37 36 33 37 41 41 43 43 46 48 53 54 55 55 56 57 59 60 61
31 32 32 32 31 31 32 30 29 30 31 30 31 29 28 28 31 28 32 33 30 31 28 32 26 25 28 31 33 38 38 38 43 47 49 50 52 53 54 55 56 57 58
26 26 26 26 27 27 26 25 26 25 25 28 30 28 28 27 27 30 29 31 26 24 27 23 20 24 25 25 32 36 39 39 43 45 47 48 50 50 51 51 52 53 54
24 22 23 23 23 24 23 23 23 23 25 27 31 28 28 28 26 27 30 26 24 22 22 23 22 24 29 29 30 34 37 44 39 41 44 45 45 46 48 48 49 49 50
23 20 20 20 20 21 21 20 20 22 26 27 31 28 27 28 27 29 25 22 22 22 24 26 28 27 29 26 29 26 35 31 31 33 36 38 41 43 44 45 46 46 47
22 18 18 16 17 18 19 19 21 21 24 25 28 26 25 22 21 23 24 21 20 21 24 27 28 24 24 19 24 29 29 28 29 31 33 34 32 32 36 40 40 40 41
17 15 15 14 14 15 15 15 19 19 23 21 26 20 24 21 21 23 21 20 21 22 24 24 22 20 20 20 21 24 27 25 26 28 29 30 33 34 35 36 35 34 36
13 13 13 12 12 12 12 13 15 18 17 16 15 18 18 20 22 21 21 22 19 23 22 19 19 18 19 21 22 26 23 26 25 25 26 29 30 30 31 30 30 35 34
9 10 11 10 10 10 11 11 13 13 13 13 14 16 17 19 20 21 22 22 23 20 19 19 18 20 21 22 24 26 24 24 25 25 27 26 27 27 28 28 29 31 31
9 9 9 9 9 10 10 10 12 13 11 12 12 15 16 18 19 20 22 21 22 20 19 19 20 21 20 23 24 23 23 26 25 27 26 24 25 26 26 27 27 28 26
8 8 9 9 9 10 10 10 10 10 10 11 13 15 17 18 19 20 20 21 21 21 20 21 20 20 25 23 22 23 24 25 26 24 21 21 21 23 25 26 26 27 29
9 9 10 11 11 11 12 11 10 10 11 13 15 17 17 18 19 20 21 19 20 21 20 19 23 25 23 23 23 22 25 25 23 20 21 20 24 26 24 25 27 27 27
10 11 12 12 12 13 12 11 11 12 15 17 18 19 20 19 19 20 19 19 19 20 24 25 24 25 24 23 24 26 26 23 21 19 18 21 22 22 24 25 25 26 29
11 12 13 13 13 13 12 11 12 15 17 19 20 21 20 20 19 19 18 18 20 23 24 24 26 27 23 24 25 28 21 19 17 18 21 22 23 24 23 24 26 26 28
12 13 14 14 14 12 10 12 15 17 18 20 21 21 21 20 21 19 19 20 22 21 24 29 27 25 24 23 22 20 17 16 19 21 22 25 21 23 24 24 25 26 27
12 13 13 13 12 11 12 15 16 17 19 20 21 20 19 18 18 20 20 20 21 25 26 27 26 22 18 17 20 20 19 20 20 24 21 20 21 22 24 26 26 29 30
12 12 11 11 11 11 13 14 15 17 19 20 20 19 19 18 19 20 22 24 31 28 25 22 18 17 17 23 26 23 24 24 23 22 22 22 23 23 26 26 26 25 28
11 11 11 11 11 10 11 13 16 18 19 20 20 20 20 20 22 22 23 27 28 27 22 20 18 19 23 21 21 21 21 22 23 22 22 22 22 25 23 24 27 25 24
11 11 11 10 10 9 12 14 17 18 19 19 20 20 22 23 22 21 24 28 25 21 21 18 24 24 19 18 18 19 22 22 19 19 21 21 22 23 21 23 24 25 27
11 11 10 9 10 9 13 16 18 18 19 19 21 24 24 21 19 24 24 19 19 17 19 24 18 16 17 19 20 21 22 21 20 19 18 19 20 22 20 21 24 27 25

GFSMA_sfc_30mbdewp_027.txt.gz
Dewpoint
56 57 57 57 57 57 57 57 57 58 58 58 57 57 57 56 56 56 56 55 56 58 58 57 57 60 60 61 61 61 62 62 62 62 62 62 62 62 62 63 63 62 61
59 59 59 59 59 59 58 58 57 57 56 55 54 53 53 53 52 52 52 53 53 53 55 55 56 57 56 56 58 60 60 60 61 61 62 62 62 62 61 61 61 62 62
59 59 58 55 57 56 51 48 43 44 44 44 42 43 46 46 46 47 49 50 50 51 50 46 46 52 55 57 58 58 57 58 59 60 61 61 61 62 62 62 62 62 62
56 52 43 42 44 44 42 41 41 40 40 40 39 39 39 39 40 41 43 42 37 35 39 42 42 43 46 49 51 53 54 56 58 58 59 59 60 60 60 62 62 62 61
42 41 40 40 40 40 39 38 38 38 36 36 34 33 37 33 38 40 36 28 29 33 36 37 39 43 41 40 41 43 45 46 49 49 52 54 55 57 58 59 60 61 62
38 38 37 35 36 37 34 33 32 31 33 32 29 34 29 33 37 32 28 24 32 31 34 31 35 32 32 28 32 35 35 37 37 39 42 46 49 51 54 55 55 56 58
32 32 32 31 30 32 29 28 30 28 28 29 32 26 28 29 29 26 19 32 28 31 27 24 25 22 20 29 29 30 37 38 38 39 43 45 47 49 51 52 53 53 55
28 27 27 27 26 27 25 24 25 24 28 29 30 29 25 27 28 21 28 26 29 25 24 22 20 20 23 23 27 33 33 32 33 39 39 42 44 45 46 47 48 48 52
23 24 23 24 24 25 22 22 23 23 25 28 30 27 23 24 23 28 22 28 26 24 23 21 24 23 24 28 30 30 31 32 37 38 40 42 42 43 46 48 48 49 50
20 21 20 21 22 22 20 21 22 23 24 24 27 31 28 27 25 23 28 20 25 24 23 23 24 25 28 27 25 28 26 30 32 34 36 37 38 38 39 40 41 45 46
19 19 18 18 18 20 19 18 20 18 21 26 24 26 26 25 26 22 18 18 23 21 22 23 24 26 27 22 21 22 26 28 28 30 31 31 31 35 37 36 37 36 38
18 17 15 15 15 16 16 17 19 17 20 21 21 25 21 19 22 19 17 18 20 18 22 21 25 26 22 22 22 22 23 24 26 29 31 32 33 32 32 33 38 40 39
14 13 13 12 13 13 13 14 16 17 17 17 18 16 18 21 20 19 20 18 17 20 19 21 23 21 20 19 20 24 24 24 26 30 30 30 29 29 31 32 31 31 33
12 12 11 10 10 11 11 12 14 16 15 13 12 13 17 18 19 21 19 20 19 17 19 18 20 20 20 20 23 22 21 27 25 24 26 27 26 28 28 31 30 30 31
9 9 9 9 10 11 11 11 13 12 13 13 13 15 15 15 19 22 22 21 20 19 18 19 19 20 22 22 21 22 24 23 22 24 25 25 26 28 27 25 25 25 27
8 9 9 9 10 11 11 11 12 13 11 12 13 15 15 17 19 19 21 23 21 20 20 19 19 20 20 20 24 24 22 23 24 23 24 25 26 30 24 25 24 24 28
9 9 10 11 11 12 12 12 12 11 11 13 16 16 18 19 19 20 20 21 22 22 19 19 19 20 21 24 23 23 24 22 22 24 26 26 26 25 24 23 22 30 27
10 10 12 12 13 13 14 13 11 11 12 15 17 19 19 20 21 21 21 21 20 20 19 19 20 23 24 24 23 25 23 22 26 30 25 23 23 21 21 21 23 24 24
11 12 13 13 13 14 15 13 12 12 15 17 19 20 20 21 21 21 21 20 20 20 22 25 26 25 23 28 27 25 26 26 27 20 19 19 18 19 21 23 25 25 24
12 12 13 14 14 14 14 13 13 16 17 18 20 21 21 21 21 20 20 19 21 21 21 21 22 27 24 25 27 21 16 17 19 20 19 20 21 22 24 22 21 23 24
12 13 14 14 13 13 11 15 16 17 17 18 20 21 21 22 21 20 20 19 20 21 26 28 25 26 25 18 16 17 17 19 22 21 21 21 24 25 21 21 22 23 24
12 13 12 12 12 12 14 16 17 16 17 18 20 20 21 21 20 21 21 21 22 23 24 26 26 23 18 18 18 18 21 23 20 22 22 23 21 20 21 22 23 24 26
12 11 11 12 11 11 14 15 16 16 18 19 19 20 20 20 22 22 23 23 24 27 28 24 21 20 19 19 22 25 24 22 21 21 21 20 21 20 22 22 21 23 24
11 11 11 11 11 10 14 14 16 18 18 19 20 20 20 22 24 22 22 23 29 28 23 21 20 19 24 25 20 18 19 22 23 21 20 18 20 20 20 20 22 23 22
11 11 11 11 10 10 14 16 19 19 19 19 20 21 24 23 21 20 23 28 25 23 18 18 24 22 18 17 18 21 22 21 18 18 19 19 20 20 20 20 21 22 24
11 11 10 10 11 10 17 19 21 20 20 19 23 25 22 19 18 26 25 21 18 15 21 24 15 15 17 18 20 21 22 19 18 17 17 19 20 20 19 20 22 24 26

GFSMA_sfc_30mbdewp_030.txt.gz
Dewpoint
56 57 57 57 57 57 57 57 57 56 54 52 50 48 49 52 51 52 52 51 54 54 52 54 55 55 58 59 60 59 61 61 61 61 61 62 62 62 62 62 62 62 61
59 59 58 58 57 56 55 47 45 45 44 43 41 42 43 43 43 44 46 47 47 42 42 44 46 48 49 53 55 57 58 58 58 58 59 59 60 60 61 62 62 62 62
59 50 44 44 45 43 42 41 41 40 38 38 36 38 37 37 37 39 43 36 33 36 41 41 42 45 48 48 49 49 49 51 51 52 54 55 57 59 60 60 60 62 62
45 42 41 41 42 40 39 38 36 34 33 33 30 30 33 33 33 40 34 24 30 34 36 36 36 36 36 38 40 42 44 44 44 44 45 45 47 50 52 56 57 59 60
40 38 37 37 38 34 32 33 31 30 31 28 27 28 31 29 36 32 23 23 32 31 31 29 34 28 28 31 34 35 36 37 40 42 42 43 44 47 48 50 53 54 56
35 34 31 31 33 29 27 27 27 27 30 28 29 29 25 30 35 24 19 29 30 30 26 26 25 21 25 29 28 33 37 39 38 38 37 38 40 41 44 48 49 51 53
29 29 28 27 29 25 24 25 25 25 26 29 30 25 26 31 27 19 24 24 27 26 24 23 20 22 23 25 29 34 35 35 35 34 36 42 44 45 46 46 46 46 46
24 24 25 25 25 23 21 22 24 22 25 29 25 30 23 25 25 15 25 23 25 21 26 24 22 23 24 25 31 30 29 31 31 32 37 39 40 41 41 42 44 44 46
22 21 22 22 22 22 20 21 23 21 20 26 28 24 18 20 21 25 19 23 17 24 22 25 22 23 23 28 28 27 26 25 27 34 34 35 37 39 39 40 40 40 41
20 19 20 20 20 20 18 19 22 19 21 22 25 26 28 26 18 19 24 19 21 17 24 22 22 24 24 27 26 24 23 25 26 30 32 33 35 35 36 36 36 37 38
18 17 16 16 16 18 17 17 18 16 20 22 22 25 26 22 22 24 17 15 17 19 20 20 24 21 25 26 23 24 22 23 28 31 30 32 33 33 34 35 35 35 36
16 15 14 14 14 14 15 15 16 16 17 18 19 18 17 16 19 17 13 14 16 17 19 21 20 21 24 23 23 22 22 26 27 27 30 32 33 32 32 33 34 35 34
13 12 12 11 11 13 13 13 15 15 16 14 14 14 17 19 20 16 17 17 16 18 18 18 21 21 22 21 21 22 25 24 24 27 29 29 29 29 29 30 31 31 32
11 11 10 10 10 11 12 12 14 14 14 13 12 13 16 16 17 18 19 20 18 17 19 18 19 20 21 21 23 22 21 22 23 25 25 26 26 26 27 28 28 30 35
9 9 10 10 11 12 12 12 13 12 13 13 13 15 16 17 19 19 21 21 21 19 17 18 20 20 20 21 21 21 21 23 24 24 24 24 24 25 25 26 27 30 31
9 9 10 11 12 12 13 13 13 13 12 13 14 15 17 19 19 20 22 22 21 21 19 20 20 19 20 20 21 22 23 24 25 24 24 24 24 26 29 29 30 32 31
9 10 11 12 12 13 13 14 13 12 11 13 16 17 19 20 20 21 22 22 22 21 20 20 20 20 22 23 24 24 24 24 25 25 24 22 22 24 25 24 27 26 23
10 11 12 13 13 14 15 14 13 13 12 15 16 18 19 20 20 21 22 21 21 21 20 21 24 24 22 21 22 23 27 26 25 24 20 21 21 22 21 21 22 22 22
11 12 13 14 14 15 15 14 14 14 15 16 18 19 20 20 20 21 22 21 21 21 22 21 20 20 21 24 26 26 24 17 18 17 17 18 20 20 21 22 23 26 27
12 13 14 14 14 14 13 13 16 17 18 18 18 20 21 21 21 21 21 20 22 20 21 21 23 26 25 23 28 19 16 17 17 17 18 21 22 21 21 22 22 23 22
12 13 13 13 13 13 10 17 18 18 17 17 18 19 20 21 22 21 20 21 21 23 26 27 22 22 25 19 17 17 18 18 18 22 25 20 20 22 22 22 21 21 21
11 12 12 12 12 12 16 17 18 18 17 18 18 19 20 21 21 21 22 22 22 21 21 22 26 20 19 18 19 18 20 23 18 19 18 19 20 19 20 20 21 22 22
11 11 11 11 11 12 15 17 19 20 19 19 19 19 20 20 23 24 23 21 22 25 29 22 20 19 18 19 23 24 21 20 20 20 20 19 19 19 19 19 20 21 22
11 11 11 11 11 10 16 19 21 21 20 20 20 20 21 23 22 20 19 24 28 23 23 19 17 20 24 22 19 20 22 23 23 20 18 18 19 18 19 19 20 21 23
11 11 11 11 9 12 17 20 21 20 20 20 20 21 25 22 19 21 29 23 21 18 15 19 24 20 18 18 19 23 21 20 16 16 17 18 18 19 20 20 20 21 22
11 11 10 9 11 11 16 19 20 20 20 20 23 26 22 20 20 26 18 17 16 15 23 24 15 15 17 18 20 20 23 18 18 16 16 18 19 20 18 19 20 22 23

GFSMA_sfc_30mbdewp_033.txt.gz
Dewpoint
57 55 56 57 58 58 57 55 51 47 44 44 41 42 43 42 41 42 46 49 44 44 46 47 49 50 52 53 55 56 56 57 58 58 59 59 60 60 61 61 62 62 61
58 58 55 52 46 46 43 43 42 40 39 37 34 35 35 36 36 37 41 31 40 38 42 45 45 48 47 47 48 48 49 50 51 52 52 54 54 55 58 60 60 61 62
50 45 44 43 42 41 40 37 36 34 32 30 26 27 29 34 30 40 28 25 33 37 36 38 40 39 39 40 41 43 44 44 43 44 46 47 48 48 49 51 54 57 59
43 42 41 40 37 34 34 32 29 28 27 25 24 25 30 27 33 30 21 27 31 31 30 35 33 30 32 34 37 37 39 40 42 44 44 43 43 45 48 50 50 51 54
37 36 36 35 31 28 27 28 27 28 26 24 24 28 25 26 36 21 21 27 31 27 26 27 27 25 27 30 32 36 38 41 41 41 41 41 41 44 45 45 45 47 51
31 30 30 29 27 24 23 22 23 25 30 25 25 22 25 29 32 19 24 24 29 25 25 24 22 22 24 27 29 34 37 36 35 37 37 37 38 42 45 46 47 47 47
27 26 26 25 24 21 21 22 22 21 24 27 23 24 26 30 28 20 22 22 21 20 26 21 24 22 24 26 25 32 33 32 34 34 34 36 41 41 42 43 43 43 45
23 23 23 23 21 20 20 21 20 18 21 27 27 29 19 18 24 17 21 24 19 21 23 18 25 21 22 25 26 29 28 29 30 31 33 35 37 39 39 40 41 41 42
21 21 21 21 20 20 18 21 19 17 17 23 27 16 10 15 23 22 17 24 17 21 17 22 24 21 24 22 25 28 26 26 28 31 33 34 36 37 37 38 39 39 39
18 19 19 19 19 19 17 19 19 17 21 19 22 22 25 26 16 14 22 18 19 14 19 22 21 22 24 22 27 25 24 25 28 30 33 35 36 36 37 37 37 37 37
17 16 16 15 16 17 16 16 15 15 19 19 20 22 23 21 23 22 14 15 12 12 17 19 22 21 22 23 25 25 23 25 27 30 33 33 34 35 36 37 36 36 35
15 14 13 13 13 14 14 14 15 15 16 15 16 16 16 16 19 17 14 12 12 12 17 18 19 20 21 23 24 22 23 24 27 28 29 31 32 33 32 33 33 33 34
12 11 11 10 11 13 13 14 14 15 16 13 14 13 17 18 19 18 16 15 13 16 16 19 19 21 21 20 22 22 22 24 24 25 27 30 30 30 30 30 30 31 32
11 11 10 10 11 12 12 13 14 15 14 13 12 13 16 16 18 18 18 18 18 15 17 17 18 19 21 22 22 22 21 22 23 24 26 27 28 27 26 27 28 28 29
10 10 10 11 12 13 13 13 14 13 13 13 13 15 16 17 19 20 21 21 21 18 17 17 19 20 21 21 21 21 21 22 23 24 25 25 24 25 26 28 28 30 31
9 10 11 12 13 13 14 14 14 14 13 13 14 16 17 19 20 21 22 22 22 21 20 20 20 20 21 21 22 22 22 24 25 25 24 24 25 24 24 24 24 25 25
10 11 12 13 13 14 14 14 14 13 13 13 14 16 18 20 20 21 21 22 22 22 21 21 21 22 23 20 20 21 22 23 24 26 27 25 21 21 22 23 26 27 28
11 12 13 13 14 14 14 13 13 13 15 15 16 17 18 19 20 21 21 21 22 22 21 22 24 21 19 20 21 22 24 26 33 27 21 19 19 20 20 22 25 26 26
12 13 13 13 14 14 13 13 13 15 16 17 18 18 18 20 20 21 21 21 22 22 24 23 20 21 22 23 24 27 27 22 18 17 18 19 20 21 21 24 25 24 26
12 13 13 13 13 13 13 12 17 18 18 18 18 19 19 20 21 21 21 20 24 21 21 22 23 23 23 26 26 18 15 17 17 18 19 21 22 22 21 21 21 21 22
12 13 12 12 12 12 10 18 20 19 19 18 19 19 20 21 21 20 20 20 20 22 24 23 21 25 20 17 15 17 17 18 20 22 24 20 18 18 19 20 20 20 21
11 12 11 11 11 11 16 19 21 21 20 20 19 20 20 21 21 22 21 21 21 20 24 26 21 19 17 16 17 18 22 21 17 19 18 20 20 19 19 20 20 21 22
11 11 11 11 10 11 16 19 21 23 21 20 20 20 20 20 22 24 23 21 26 29 22 21 19 17 17 18 25 23 21 21 19 19 21 21 19 18 18 18 20 21 22
11 11 11 11 10 10 17 19 21 21 21 20 20 21 20 21 25 21 23 29 22 20 19 18 17 20 25 22 18 20 23 23 22 19 18 18 18 18 18 19 20 21 23
11 11 11 10 10 12 18 19 21 20 20 20 20 21 24 24 20 22 26 21 18 18 16 19 25 20 18 19 20 24 21 19 16 16 17 17 18 18 19 19 20 21 22
11 11 10 10 13 13 16 20 21 20 20 19 24 25 22 20 20 25 19 17 17 16 23 24 16 16 18 18 20 21 23 18 18 16 15 18 19 20 18 19 20 21 21

GFSMA_sfc_30mbdewp_036.txt.gz
Dewpoint
58 55 56 58 58 57 54 46 44 42 39 37 34 35 35 35 34 38 38 42 42 44 46 48 49 51 49 49 50 50 51 52 52 52 53 54 55 55 56 58 60 61 61
57 59 53 45 43 43 42 41 38 35 31 29 24 26 29 32 30 40 25 34 41 41 42 45 44 44 43 43 45 46 45 46 46 47 48 49 50 50 51 51 53 55 58
53 47 44 41 40 39 36 31 30 30 24 24 21 24 29 27 35 23 25 30 32 33 39 38 38 37 38 38 40 41 41 43 45 46 46 46 46 46 47 49 51 52 53
44 43 40 36 31 29 29 28 25 27 23 22 18 24 26 25 36 18 26 29 31 26 29 33 31 30 32 34 36 37 39 41 42 43 43 43 44 44 45 47 47 48 49
39 38 33 29 26 24 23 24 23 28 23 20 17 23 22 26 31 19 23 28 25 24 26 24 27 27 27 30 33 34 38 40 40 38 40 40 41 41 42 44 47 48 49
31 30 26 24 23 21 20 20 20 23 26 24 21 17 27 29 31 19 24 25 21 22 26 20 23 24 24 25 30 31 33 37 37 37 38 38 38 39 43 44 44 45 46
27 25 24 21 21 20 20 18 21 17 22 27 20 21 25 26 28 25 20 23 20 20 24 17 20 24 23 24 27 26 30 33 34 35 35 36 38 38 40 41 43 43 43
24 22 21 20 20 18 19 18 15 15 20 26 21 24 12 13 20 16 21 24 19 21 18 13 19 23 21 23 26 24 28 30 31 33 35 36 37 38 39 40 40 41 41
21 20 20 19 19 19 19 18 17 17 15 19 26 15 5 8 22 19 18 24 17 18 14 16 20 21 21 24 24 24 29 26 29 31 34 35 36 38 39 39 39 40 40
19 19 18 18 18 17 16 18 17 18 18 16 19 20 22 24 12 12 19 16 18 13 14 17 19 21 22 23 24 25 25 25 28 31 33 34 36 37 37 37 38 38 38
16 16 16 15 15 16 15 15 14 15 18 17 17 19 20 19 22 21 12 14 13 13 14 16 20 18 19 22 23 26 24 25 28 29 31 33 34 34 35 35 36 38 36
15 13 13 13 14 14 14 15 15 14 15 14 15 15 15 15 17 15 14 14 14 13 15 16 18 19 20 22 24 22 24 25 27 29 30 31 32 32 33 33 34 34 34
12 11 11 11 13 13 13 15 15 14 15 13 13 13 17 17 18 18 17 16 15 16 16 17 18 19 19 20 21 22 23 24 24 26 28 29 30 30 30 31 32 33 32
11 11 11 12 12 13 13 14 15 15 15 13 12 13 15 16 18 19 19 18 17 14 13 15 17 19 20 21 23 23 22 23 23 24 25 26 26 26 27 27 28 28 31
10 11 12 12 13 13 14 14 15 14 14 14 13 14 16 17 19 20 21 21 20 17 14 15 18 19 21 21 22 22 22 23 23 24 24 24 24 24 26 26 28 31 30
10 12 12 13 13 14 14 14 14 14 13 14 15 15 16 18 19 21 21 22 22 20 19 18 19 20 21 22 23 22 20 22 23 24 24 24 25 25 26 27 24 24 24
11 12 13 13 14 14 14 13 13 13 14 16 16 17 17 19 19 21 21 22 22 22 21 21 21 21 23 21 20 21 22 22 23 25 26 25 24 24 23 23 23 26 26
12 13 13 13 13 14 14 12 12 14 16 17 17 18 18 18 19 20 21 21 21 22 21 21 23 21 20 21 22 23 25 27 29 25 21 21 20 20 21 22 23 26 26
12 13 13 12 13 13 12 12 13 16 18 18 18 19 19 19 19 20 21 21 22 22 24 22 20 21 22 23 26 24 21 18 16 17 18 19 20 21 22 24 27 28 27
12 13 13 12 12 12 12 12 18 20 20 19 19 20 19 20 20 21 21 21 21 20 20 22 22 23 26 22 19 16 15 16 17 18 20 22 22 21 21 21 21 21 21
12 13 12 11 12 11 10 18 21 21 21 20 20 20 20 21 22 22 21 21 21 22 23 25 24 20 18 17 16 16 16 18 22 21 19 19 19 19 19 20 20 20 21
11 12 11 11 10 11 16 20 22 22 22 20 20 20 21 22 21 23 22 22 22 23 27 22 20 18 17 16 17 18 23 20 17 19 18 21 21 20 20 20 20 21 22
11 11 11 11 10 11 17 21 21 22 21 21 20 20 20 20 23 22 24 24 26 27 21 19 18 17 17 18 24 23 20 21 20 20 21 20 19 18 18 18 19 20 22
11 11 10 11 10 11 20 20 21 22 21 20 20 20 20 21 23 23 22 29 25 21 19 18 18 20 26 23 19 20 23 23 22 19 17 17 18 17 18 18 20 21 22
11 10 11 10 11 14 19 20 21 21 20 20 20 21 22 22 21 23 27 23 19 18 17 19 24 22 19 20 21 23 21 19 16 16 17 17 18 18 19 19 19 21 22
11 11 10 12 15 14 18 20 21 20 20 20 20 20 21 21 21 26 19 18 17 16 22 25 16 16 17 18 20 19 20 18 17 16 15 18 19 20 17 17 19 19 20

GFSMA_sfc_30mbdewp_039.txt.gz
Dewpoint
59 56 57 58 57 55 48 45 42 38 33 29 26 27 29 31 29 39 29 44 45 46 47 49 48 48 47 47 48 48 48 48 49 50 50 51 52 52 53 53 54 56 57
58 59 49 46 44 42 40 39 34 31 26 23 21 24 29 25 34 27 31 37 40 43 44 44 43 42 42 42 43 44 44 45 46 48 49 49 49 49 49 50 52 53 54
58 49 44 41 40 37 31 29 30 27 23 21 19 24 26 24 35 24 30 30 29 37 39 37 36 36 37 38 40 40 41 42 44 45 46 46 46 47 47 48 49 49 50
48 44 39 34 31 29 29 25 26 27 22 21 19 22 23 27 23 26 28 28 26 25 28 30 28 28 30 32 35 37 38 39 41 43 42 42 43 43 44 44 45 48 50
43 38 33 28 25 25 25 23 25 27 21 20 19 20 25 30 21 24 25 26 24 26 24 22 24 24 26 28 31 35 35 35 39 39 39 40 41 41 41 42 45 46 47
34 31 28 24 24 23 21 23 20 23 21 22 19 18 28 32 25 23 22 24 22 22 22 19 16 16 22 26 29 30 31 34 36 37 37 39 39 40 41 42 44 44 44
28 26 24 22 23 20 18 17 21 19 20 24 19 19 23 24 30 29 18 23 22 21 19 15 11 13 16 22 23 26 29 30 34 34 36 37 38 39 40 41 42 42 43
25 23 22 21 21 20 18 17 18 18 19 25 16 20 13 13 21 19 24 23 20 19 15 11 12 14 16 17 21 25 26 29 32 33 34 36 37 39 39 40 40 41 41
22 22 21 20 21 21 19 19 20 20 16 22 20 14 9 8 17 17 17 21 16 15 13 13 13 13 16 17 20 22 24 27 29 32 34 36 36 37 38 38 40 40 39
21 20 20 19 19 20 18 17 18 18 19 15 18 18 20 18 10 8 16 16 16 12 14 14 13 15 16 17 19 22 24 26 29 31 33 35 35 36 37 38 37 38 38
18 18 18 19 18 18 17 17 17 17 17 17 16 17 17 16 20 18 8 10 12 13 14 14 14 15 16 18 19 20 23 25 28 30 32 33 34 35 35 35 35 36 36
16 16 16 17 17 17 17 17 17 17 16 17 17 16 14 13 12 13 12 12 14 12 14 15 16 14 15 17 19 21 23 26 28 28 29 31 31 32 32 33 33 33 34
14 14 15 14 15 17 17 18 19 19 19 16 15 14 16 17 17 17 16 14 14 15 14 14 14 15 16 18 18 21 23 24 24 26 28 30 29 29 29 30 30 31 32
13 14 14 14 15 16 16 17 18 18 18 17 15 15 16 17 18 18 17 17 16 12 13 12 14 16 18 18 21 22 21 22 23 25 26 26 26 26 26 27 27 28 32
12 13 15 14 15 15 15 17 16 15 15 15 16 16 16 17 19 19 20 19 18 15 15 13 14 17 19 20 20 21 21 22 23 25 25 25 25 25 27 29 29 29 29
13 14 14 15 15 15 15 14 14 15 14 16 17 17 17 19 19 20 20 20 20 19 18 16 18 19 20 20 21 21 20 22 24 24 24 24 24 24 25 27 27 27 27
13 13 14 14 14 14 14 12 12 14 16 17 18 18 19 19 19 19 20 20 20 19 19 20 20 21 20 19 19 21 22 22 23 22 22 23 23 23 23 24 26 27 27
13 14 14 13 13 13 13 11 12 15 17 18 19 19 19 19 19 19 19 19 20 20 21 21 21 21 18 20 21 23 22 20 19 19 20 21 22 23 23 23 24 25 26
14 14 13 12 12 13 12 11 14 18 20 20 20 20 20 19 18 18 20 21 21 21 22 22 20 21 22 24 22 19 16 16 16 17 19 20 21 23 24 24 25 24 24
13 13 13 12 12 11 11 13 18 21 22 21 21 21 20 19 19 21 22 22 23 22 21 22 22 25 22 20 20 17 16 17 18 19 21 21 21 21 22 22 22 22 23
13 13 12 12 12 12 9 19 22 22 22 22 21 20 20 21 23 23 22 22 21 22 24 25 25 20 19 18 16 17 17 19 22 20 20 19 19 20 21 22 21 21 22
12 12 11 11 11 10 17 21 22 22 22 22 20 19 20 22 22 22 22 22 23 23 27 25 22 19 16 16 18 19 23 21 18 19 19 20 21 20 20 20 20 21 22
12 11 11 11 10 11 19 21 22 22 21 21 20 20 20 20 22 22 23 24 24 30 24 22 18 17 18 19 24 24 22 21 20 20 20 19 19 18 19 18 19 21 22
11 10 10 11 11 12 21 21 22 21 21 20 20 20 20 21 22 22 22 28 27 21 19 18 18 20 25 26 21 21 22 23 22 20 18 18 18 18 18 19 20 21 22
10 10 11 11 13 16 20 21 22 21 20 20 20 21 21 19 20 21 25 26 19 18 17 19 24 23 19 20 21 23 22 19 17 16 17 17 18 19 20 20 20 21 21
10 11 11 14 16 15 19 21 21 20 20 19 20 19 19 21 20 24 22 20 18 16 21 25 16 15 16 17 20 19 20 19 18 16 15 19 19 20 17 17 19 21 21

GFSMA_sfc_30mbdewp_042.txt.gz
Dewpoint
57 57 56 57 57 56 52 49 43 39 39 36 31 29 30 30 27 32 30 45 45 47 49 48 47 46 46 46 47 46 46 47 48 50 51 52 52 52 52 53 54 55 55
59 57 55 50 46 44 42 42 40 37 33 27 24 23 26 24 28 28 30 38 44 44 44 43 42 41 41 41 43 43 44 44 45 46 47 48 48 48 49 50 51 51 52
59 55 50 47 44 41 37 35 33 29 26 24 23 21 23 21 29 26 29 28 32 38 37 36 34 33 34 35 37 38 40 41 42 43 45 45 44 45 46 47 47 48 49
56 49 43 39 37 36 33 28 28 27 25 23 21 21 21 23 25 26 28 26 26 24 28 30 30 29 30 31 33 36 38 38 38 39 42 42 42 43 44 44 44 45 46
51 44 39 33 31 30 29 24 27 24 22 21 19 18 24 27 25 22 25 23 25 25 23 20 21 19 23 29 32 34 35 35 37 38 39 40 41 42 41 43 43 44 46
43 35 33 29 27 27 25 24 23 22 20 20 18 17 25 29 24 24 24 20 22 23 22 19 16 13 16 24 27 29 32 34 35 36 38 39 39 41 41 42 43 43 44
35 30 30 27 26 24 20 19 20 21 20 21 18 16 21 21 29 28 24 20 22 19 18 14 12 12 13 17 20 26 30 31 33 35 37 37 38 39 41 41 42 42 43
30 27 26 25 23 21 20 19 19 19 19 22 16 19 15 15 20 25 17 20 16 18 14 13 14 13 13 15 17 24 25 28 31 33 34 36 38 39 40 40 40 41 41
25 26 25 24 22 21 21 20 21 20 18 20 18 15 12 11 13 13 17 14 16 13 13 15 14 13 14 15 17 19 22 27 29 32 35 36 37 38 38 39 39 39 39
25 23 22 22 21 20 20 18 18 17 18 16 17 15 18 14 8 8 11 13 14 12 14 15 14 14 15 15 18 20 22 25 28 31 34 35 35 36 37 37 37 38 39
22 21 20 20 19 18 18 18 18 17 15 16 15 14 14 14 15 14 11 10 12 13 14 14 15 15 14 15 16 18 21 25 28 30 32 33 33 33 34 35 35 35 36
20 19 18 19 18 18 18 18 18 18 16 17 15 14 13 12 11 12 11 12 13 12 13 15 15 14 14 14 16 18 21 25 27 29 30 31 32 32 33 33 33 33 34
18 18 17 16 17 19 19 19 20 21 20 17 15 13 14 14 14 15 14 13 12 13 12 14 13 14 14 15 16 19 23 24 24 26 29 30 30 30 30 30 31 31 33
18 17 15 15 16 16 17 18 19 18 19 17 16 15 14 14 16 16 16 15 14 11 11 11 12 13 15 15 18 21 20 20 22 25 26 27 27 27 27 28 29 30 31
15 15 15 15 16 16 15 18 15 13 14 14 14 16 17 17 18 18 18 17 16 14 12 11 11 13 15 17 18 19 19 20 22 24 25 26 26 25 26 26 27 27 29
14 15 15 15 15 15 14 13 12 13 12 14 15 17 17 17 17 18 18 18 17 16 15 14 13 15 17 18 18 18 18 21 22 23 24 24 23 24 26 27 28 27 28
13 13 13 13 13 13 11 10 10 12 13 16 17 18 18 18 18 16 16 16 16 16 15 17 17 18 18 18 17 19 20 21 20 18 19 21 23 24 25 26 27 28 28
12 12 12 12 12 11 10 8 9 13 15 17 18 18 18 17 16 15 15 15 16 18 18 18 19 20 18 18 20 21 19 15 15 17 19 21 23 24 24 25 26 27 27
13 13 13 11 10 11 9 8 12 15 17 18 19 19 19 17 15 16 17 18 19 19 22 23 22 20 21 23 21 20 17 16 16 17 19 20 22 23 25 25 25 25 26
13 13 12 11 11 9 10 12 16 18 19 19 20 20 19 17 17 18 19 19 18 19 19 19 21 23 27 22 21 17 15 17 18 19 21 21 21 22 22 23 23 24 24
13 13 12 11 10 11 7 17 19 20 19 19 18 18 17 18 21 23 22 20 20 21 23 24 24 27 22 18 14 16 18 19 21 21 20 20 20 21 22 22 22 22 22
13 13 11 11 10 9 16 22 23 20 19 18 17 16 16 18 18 21 22 22 23 25 28 28 25 21 15 14 17 18 21 24 19 20 19 20 22 21 21 21 21 22 23
13 11 11 10 9 10 18 23 22 20 19 17 17 17 17 17 19 19 19 22 24 25 26 23 19 15 15 17 22 26 23 21 21 21 21 21 20 19 20 19 21 22 23
11 10 10 10 10 11 20 21 22 20 18 18 18 18 18 19 18 19 20 24 27 23 17 17 16 17 21 25 25 21 22 22 22 21 19 19 20 19 21 22 22 23 24
11 10 10 10 11 12 17 21 22 18 17 17 18 18 19 18 19 21 23 28 19 16 16 16 20 24 24 20 20 22 23 21 19 19 20 19 20 21 22 22 23 21 22
11 10 9 11 13 12 15 20 21 18 17 17 17 18 17 19 20 23 25 18 18 14 17 24 22 16 16 17 19 20 22 21 20 19 17 20 21 21 19 19 22 23 24

GFSMA_sfc_30mbdewp_045.txt.gz
Dewpoint
55 55 55 55 55 56 54 51 48 45 44 41 38 33 31 31 28 32 40 46 47 49 49 48 46 46 45 45 45 45 46 46 47 48 49 49 50 50 50 51 52 53 54
56 56 56 55 52 50 48 47 45 42 39 34 29 26 26 27 25 30 30 42 46 45 44 43 40 38 38 38 38 39 41 43 44 44 45 47 47 47 47 47 48 50 50
59 58 55 53 50 47 44 42 38 35 30 29 27 24 24 23 24 26 29 31 40 39 37 36 35 34 35 35 36 37 39 40 41 41 42 44 44 44 44 46 46 46 46
59 55 53 48 45 43 40 36 32 31 29 26 24 24 23 24 26 25 29 28 29 28 35 29 28 28 28 32 36 37 38 39 38 39 41 42 42 43 43 44 44 44 45
58 52 48 42 41 38 35 29 30 26 25 24 22 18 23 27 27 23 26 25 27 27 27 24 22 21 20 24 32 34 35 37 38 38 39 40 41 42 42 43 43 45 45
54 47 42 38 36 33 30 29 27 25 23 22 20 19 25 29 26 26 25 23 23 24 23 21 20 17 17 20 25 28 33 35 36 36 38 39 41 41 41 42 43 43 44
47 43 38 35 32 30 27 25 24 24 24 23 21 21 24 24 29 28 29 22 22 22 20 17 16 17 16 18 20 24 29 31 33 36 36 37 38 40 41 42 42 42 43
42 37 34 32 28 25 23 23 24 23 23 22 19 23 20 21 22 27 24 21 19 18 17 16 17 17 17 18 19 22 24 27 32 34 36 37 39 39 40 40 40 41 41
37 34 32 29 27 27 26 25 25 24 22 21 20 20 17 17 16 15 19 18 18 17 17 17 18 17 17 17 19 20 22 26 29 33 35 36 37 38 38 39 39 39 40
34 31 29 27 26 25 24 22 21 19 20 19 20 17 21 18 12 12 14 15 15 14 16 17 17 17 17 18 18 19 21 24 28 31 34 35 35 36 36 36 37 37 37
28 26 26 26 25 24 21 22 20 18 17 18 18 18 16 16 16 15 16 14 15 16 17 16 16 17 17 18 19 18 19 24 27 30 32 34 34 34 35 35 34 35 37
27 25 24 24 22 23 22 21 21 20 19 20 18 16 16 15 14 15 14 15 15 15 15 16 16 17 17 17 17 18 20 23 27 29 31 32 33 33 33 33 34 34 36
24 23 22 21 22 22 21 21 24 25 23 21 19 16 15 15 16 15 16 16 16 16 15 15 15 15 15 16 17 18 21 23 24 25 28 30 30 30 29 30 31 32 33
23 21 20 20 19 19 19 22 23 21 22 20 19 18 17 16 17 17 17 18 17 16 15 14 15 14 15 16 18 19 20 20 22 24 26 27 27 27 27 28 30 29 29
20 20 19 17 17 17 17 20 18 15 15 16 16 17 18 18 19 19 19 19 19 17 16 15 13 15 15 17 18 20 19 20 21 23 24 25 25 25 26 26 27 30 31
19 19 18 17 16 16 15 14 14 14 13 14 16 16 18 18 18 19 20 19 19 18 16 16 16 16 18 19 20 20 19 20 22 22 23 23 22 23 25 26 27 28 29
18 17 16 15 14 14 12 11 11 11 13 15 17 17 18 18 18 18 18 17 17 17 16 17 19 20 20 20 20 20 21 22 21 21 20 21 23 24 25 26 27 27 28
15 14 13 12 12 11 10 9 9 11 14 15 17 18 18 17 18 17 16 16 17 18 19 19 20 21 21 21 20 22 23 22 19 18 19 21 23 24 24 25 26 27 27
13 13 13 12 11 11 10 9 11 13 15 17 18 18 19 18 17 17 17 18 19 20 20 20 20 20 21 22 24 25 21 19 17 18 19 20 22 24 24 25 25 25 26
14 13 13 12 11 10 10 11 15 17 19 19 19 19 19 19 17 17 19 21 20 20 21 21 21 23 24 27 24 19 17 18 19 19 21 23 22 22 23 23 23 25 25
14 13 12 11 11 12 8 16 18 19 19 18 19 18 17 18 19 21 21 22 22 22 23 24 24 26 25 20 18 17 17 19 20 23 21 21 21 21 22 23 22 23 23
14 14 12 11 11 10 18 22 24 21 19 17 17 16 17 17 17 19 21 21 21 21 25 28 26 24 22 18 17 18 21 22 22 21 21 21 21 21 22 22 22 23 24
14 13 12 11 10 11 18 22 23 21 19 18 17 17 17 17 19 19 19 19 22 23 24 24 22 19 18 18 21 22 24 24 21 21 21 21 23 21 21 21 22 24 25
13 12 11 11 11 11 18 21 22 20 17 17 17 17 18 18 19 19 20 24 25 27 24 19 18 18 19 22 28 29 23 22 22 22 21 21 21 20 21 23 23 24 25
12 11 12 11 11 10 16 20 22 19 16 16 17 17 18 19 18 20 22 25 25 20 19 17 19 21 23 22 20 20 22 22 20 19 20 20 21 22 22 22 22 22 23
12 12 10 11 11 12 12 17 21 19 17 17 18 18 17 17 19 21 22 22 20 18 18 21 22 21 18 17 19 20 22 23 21 19 19 20 22 22 19 19 21 22 24

GFSMA_sfc_30mbdewp_048.txt.gz
Dewpoint
53 54 57 57 57 55 54 51 48 46 43 39 36 31 28 31 27 39 47 50 51 51 50 48 46 44 43 42 42 42 43 44 45 45 45 46 48 48 48 48 48 50 51
56 56 56 55 54 51 50 49 46 41 38 31 29 27 26 27 26 29 42 48 48 46 45 42 40 39 39 39 39 39 40 41 43 43 42 44 45 46 46 45 47 47 47
58 58 55 53 51 48 46 41 38 33 31 30 28 25 24 23 23 26 35 43 43 41 38 36 34 34 34 35 38 39 40 40 41 41 42 43 43 44 44 45 45 46 46
59 56 54 52 47 45 41 36 34 32 29 27 26 25 25 27 27 26 29 33 36 35 35 31 27 26 27 28 34 37 38 39 40 41 40 41 43 43 44 44 44 45 46
58 54 50 45 44 40 35 32 28 27 26 25 23 20 26 28 27 24 27 26 26 27 28 27 25 22 21 24 28 32 35 38 38 39 39 41 41 42 43 43 44 44 45
55 51 44 42 38 34 31 31 27 26 25 24 22 23 27 30 27 27 26 25 26 24 24 22 21 20 21 22 26 28 31 35 36 38 39 39 40 41 42 42 43 43 43
51 44 41 37 35 33 30 27 27 27 24 23 24 23 26 27 31 27 28 27 24 23 21 19 18 19 19 20 21 24 28 30 33 37 37 39 39 40 41 41 42 42 42
46 41 37 33 30 26 24 25 27 24 25 23 18 23 21 23 25 26 30 23 21 19 18 17 17 18 18 19 20 22 24 27 31 34 36 38 38 39 39 40 40 40 41
41 41 38 32 28 28 27 27 26 26 24 22 20 20 17 19 16 21 22 23 17 20 17 17 18 18 17 18 20 22 22 25 28 32 35 36 37 37 38 38 38 38 39
40 39 37 32 30 28 26 24 24 22 24 21 21 21 21 19 13 10 17 18 17 16 18 18 17 17 17 18 21 23 20 23 27 31 33 35 36 36 36 36 37 37 37
39 36 31 29 27 25 22 22 21 19 20 21 20 19 17 19 17 15 15 17 17 17 18 18 18 18 18 18 19 20 19 22 26 29 32 34 34 35 35 35 36 36 37
31 28 27 26 25 25 23 23 22 21 21 20 19 18 17 16 16 16 16 16 16 17 18 17 17 18 17 19 21 20 20 22 25 27 30 31 32 33 33 32 33 33 35
29 29 27 25 25 25 23 25 26 25 24 23 19 18 17 17 18 17 17 17 18 18 18 17 17 17 16 17 17 22 23 22 23 26 28 30 30 30 29 30 30 31 33
29 28 26 25 23 23 24 26 26 25 24 25 19 19 19 18 19 19 18 19 18 18 18 17 18 16 17 17 20 20 20 22 23 24 26 27 27 27 27 28 29 29 30
25 24 22 20 20 20 21 24 22 18 17 17 17 18 19 20 20 20 21 20 19 17 17 17 16 18 18 19 20 22 21 21 23 23 25 25 25 26 26 26 27 28 30
22 21 21 19 18 17 17 18 16 14 14 15 17 16 18 20 20 20 20 21 20 19 17 17 17 18 19 20 21 21 21 22 22 23 25 24 24 24 25 26 27 29 30
21 20 20 17 16 15 14 13 12 13 13 15 17 18 19 19 19 20 20 19 18 18 17 18 18 21 21 21 21 22 22 21 23 24 23 23 23 24 25 26 27 27 28
18 17 16 15 14 12 10 9 10 12 14 15 17 18 19 19 19 19 19 18 18 19 19 19 20 20 21 21 21 21 23 26 24 21 22 21 22 24 24 26 26 27 27
17 15 14 13 12 12 11 9 12 14 15 17 18 19 19 20 19 19 18 19 21 21 22 21 21 21 21 23 24 26 25 21 20 19 19 21 21 24 26 25 25 25 25
15 14 13 13 12 11 11 12 17 18 19 20 20 20 20 19 19 18 20 20 21 22 22 22 22 23 24 26 26 23 20 18 18 20 21 23 26 23 24 23 24 25 25
15 14 13 12 12 13 15 18 22 22 21 20 19 19 18 20 20 20 20 21 22 22 22 24 25 24 23 23 22 21 18 18 19 21 24 22 21 22 22 22 23 24 24
15 14 13 12 14 10 19 22 24 24 22 20 19 18 18 20 18 20 21 21 21 21 23 23 24 25 25 23 19 18 19 20 20 24 21 21 21 21 22 23 23 24 25
14 13 12 12 11 16 19 21 23 23 22 20 19 18 18 17 19 19 21 20 21 23 24 23 23 21 19 19 20 21 23 25 24 22 21 21 21 21 21 21 22 24 25
13 12 12 12 12 16 19 20 22 22 20 19 18 17 18 18 19 20 20 22 24 25 26 25 20 19 20 21 24 28 26 22 22 22 21 21 21 20 20 22 22 23 25
12 12 12 11 11 13 19 18 21 21 19 18 18 19 20 19 20 20 22 23 24 24 21 20 20 22 23 22 21 20 22 21 20 19 20 20 19 21 21 20 21 22 22
13 12 10 11 14 11 14 17 19 20 20 20 20 21 21 19 21 21 22 23 21 20 20 21 22 21 19 19 19 20 21 22 21 19 18 19 20 21 17 17 19 20 22

GFSMA_sfc_30mbdewp_051.txt.gz
Dewpoint
58 57 57 57 58 58 58 54 48 46 40 34 31 28 29 29 38 44 51 53 53 52 50 47 44 43 43 42 42 42 42 43 44 45 44 45 46 46 47 47 47 48 49
53 53 56 57 55 54 52 49 47 41 33 30 29 26 25 25 31 43 48 50 49 47 45 43 40 39 38 38 40 41 41 42 43 43 44 44 45 45 45 46 47 47 47
54 56 55 54 51 49 46 39 36 32 30 28 26 25 24 23 26 36 44 45 44 42 37 35 33 33 33 34 37 40 40 41 42 43 43 42 43 45 45 46 46 46 47
58 56 54 52 50 47 41 37 33 30 28 27 25 24 25 27 26 30 39 38 37 36 35 30 28 28 27 30 33 36 37 40 41 41 41 42 43 43 45 44 45 45 46
57 55 52 48 45 39 35 31 28 28 25 24 22 21 27 29 26 28 29 28 30 31 29 29 28 26 25 27 31 33 34 36 38 39 41 41 42 42 43 44 44 44 45
55 52 47 44 39 34 33 29 25 26 25 22 21 24 27 30 27 26 26 26 27 25 24 22 19 20 24 24 26 28 31 35 35 37 39 40 41 41 42 42 42 43 43
53 49 46 40 35 32 30 28 27 25 21 23 23 22 27 28 28 27 28 26 25 24 21 18 18 18 19 24 23 24 28 30 33 34 37 39 40 40 40 41 41 41 42
49 46 42 37 34 31 27 26 25 25 24 22 17 25 20 22 25 28 30 27 22 21 19 17 17 17 18 18 21 22 24 26 30 33 35 38 38 39 39 39 40 40 40
46 43 39 35 29 28 26 26 26 26 23 22 21 20 17 16 17 21 25 24 18 20 17 19 19 18 18 18 21 22 25 24 27 30 34 35 37 37 38 38 38 39 39
45 42 39 33 32 30 27 26 26 25 25 20 21 21 21 18 8 5 16 20 18 17 18 18 19 18 17 19 21 26 25 22 26 29 32 34 35 36 36 37 37 37 38
42 41 37 34 33 32 27 23 21 22 23 22 22 20 18 19 18 15 12 16 18 17 18 19 18 18 19 19 20 22 25 23 25 28 30 32 33 34 34 35 35 35 36
41 35 33 34 32 30 28 24 21 20 20 20 19 18 17 15 17 17 16 17 16 17 18 18 18 18 18 19 20 25 24 24 26 28 28 30 32 33 33 33 33 34 35
34 31 30 32 31 30 27 26 24 24 23 20 18 18 18 17 19 18 17 16 17 19 18 19 18 19 17 18 20 23 23 24 24 26 28 30 31 31 31 30 31 31 32
32 31 31 31 29 28 28 27 26 25 24 23 19 19 19 19 20 19 18 18 17 18 19 18 19 18 18 19 21 21 22 24 24 25 27 28 28 29 28 28 29 31 30
30 29 29 29 29 28 27 25 24 20 20 20 18 19 19 21 21 21 21 21 19 17 16 18 17 18 19 20 21 23 22 22 24 25 25 27 27 27 27 27 27 30 31
26 27 26 25 24 24 23 22 18 16 15 17 18 17 18 20 20 20 20 21 21 20 17 17 17 19 19 21 22 23 22 23 23 24 26 26 25 26 26 27 28 28 32
25 24 23 22 20 18 17 15 16 14 13 15 17 18 19 20 20 20 20 20 19 19 17 18 19 21 21 21 22 22 22 22 23 25 25 25 25 25 25 26 27 27 29
22 21 21 20 16 14 13 15 15 12 14 15 17 18 19 20 19 20 20 19 18 19 20 19 21 21 22 22 22 22 24 25 26 24 23 22 22 24 24 26 27 29 26
21 19 16 14 13 12 10 11 13 14 16 17 19 19 19 20 19 20 20 19 20 20 21 21 21 23 23 24 24 26 26 25 23 22 20 20 22 25 27 27 26 26 26
19 16 15 14 13 12 13 17 19 20 21 20 20 20 20 19 19 19 19 20 20 21 22 22 23 23 24 23 25 23 22 22 20 19 19 21 24 25 24 24 25 25 25
17 17 18 19 19 15 16 18 23 23 21 20 20 19 19 20 21 20 20 21 22 22 22 22 24 23 22 22 23 22 21 20 19 20 21 23 25 22 22 23 23 23 25
16 16 16 17 12 17 22 25 24 23 22 20 20 20 19 21 19 20 20 20 22 21 22 23 24 23 22 22 20 20 20 20 20 23 23 22 22 21 22 22 23 24 24
14 14 14 13 13 20 22 22 23 23 21 20 19 18 18 18 21 20 21 22 22 23 24 24 24 23 23 20 20 21 24 25 24 23 22 21 21 20 21 21 22 23 25
20 16 12 13 14 20 21 21 23 21 20 19 19 19 20 20 21 21 21 22 24 24 25 26 24 22 21 22 25 26 24 22 22 21 21 20 20 19 20 21 22 23 24
14 13 13 12 12 19 19 19 21 21 20 20 20 21 22 22 22 22 22 22 23 24 24 21 22 23 24 22 21 21 20 20 18 18 20 20 19 19 20 20 20 22 21
14 12 11 11 15 11 16 17 18 20 19 19 20 22 23 21 21 22 23 23 20 19 19 21 21 19 18 19 20 20 20 20 19 19 17 19 20 21 17 17 18 19 20

GFSMA_sfc_30mbdewp_054.txt.gz
Dewpoint
62 62 61 61 60 60 59 58 55 46 38 32 30 28 30 31 42 46 53 55 55 53 51 47 45 44 43 42 43 43 44 44 45 44 45 46 46 46 47 47 48 48 48
61 60 59 58 58 58 57 55 48 41 32 29 26 25 26 29 41 47 51 52 51 49 46 43 40 38 38 38 41 43 43 43 44 45 45 44 45 46 46 46 47 47 48
58 58 57 56 56 54 52 46 37 32 30 27 26 24 23 24 32 44 47 46 46 43 38 36 34 34 33 35 37 39 40 42 43 43 43 44 45 44 46 46 46 46 47
55 55 55 55 51 49 43 37 33 30 28 26 24 24 25 27 27 42 42 40 37 38 35 31 30 29 31 33 35 37 38 39 40 41 42 43 43 44 44 44 45 45 45
56 55 55 53 49 44 39 35 31 29 26 24 23 21 27 29 27 34 37 35 34 33 29 30 29 27 26 28 31 33 35 36 37 39 41 42 42 43 43 43 43 43 44
56 55 53 49 44 39 34 30 28 26 25 22 21 25 28 31 27 28 29 27 30 27 26 22 19 21 25 24 26 28 31 34 35 37 38 39 41 41 41 42 42 42 42
56 54 50 44 39 36 33 28 26 23 20 23 22 24 28 29 27 27 28 26 26 24 21 19 18 18 19 25 24 25 26 30 32 33 36 38 39 40 40 40 41 41 41
54 52 47 41 36 34 30 27 26 25 22 22 18 24 21 22 25 27 30 28 25 23 19 18 18 18 18 19 22 24 23 25 28 32 34 36 38 38 39 39 40 40 40
53 51 45 40 35 32 30 27 27 25 22 21 22 22 19 16 20 19 25 23 20 20 18 19 18 18 18 18 22 23 26 24 27 30 33 35 36 37 37 38 38 39 39
52 49 44 41 37 34 29 28 28 29 25 20 21 21 21 19 6 5 16 20 19 17 17 19 19 18 19 20 23 25 28 27 26 29 32 34 35 36 37 37 37 37 38
50 46 43 39 37 35 31 29 29 28 25 23 22 20 18 19 18 12 7 14 19 18 18 19 18 19 19 19 21 26 27 27 28 30 32 33 34 34 35 35 36 36 37
48 45 39 39 38 34 33 30 26 24 22 22 21 19 17 15 17 16 16 16 16 17 18 19 18 18 19 18 19 24 25 26 28 29 30 31 32 33 33 34 34 34 34
42 41 40 38 36 33 29 27 26 25 22 19 18 19 19 18 19 18 17 16 16 19 18 19 19 19 18 19 20 22 24 25 26 27 29 31 32 31 31 31 32 32 31
40 38 37 36 33 30 30 30 28 26 24 21 18 19 19 19 20 19 18 17 16 18 19 16 19 18 19 19 22 23 23 24 25 25 27 29 29 29 29 30 29 30 30
38 37 35 32 30 30 29 29 27 24 22 20 20 19 19 21 22 21 21 21 18 15 16 18 17 18 19 20 22 23 23 24 24 25 26 27 27 28 28 28 27 29 35
35 35 32 29 29 28 27 25 20 19 18 18 19 17 18 20 20 21 21 21 22 19 17 19 17 19 20 22 22 23 23 24 24 25 26 26 27 27 27 28 30 29 28
32 29 26 26 26 24 22 20 19 16 15 16 18 18 18 20 20 20 21 20 20 20 17 18 19 20 22 22 22 23 23 23 23 25 26 26 26 26 26 26 26 28 28
28 26 24 23 23 22 16 16 16 19 22 20 17 18 18 19 20 20 20 20 19 19 19 18 20 21 22 23 23 23 24 24 25 26 26 25 24 24 25 26 27 28 30
23 21 20 18 16 15 15 14 14 15 17 20 21 20 20 20 20 20 20 19 19 20 20 21 21 22 23 23 25 24 25 26 25 24 23 22 23 24 26 27 27 26 26
23 22 20 17 15 15 20 23 24 26 26 23 21 20 20 20 19 18 19 19 20 20 21 21 22 22 23 25 24 22 21 21 21 21 21 22 24 25 25 25 25 25 26
20 19 21 24 27 28 28 27 27 25 22 20 20 20 20 22 24 22 21 21 21 21 22 21 22 23 23 22 21 22 21 20 20 21 22 22 24 25 24 24 23 23 24
26 27 28 29 26 26 29 28 25 22 21 20 19 19 19 19 20 23 23 22 22 22 22 22 23 24 23 23 22 22 20 20 20 22 23 22 22 21 22 22 23 24 25
26 26 23 20 23 27 26 24 26 21 20 19 18 18 19 20 22 21 23 23 23 24 23 24 24 24 23 23 22 22 23 24 22 22 22 20 20 20 21 21 22 23 24
26 26 25 25 25 25 23 23 24 20 19 19 20 20 20 22 22 23 23 23 23 24 24 24 25 25 24 23 26 25 22 22 21 21 20 18 19 19 20 20 21 22 24
21 21 17 14 20 22 20 21 22 20 19 18 20 21 23 23 23 23 23 23 24 24 24 22 22 24 25 23 21 21 21 20 18 18 19 19 19 19 19 19 20 22 22
29 23 19 14 15 11 20 17 19 20 18 18 20 21 23 22 22 24 24 22 21 19 19 21 20 17 17 18 20 20 20 20 19 17 17 18 19 20 17 18 18 19 19

GFSMA_sfc_30mbdewp_057.txt.gz
Dewpoint
62 63 62 62 61 60 59 59 57 47 39 34 31 31 30 40 41 48 54 57 57 54 51 48 46 45 42 43 44 45 45 45 46 46 46 46 46 47 47 48 48 49 49
61 62 61 61 60 59 59 58 53 41 31 28 26 27 28 39 44 49 52 53 53 49 47 43 40 39 38 39 41 42 42 44 45 45 44 45 46 46 47 47 47 47 47
60 61 60 59 58 58 57 53 43 33 30 27 25 23 24 31 42 47 48 48 47 45 40 38 36 35 36 37 38 40 40 42 43 43 44 45 45 45 45 46 46 46 46
59 59 59 58 56 55 52 44 36 31 29 27 25 25 25 26 33 44 44 42 38 38 36 33 32 32 31 32 34 37 38 38 40 40 42 43 44 44 44 44 44 44 45
57 58 57 57 53 50 45 37 32 31 28 25 23 23 27 28 31 41 39 36 35 34 30 31 30 28 27 28 31 32 34 35 37 38 40 41 42 43 43 43 43 43 43
56 56 55 54 50 45 40 34 31 27 26 22 23 24 28 30 28 35 36 32 34 30 27 25 20 22 27 25 25 28 31 32 34 36 36 39 40 41 42 42 42 42 42
56 55 54 51 47 43 38 33 28 26 22 23 23 25 28 29 27 28 28 27 28 25 22 19 19 18 19 27 27 26 27 29 30 33 35 37 39 40 40 41 41 41 41
57 55 53 49 45 40 34 29 29 24 22 23 20 23 21 24 26 27 30 27 26 24 19 18 18 18 19 19 23 29 29 27 28 32 34 36 38 39 39 39 40 40 41
57 55 52 48 43 40 35 32 29 27 22 20 23 23 21 19 22 19 25 24 22 20 19 18 19 18 18 19 22 25 31 30 30 31 33 36 37 37 38 39 39 39 40
56 55 52 47 43 43 39 36 32 29 25 20 21 21 20 21 12 8 18 20 19 18 17 19 18 19 19 21 26 29 29 30 31 33 35 36 37 37 37 38 38 39 38
56 53 50 44 42 42 41 37 36 32 28 25 23 19 19 19 17 10 6 15 19 19 19 19 19 19 19 20 20 25 27 28 30 31 32 33 34 36 36 36 37 37 37
52 51 48 47 45 43 39 39 37 33 27 26 23 21 17 15 15 15 12 15 16 16 19 19 19 19 19 19 21 25 25 26 28 29 31 33 34 34 35 35 35 35 34
49 48 46 45 44 42 39 35 31 27 26 24 20 19 19 18 20 19 16 15 14 18 18 19 19 19 18 19 22 23 25 25 26 28 30 32 32 32 32 32 33 33 33
48 45 45 43 42 37 34 32 30 27 25 22 19 19 19 19 19 18 17 15 14 18 19 16 19 19 19 20 22 24 23 25 25 27 29 30 30 30 30 30 31 31 31
44 44 42 40 36 34 31 29 28 25 22 21 20 20 20 21 22 21 21 20 17 13 15 17 16 19 19 20 22 24 23 24 26 26 27 27 28 28 28 29 29 28 30
42 41 38 35 32 31 29 27 24 23 20 21 20 19 19 21 21 22 22 21 21 19 16 19 17 18 19 21 23 24 24 25 24 26 26 27 27 28 28 28 28 29 28
39 37 34 32 29 27 24 21 20 19 19 21 20 20 21 21 21 21 22 21 20 21 19 19 19 19 20 21 22 23 24 24 24 25 26 27 27 27 27 27 27 27 28
36 33 30 27 25 22 20 19 18 20 21 24 23 20 19 20 20 20 20 20 20 20 19 18 19 20 21 22 23 23 24 24 24 25 26 26 26 26 27 27 27 28 29
29 27 26 25 21 20 19 20 21 21 19 21 23 25 24 20 20 21 20 20 20 20 20 20 20 22 22 23 23 25 25 24 25 24 23 23 24 25 27 27 27 27 27
25 24 22 20 18 19 21 23 25 27 27 26 25 23 22 20 20 19 19 20 20 20 21 21 21 22 23 23 24 24 22 22 22 21 22 23 25 26 25 25 26 26 26
21 22 23 27 29 30 31 31 31 31 28 23 20 20 20 23 24 24 23 22 22 22 21 21 22 22 22 23 23 22 22 22 21 22 22 23 23 24 23 23 23 24 24
28 30 30 31 33 34 35 33 28 22 20 19 18 18 18 19 22 24 23 23 23 23 23 22 22 23 24 23 23 22 22 22 20 22 23 22 22 21 21 21 22 24 25
32 32 31 30 32 33 33 32 27 23 22 19 18 18 19 20 23 22 23 24 24 25 24 25 24 24 23 23 23 23 23 23 22 22 22 20 20 20 20 20 22 23 24
31 31 31 31 32 33 31 30 25 20 18 18 19 20 20 21 23 23 23 23 24 24 25 24 24 24 24 24 27 26 24 21 22 21 21 18 18 18 19 20 21 23 24
31 31 31 29 27 27 24 25 22 19 19 18 19 21 23 22 23 23 23 24 25 24 23 22 22 24 24 23 21 21 21 20 18 18 19 18 18 18 19 19 19 22 23
31 30 27 25 25 18 23 19 21 20 19 20 21 21 22 22 24 24 24 22 20 19 19 21 19 17 17 17 21 20 20 19 19 17 18 18 19 20 17 18 18 19 19

GFSMA_sfc_30mbdewp_060.txt.gz
Dewpoint
61 63 62 61 61 61 60 60 57 46 43 36 33 32 37 40 41 49 55 59 57 54 50 48 47 44 43 44 45 45 45 47 47 47 46 47 47 48 48 48 48 48 49
60 62 62 61 60 60 59 58 54 41 33 29 28 29 32 40 46 51 53 55 54 50 48 44 42 41 40 41 41 42 43 45 45 45 46 46 46 46 46 47 47 47 47
60 62 62 61 60 59 58 56 47 34 30 27 25 24 29 39 45 49 49 49 48 46 42 40 39 37 38 39 40 41 41 41 42 43 44 45 45 45 45 45 46 46 46
60 60 61 61 60 58 57 52 40 33 30 28 25 25 25 28 41 46 46 42 40 38 38 36 34 33 33 34 36 37 37 39 39 40 41 42 43 44 44 44 44 44 45
59 60 59 59 58 56 53 47 36 33 30 26 24 25 28 27 36 42 42 37 37 34 31 34 32 30 29 30 31 32 35 35 37 38 40 39 41 43 43 43 43 44 43
58 59 58 58 56 52 48 40 35 29 29 25 22 24 29 29 30 39 37 34 35 30 29 28 19 22 31 28 28 29 32 32 33 35 36 38 39 41 42 42 42 42 43
57 57 57 56 54 51 47 38 31 29 25 23 24 25 28 30 27 30 34 29 30 27 23 19 19 18 19 27 30 29 32 32 32 33 35 37 38 40 41 42 42 41 42
58 56 56 55 52 48 42 35 32 27 23 24 21 23 21 24 28 28 29 27 27 24 19 18 18 18 19 19 24 30 30 31 32 33 35 36 38 39 40 40 40 41 41
58 57 55 54 50 47 43 37 33 31 27 23 24 25 23 23 23 21 27 27 24 22 19 18 18 18 18 20 26 30 32 32 33 34 36 38 39 39 39 40 40 40 40
58 57 56 54 50 47 44 40 37 37 33 28 25 24 21 23 19 14 19 21 20 19 18 19 18 18 20 21 24 29 29 30 32 34 35 36 37 38 38 39 39 39 39
58 57 55 52 48 46 46 43 41 38 38 32 28 26 22 19 16 11 9 18 20 20 19 19 19 18 19 20 21 27 27 28 29 31 33 35 36 37 37 38 38 38 38
56 55 54 51 48 47 45 45 42 40 35 31 29 25 22 18 16 13 11 15 16 16 19 20 19 19 19 19 21 26 26 27 28 30 33 34 35 36 36 36 36 36 36
54 54 52 49 47 47 45 44 42 39 34 30 27 24 21 19 21 19 15 15 12 16 18 20 19 19 19 20 22 24 26 26 27 29 31 33 34 33 33 33 34 34 34
55 53 51 49 47 47 44 41 39 34 29 27 21 21 20 20 19 18 15 14 13 16 18 16 20 19 19 20 23 25 24 26 26 27 29 30 30 31 31 31 31 32 32
50 49 48 47 45 43 40 37 34 29 24 23 21 22 22 22 22 22 21 19 14 10 13 16 16 19 19 20 21 25 25 26 26 26 26 27 28 28 29 29 29 30 29
47 46 46 44 42 39 35 31 26 23 21 23 22 21 21 22 22 23 23 24 22 17 14 18 18 18 19 19 21 25 24 26 26 26 26 27 28 28 28 28 28 29 29
44 43 41 39 36 32 29 25 23 22 21 21 21 21 23 26 27 27 25 23 21 21 19 19 20 19 19 20 21 23 24 24 24 25 26 26 28 28 28 28 28 28 28
39 38 35 32 28 23 21 20 20 22 22 24 26 25 25 27 26 24 23 23 21 21 20 19 19 19 20 21 22 23 23 24 24 25 26 27 27 27 28 28 28 29 29
34 31 28 24 21 21 21 23 26 26 26 27 28 29 29 28 26 23 22 22 22 20 20 20 20 21 22 23 23 23 24 25 25 24 24 24 25 26 28 28 28 27 27
29 26 23 22 22 23 25 27 29 30 30 30 30 28 27 25 24 22 19 19 21 20 21 21 21 21 22 23 23 24 23 22 22 23 23 24 25 25 26 26 26 27 26
27 26 26 28 29 30 31 32 33 32 31 30 30 30 29 28 26 24 24 24 23 22 22 22 22 22 22 22 23 23 23 22 23 23 23 23 23 23 24 24 24 24 24
29 31 31 33 35 36 36 34 31 30 30 27 24 20 19 21 26 26 24 24 24 24 23 23 22 23 23 24 23 22 22 22 21 22 22 21 22 21 22 22 22 24 26
32 33 34 34 35 36 35 33 31 28 27 22 18 19 19 20 23 23 24 24 25 25 25 25 25 24 23 23 23 23 24 24 22 23 22 20 21 20 20 20 22 23 25
32 32 33 33 33 35 35 31 29 24 19 19 20 20 20 22 23 23 23 24 24 25 25 25 24 24 24 24 25 26 24 22 21 21 21 19 18 18 19 20 21 23 24
32 31 32 32 32 33 32 31 26 20 19 18 20 21 23 22 23 24 24 25 25 23 22 22 23 24 24 23 22 22 21 21 18 18 19 19 19 18 19 19 19 22 22
30 30 29 31 32 29 30 26 23 20 19 21 22 22 23 23 24 24 24 22 19 19 19 21 20 17 18 18 21 21 20 19 18 17 19 19 19 20 17 18 19 19 18

GFSMA_sfc_30mbdewp_063.txt.gz
Dewpoint
63 64 63 61 61 62 61 62 59 51 53 42 38 42 43 42 42 47 53 59 58 54 51 50 47 45 45 46 46 45 47 47 47 47 48 48 48 48 48 48 48 48 49
62 63 63 62 61 61 60 60 56 47 45 37 34 33 38 40 45 52 56 56 55 51 49 46 44 42 42 43 43 43 45 45 45 45 47 47 47 47 47 47 47 47 47
61 61 62 63 62 60 59 59 52 40 35 31 30 30 35 40 46 50 52 51 50 48 45 43 41 40 39 40 41 41 41 41 42 42 44 45 45 45 46 46 45 46 46
61 61 61 62 62 61 59 56 49 39 35 32 29 28 29 37 43 47 48 45 44 41 41 38 38 35 35 36 37 37 38 38 39 40 41 42 43 44 44 44 44 44 45
61 61 61 61 62 61 59 55 45 41 36 33 30 29 29 29 39 44 44 41 40 37 36 36 34 32 31 31 33 34 36 36 36 37 40 39 41 42 43 44 44 44 44
60 60 60 60 61 59 57 52 46 36 36 33 23 27 30 31 34 41 41 36 37 34 34 35 28 30 33 32 31 32 34 35 34 35 36 38 40 41 42 43 43 43 43
59 59 59 59 59 58 55 52 43 36 31 29 28 28 30 32 30 36 39 35 35 31 28 25 22 21 22 29 30 31 34 33 34 35 36 37 38 40 41 42 42 43 42
60 59 58 58 57 57 54 48 41 35 31 29 29 29 27 27 30 30 33 31 31 28 25 22 20 21 22 22 27 30 31 32 33 35 36 38 39 40 41 41 41 42 42
60 59 58 57 56 56 53 47 42 40 34 28 28 31 27 29 27 26 29 30 28 27 24 22 21 20 20 23 27 32 33 33 33 35 37 38 39 40 40 40 40 41 41
61 60 58 58 56 55 53 48 43 42 39 34 28 27 26 28 25 21 22 26 25 25 23 21 20 20 22 23 27 30 30 30 32 33 35 36 37 39 39 40 40 40 40
61 60 59 57 56 54 53 48 45 42 42 39 34 30 26 23 19 18 18 20 22 22 21 20 20 19 21 22 23 27 28 29 30 32 33 36 37 38 39 39 39 39 39
60 59 59 58 56 53 51 49 48 44 43 41 37 31 29 24 22 17 13 16 21 21 21 21 20 20 20 21 21 27 27 27 29 30 32 34 36 36 37 37 37 37 37
57 58 58 56 55 53 51 49 48 46 43 40 35 31 27 24 25 23 25 18 16 18 19 21 21 20 19 20 22 25 26 26 27 29 31 34 34 33 34 34 35 35 35
58 58 56 56 53 51 50 49 48 46 43 39 34 26 24 22 23 21 19 20 14 17 19 18 21 20 20 20 23 25 22 26 27 28 30 30 30 30 31 31 32 32 33
55 56 54 52 51 50 49 47 45 41 38 31 28 26 26 26 24 24 22 20 18 16 14 17 18 21 21 21 21 21 23 24 27 27 28 28 28 29 29 29 30 30 31
51 51 50 49 48 47 45 43 39 32 28 26 25 23 24 24 26 27 27 27 29 26 25 19 19 20 22 20 21 23 23 26 26 27 27 27 28 28 28 29 29 30 31
48 48 47 45 43 41 39 34 28 24 22 22 23 23 25 28 29 28 29 28 28 25 24 22 20 20 20 20 21 22 23 23 23 25 26 26 27 28 28 29 29 29 29
44 43 42 39 36 33 28 25 22 22 22 25 28 28 28 30 30 30 30 29 27 26 22 19 20 19 20 22 22 23 23 23 23 23 25 27 27 27 28 28 29 29 29
39 36 33 29 26 23 22 23 25 26 27 28 29 29 31 32 32 32 30 28 27 24 25 24 21 21 22 23 23 24 24 24 23 24 24 25 26 27 28 28 28 28 28
29 27 25 24 25 26 27 28 29 30 31 31 32 32 31 31 30 30 29 28 27 26 25 23 22 23 23 24 24 23 22 21 20 22 23 25 26 25 25 26 26 27 27
29 29 30 31 31 31 32 33 33 33 32 32 32 32 31 31 32 30 28 28 26 24 23 24 24 24 23 23 22 22 21 21 22 23 22 21 21 22 22 23 23 24 25
34 34 35 35 34 35 35 35 32 32 31 30 27 27 28 29 30 29 27 25 24 24 27 25 25 24 23 22 22 21 22 23 21 21 21 21 22 21 21 21 22 24 25
34 34 35 35 35 36 36 35 32 30 28 26 23 21 22 24 26 24 24 24 25 26 26 26 24 22 22 21 23 24 24 24 22 22 22 21 21 20 20 20 22 23 24
32 32 32 32 34 34 34 31 29 26 21 23 26 25 23 23 23 24 24 26 26 26 25 24 23 22 23 25 25 26 23 22 21 21 20 19 19 18 19 19 21 22 24
31 31 32 32 33 33 32 30 23 20 20 21 22 22 23 22 24 24 25 26 23 21 21 21 24 25 24 23 22 22 22 21 19 18 19 18 19 19 19 20 19 21 22
30 31 31 32 32 32 32 31 23 20 21 22 22 22 23 24 24 24 23 21 19 18 20 23 20 18 18 19 22 21 21 21 20 18 19 19 19 19 18 17 18 19 19

GFSMA_sfc_30mbdewp_066.txt.gz
Dewpoint
58 59 59 56 55 56 56 57 57 56 56 53 49 49 48 46 44 43 42 51 59 55 52 51 48 47 48 47 46 47 48 47 47 48 48 48 48 48 49 49 49 48 49
58 60 61 60 57 56 56 57 57 55 54 50 46 43 43 42 41 44 45 55 56 53 51 49 46 44 45 44 45 45 45 44 45 45 47 47 47 47 47 47 47 47 47
60 60 60 60 61 56 56 56 57 54 50 47 43 39 38 39 41 44 46 50 52 51 48 45 43 42 42 43 42 42 42 41 42 42 43 44 45 46 46 46 46 46 46
60 60 59 59 60 60 57 56 56 52 49 43 40 37 36 38 39 41 44 45 45 43 44 43 41 38 38 38 39 38 38 38 39 40 41 42 42 43 45 45 45 45 45
59 59 59 59 59 60 59 56 55 53 49 44 40 36 34 34 37 39 41 42 42 40 38 40 38 35 34 34 34 35 36 36 36 37 39 39 41 42 43 44 44 45 45
59 59 58 58 58 60 60 58 54 52 50 47 38 34 35 33 32 37 39 39 39 39 36 35 34 31 33 32 33 33 35 37 36 36 37 38 40 41 42 43 43 44 44
60 60 59 58 58 58 60 59 55 51 46 45 37 36 34 33 31 34 37 37 36 35 33 34 28 25 27 32 31 32 34 32 34 35 37 38 39 41 42 43 43 43 44
62 60 60 59 58 57 58 59 55 50 48 42 43 43 40 33 30 30 34 35 34 33 31 29 25 24 24 23 28 30 31 33 36 37 38 40 41 42 42 42 42 42 43
63 62 61 61 60 58 57 58 56 51 48 41 41 45 41 41 33 31 30 33 32 32 30 27 25 23 23 22 28 32 33 32 33 35 37 38 39 40 41 41 41 41 42
63 63 62 61 61 60 58 58 56 52 50 43 37 34 34 35 33 30 28 30 30 29 29 27 24 23 22 24 27 31 30 31 32 34 36 37 38 39 40 40 41 41 41
63 62 62 62 61 60 58 57 55 52 51 49 42 36 34 30 27 28 33 26 27 27 27 26 23 22 22 23 24 27 29 30 31 32 34 36 37 38 39 39 39 40 40
62 62 61 61 61 60 58 58 56 53 51 51 45 41 36 35 28 27 25 25 26 25 25 23 21 21 21 22 22 27 27 28 28 30 32 34 36 37 37 37 37 38 37
60 60 61 60 60 59 58 57 55 53 52 50 47 43 38 33 30 28 27 28 27 22 22 22 22 22 21 21 21 26 24 27 28 28 31 34 34 34 34 34 35 35 36
60 59 59 59 59 59 57 56 55 53 52 51 47 42 32 28 27 25 25 25 21 22 26 26 25 25 22 21 22 25 22 23 26 29 30 31 32 32 31 32 33 33 33
59 59 58 58 57 56 54 53 53 52 50 48 40 34 31 29 30 29 29 30 28 24 21 22 23 23 23 22 23 23 20 21 25 28 29 29 29 30 30 30 31 31 31
55 55 56 55 53 52 52 51 49 49 44 39 35 33 32 29 29 29 30 31 31 27 28 26 26 28 28 26 25 23 21 23 25 26 28 29 29 29 29 29 29 30 30
50 51 52 51 50 48 48 45 40 37 36 34 34 31 30 32 30 30 30 30 30 31 31 32 32 31 27 24 22 22 22 22 22 22 25 26 27 28 29 29 29 30 30
48 48 47 46 45 42 39 34 30 28 27 26 28 28 29 31 32 32 32 32 32 31 30 29 26 26 25 25 27 25 22 22 22 22 24 26 28 29 29 29 29 29 29
41 41 39 35 33 29 29 26 26 28 28 28 30 30 31 32 32 33 32 32 31 31 29 27 25 26 25 23 22 23 23 22 22 21 21 23 25 27 28 29 29 29 28
28 28 27 26 27 27 28 28 30 32 33 33 33 33 33 33 32 32 31 30 29 27 26 26 23 22 22 23 24 22 20 19 18 20 22 24 25 25 25 26 27 27 28
31 31 31 31 32 32 33 34 34 34 33 33 32 32 32 33 33 31 30 28 27 26 25 25 24 23 23 21 20 20 19 19 21 22 22 21 21 21 22 22 23 23 24
35 35 36 36 36 36 36 36 34 33 32 30 29 29 31 31 31 31 29 28 26 25 26 26 25 22 21 20 19 18 20 22 22 22 21 21 21 21 21 21 22 23 25
33 33 34 36 36 36 37 35 33 31 30 29 27 28 28 27 27 23 24 25 25 26 26 25 23 21 19 19 22 25 23 24 23 22 21 20 21 20 20 19 21 23 24
32 32 31 32 31 33 33 32 30 27 26 27 27 26 24 22 22 24 24 25 26 26 24 22 21 20 20 22 24 25 23 22 22 21 21 20 20 19 20 20 22 23 24
32 31 32 32 31 32 31 29 26 27 27 26 24 21 22 20 23 26 24 27 23 21 19 20 23 25 26 25 24 23 23 22 21 21 21 20 20 21 21 22 21 21 22
31 32 32 33 31 30 31 28 23 21 19 19 20 20 23 24 24 24 23 21 19 15 20 24 21 18 18 19 22 22 22 22 22 21 21 21 21 21 20 19 20 21 21

GFSMA_sfc_30mbdewp_069.txt.gz
Dewpoint
56 55 52 53 55 54 54 56 56 55 56 54 51 51 50 50 47 45 47 51 60 56 53 52 50 49 49 48 48 49 48 48 48 49 49 49 49 49 49 48 49 49 49
56 56 57 55 54 54 54 55 55 55 54 54 50 49 48 46 45 44 44 55 58 55 52 51 48 47 47 46 46 47 46 45 45 46 47 47 47 47 47 47 47 47 48
56 56 58 60 59 55 54 54 55 54 53 52 48 46 45 44 43 44 45 54 54 53 52 48 46 45 45 45 44 44 43 41 42 42 43 44 44 45 46 46 46 46 47
57 58 58 58 60 59 54 54 54 55 52 50 48 45 42 42 42 43 44 45 52 50 48 47 44 43 42 41 42 40 40 39 39 40 41 42 42 43 44 45 46 46 46
57 58 58 58 57 59 58 55 55 54 52 50 48 44 41 41 42 41 41 43 44 44 44 45 44 40 38 39 38 37 38 37 37 37 38 39 40 42 43 44 45 45 46
58 58 58 58 57 58 60 58 55 54 52 51 47 42 41 40 39 40 40 40 41 42 41 41 39 36 35 35 35 35 36 37 37 36 38 39 40 41 42 43 44 44 44
59 59 59 58 58 58 59 59 57 54 53 52 48 41 41 39 37 37 39 39 39 41 39 37 37 33 35 36 35 32 35 32 34 36 38 39 40 42 43 44 44 44 44
62 60 60 60 59 58 58 59 58 56 53 51 46 44 43 40 37 36 36 38 37 38 36 35 34 29 28 30 31 32 29 32 36 38 39 40 40 42 42 43 43 43 43
64 63 61 61 60 59 58 59 59 57 53 50 47 48 46 45 38 36 34 36 36 36 35 33 31 28 27 27 32 32 34 33 33 35 37 38 39 41 41 42 42 42 43
63 64 63 62 62 61 60 58 59 58 54 51 46 47 45 39 40 35 34 33 35 34 34 32 29 26 26 26 31 33 32 31 32 34 36 37 38 40 40 41 41 42 42
63 63 63 63 62 62 61 60 59 59 54 52 47 44 42 39 36 35 33 31 32 32 32 31 28 26 25 26 28 31 30 30 31 33 34 36 37 39 40 40 40 40 40
62 62 62 62 62 62 61 61 60 59 56 55 50 48 43 44 39 35 34 32 31 30 30 29 27 25 24 25 27 30 28 28 29 31 32 34 35 37 38 39 38 38 38
60 61 62 61 61 61 61 60 60 58 56 56 54 50 45 45 38 38 36 31 29 25 26 25 24 24 23 24 25 25 27 27 28 31 32 33 34 35 35 35 36 36 36
57 61 61 61 61 60 60 60 59 58 57 56 55 51 47 39 34 33 33 30 25 23 26 28 29 28 28 26 24 27 25 26 25 27 30 31 32 32 33 33 34 34 34
56 58 60 59 59 60 59 58 57 56 55 54 53 47 38 36 36 36 36 38 37 34 31 29 26 27 28 30 30 31 30 29 28 27 29 30 31 31 32 32 32 32 32
51 54 53 56 56 55 55 55 54 53 52 45 42 40 38 38 36 37 36 36 36 34 30 29 29 32 32 32 32 34 32 28 26 26 27 28 28 30 30 30 31 31 31
49 50 50 51 51 51 51 49 46 44 41 38 37 35 35 35 35 35 35 34 34 34 33 32 32 33 33 32 31 29 26 24 24 23 24 26 27 29 29 30 31 31 31
46 47 48 48 47 46 43 41 40 37 37 35 34 34 33 33 34 34 34 34 33 32 32 31 31 31 30 31 29 29 27 23 22 23 25 26 27 27 29 30 30 30 30
36 35 34 35 34 34 30 30 30 30 31 32 32 33 34 33 33 33 33 32 32 32 31 30 29 27 27 28 26 24 24 24 23 22 21 21 24 26 28 29 30 30 31
30 30 29 29 29 29 30 32 32 33 34 35 35 35 35 34 33 32 32 31 31 30 29 28 26 24 24 24 25 24 23 22 20 20 23 24 25 25 25 25 26 27 27
32 32 32 33 34 34 34 35 35 34 34 33 33 33 33 34 34 32 30 30 29 27 25 25 26 25 25 24 22 22 20 20 22 24 24 24 23 24 24 24 23 23 24
36 36 37 37 36 37 36 36 33 32 31 31 30 32 33 33 33 32 31 31 31 27 26 27 27 25 23 22 21 20 23 23 22 24 24 24 24 23 23 23 23 24 25
34 33 33 33 33 35 36 35 33 31 30 29 30 30 29 28 29 26 25 25 25 26 26 26 24 23 21 20 23 24 25 24 24 24 24 22 23 23 23 22 22 24 25
32 32 31 32 31 33 34 33 32 31 31 30 30 29 25 22 22 25 24 25 26 26 26 24 23 21 20 22 24 25 25 24 24 24 24 22 23 23 23 23 24 24 25
32 32 32 31 30 30 30 30 29 30 29 28 28 27 23 20 24 26 25 28 25 22 20 19 21 24 26 27 26 25 24 24 22 23 24 23 23 23 23 23 24 24 23
32 32 32 31 30 29 28 25 22 20 19 19 20 20 23 25 25 25 23 21 20 17 18 25 24 21 20 20 21 23 24 23 23 22 24 23 23 23 23 21 23 24 23

GFSMA_sfc_30mbdewp_072.txt.gz
Dewpoint
56 53 56 57 58 59 58 58 58 58 57 56 53 52 52 51 48 49 52 61 60 58 55 53 51 51 51 50 50 49 49 49 49 50 49 49 49 49 49 49 49 49 49
57 56 54 55 56 57 55 57 57 57 56 56 51 51 50 48 46 45 49 58 60 57 54 52 50 50 50 48 49 48 46 46 46 47 47 47 47 48 48 48 48 48 48
57 57 58 57 56 55 55 55 56 56 55 55 52 49 48 46 45 44 54 59 58 56 54 52 49 48 48 47 47 47 43 43 43 43 44 44 44 45 46 47 47 47 47
57 57 58 60 59 59 55 55 55 55 54 53 50 47 45 44 43 44 46 56 54 52 53 51 48 46 46 46 45 44 42 40 40 40 41 42 42 43 44 45 46 46 47
57 58 59 59 60 59 59 55 55 56 54 51 49 48 43 43 42 44 44 46 53 51 48 49 48 46 44 42 43 42 41 38 38 37 39 40 40 42 43 44 45 46 46
58 58 59 59 58 59 59 57 55 56 54 52 48 46 42 42 42 42 42 43 44 47 46 46 45 41 40 41 40 39 39 39 37 37 38 39 40 41 42 44 45 45 46
58 58 59 59 58 58 60 59 58 55 54 53 49 44 43 41 39 39 41 41 42 43 42 41 39 36 38 38 38 37 37 37 35 36 38 39 41 43 45 45 45 45 45
60 59 59 59 59 58 59 59 58 57 54 54 49 43 40 41 39 38 38 40 40 42 40 40 38 35 35 37 37 35 35 31 35 38 39 39 41 42 43 43 44 44 44
64 63 60 60 60 59 59 59 59 58 55 53 49 45 46 45 39 39 36 38 39 39 39 37 36 32 32 33 35 34 32 36 35 35 37 38 40 41 42 42 43 43 43
64 64 64 62 61 61 60 60 60 59 57 53 51 48 49 44 40 36 36 35 37 37 37 35 33 30 28 33 34 35 36 33 32 34 36 38 38 39 41 41 42 42 42
63 63 63 63 63 62 62 61 60 59 59 55 51 49 48 45 40 38 34 33 35 36 36 34 31 27 27 32 34 37 34 31 31 33 34 36 37 38 39 41 41 41 41
62 63 63 62 62 62 62 62 61 60 59 57 53 50 48 47 45 40 39 34 33 33 33 32 29 28 27 28 30 34 32 29 30 31 34 35 36 37 38 39 39 39 39
58 61 62 61 61 61 61 62 61 61 60 57 55 51 50 49 47 44 42 36 33 29 32 33 30 28 27 30 33 34 34 33 33 30 33 35 36 36 36 36 36 37 37
57 59 60 61 61 61 61 61 60 60 59 58 57 55 52 47 43 41 42 38 34 31 32 32 35 35 36 37 36 35 30 31 32 33 35 34 36 34 34 34 35 35 35
54 56 56 58 59 59 60 60 59 58 58 57 56 53 45 40 39 38 38 39 40 36 32 34 34 36 35 35 35 34 33 33 33 36 34 31 31 32 32 33 33 33 33
50 50 51 53 54 54 54 55 54 53 52 48 45 43 41 39 39 39 39 40 41 39 36 33 33 34 34 35 34 35 34 34 32 29 28 28 29 29 30 31 32 32 32
47 47 49 49 49 49 49 48 47 45 45 42 40 39 38 37 38 38 37 38 37 37 36 32 33 33 33 34 33 31 30 29 26 27 26 27 28 29 30 31 31 32 32
37 37 40 39 38 37 39 41 39 39 38 37 36 36 36 36 36 36 36 35 34 34 34 32 31 31 31 31 31 30 29 27 25 24 26 27 26 26 27 29 30 31 31
30 30 30 30 30 29 30 31 32 33 34 34 35 34 35 35 34 34 34 33 33 32 32 31 30 31 30 30 29 28 27 25 25 24 22 22 25 27 28 29 29 30 29
32 32 32 33 33 34 34 34 35 35 35 35 35 35 35 34 34 33 33 32 31 29 29 27 27 26 26 26 25 24 24 23 21 23 25 25 26 27 26 26 26 27 27
35 35 35 35 35 35 35 35 34 34 33 33 34 34 35 35 35 34 32 31 30 28 27 26 26 26 26 24 23 23 21 23 24 24 25 25 24 25 25 26 25 25 25
36 35 36 37 36 36 36 35 32 31 31 31 31 32 32 32 34 34 33 32 30 28 27 27 27 25 24 23 21 23 23 21 21 25 23 24 25 24 24 25 25 25 26
33 33 33 34 35 35 36 34 32 31 30 30 30 31 31 31 30 29 26 25 26 27 28 26 25 24 22 21 22 21 22 23 24 25 25 23 24 23 24 24 25 26 26
31 31 31 32 33 35 35 33 32 31 31 30 30 30 29 26 26 28 27 26 27 27 27 25 24 22 21 24 26 25 25 24 25 25 25 22 23 23 24 25 25 25 27
30 31 31 30 30 30 30 29 29 30 28 27 27 26 24 23 25 26 25 27 25 21 19 18 19 23 26 27 27 26 23 22 23 22 24 23 23 23 23 23 24 26 25
31 31 31 30 29 27 25 24 25 26 22 22 21 23 24 25 25 25 23 21 20 17 22 24 24 23 21 20 21 22 22 20 22 22 24 23 23 23 21 23 23 23 24

GFSMA_sfc_30mbdewp_075.txt.gz
Dewpoint
56 58 59 61 61 62 61 61 61 60 59 58 57 55 54 52 53 54 59 62 61 59 56 54 53 53 52 52 51 51 50 51 51 50 50 50 49 50 50 49 50 49 49
55 55 57 58 60 60 60 59 58 59 58 57 54 52 51 49 48 50 55 61 61 59 56 54 52 52 51 51 51 49 48 48 49 48 48 48 48 48 48 48 48 49 49
56 56 55 56 57 58 57 57 57 57 57 56 54 50 50 47 45 47 52 60 60 58 57 54 52 51 51 50 50 48 46 45 45 45 45 45 45 46 46 47 48 48 48
57 57 58 56 56 56 55 55 56 56 55 55 53 50 48 47 45 44 52 57 58 56 56 55 52 50 50 49 49 48 45 43 43 42 43 42 43 44 45 45 46 46 47
57 57 58 59 59 58 57 54 55 55 55 53 52 49 45 44 44 44 49 56 55 54 53 55 52 50 49 48 47 46 44 41 41 40 41 41 41 42 43 44 45 46 46
57 57 58 58 60 59 59 57 54 55 55 53 50 49 46 43 43 43 44 51 54 52 50 50 51 49 48 47 45 45 44 41 39 38 39 40 41 41 43 44 45 46 46
58 57 58 59 59 59 59 59 56 54 54 53 50 46 44 42 41 42 43 42 47 51 49 48 46 44 45 45 44 43 43 42 40 38 38 40 41 43 45 45 44 45 45
60 58 58 58 59 58 59 59 58 56 55 53 50 44 43 42 41 40 39 41 41 44 45 44 42 39 39 42 42 41 40 40 36 37 39 41 42 42 43 44 44 45 45
65 63 61 59 59 59 58 59 59 57 56 54 50 48 44 44 42 40 39 38 40 42 42 42 40 37 36 37 40 41 38 35 35 39 38 39 40 41 42 43 43 44 44
63 63 63 63 61 60 59 59 59 59 57 55 54 49 49 47 42 42 39 39 39 39 41 39 39 35 34 35 38 37 36 36 36 35 37 38 39 39 41 42 43 43 43
63 62 62 63 63 61 60 60 60 59 59 57 54 53 51 49 43 41 40 38 39 40 41 39 36 32 32 34 36 37 38 35 33 34 35 36 38 39 40 41 42 42 42
62 62 62 63 62 62 62 62 62 60 60 59 56 54 51 50 49 44 41 38 38 37 36 34 32 30 32 35 38 40 36 33 34 37 39 41 41 41 39 40 40 40 39
57 61 62 62 61 61 60 61 61 61 60 59 58 55 53 51 51 49 45 41 38 37 38 36 36 36 37 40 41 40 40 40 40 41 41 40 39 39 40 39 39 38 38
58 59 60 61 61 61 61 61 60 60 60 59 58 56 53 52 50 48 47 43 37 34 34 35 36 37 38 38 40 40 40 41 40 40 40 40 39 38 37 35 36 36 36
53 53 55 57 57 57 57 57 57 57 57 55 54 53 49 44 44 43 43 44 45 40 35 35 34 37 38 39 38 38 37 37 38 38 37 38 37 33 32 33 33 34 34
49 50 50 50 50 50 51 52 52 51 51 48 46 46 43 41 41 41 42 42 43 42 39 35 35 34 36 37 37 37 36 36 36 36 35 32 30 30 30 31 32 33 33
41 45 46 46 45 46 46 46 44 44 44 42 41 40 39 39 39 39 39 40 40 39 38 33 34 34 34 34 35 36 34 32 31 30 29 29 28 29 30 30 30 32 32
32 33 35 35 33 35 37 39 40 39 39 38 37 38 37 37 37 37 37 36 35 35 36 32 32 32 32 33 32 31 30 28 27 27 27 28 27 26 27 29 30 31 31
31 31 31 31 31 31 33 34 35 35 35 35 35 36 35 35 34 34 34 34 33 33 33 32 31 32 31 30 30 29 28 28 27 26 24 23 26 27 29 30 29 29 29
33 33 34 34 35 35 35 35 35 35 35 35 35 35 35 34 34 33 33 32 32 31 30 30 27 27 27 28 28 25 24 25 22 23 24 26 27 27 28 28 28 27 27
36 36 36 36 35 35 34 34 34 34 33 33 34 35 35 35 35 34 32 32 32 31 30 28 26 27 26 24 23 23 21 23 22 24 24 24 24 25 26 27 26 26 28
35 35 36 35 35 35 35 34 32 32 32 32 31 32 32 32 34 34 35 35 31 30 29 27 27 26 24 23 22 22 21 21 20 24 24 24 25 24 25 25 27 27 28
33 33 34 35 35 36 35 34 32 30 30 30 30 30 30 30 30 29 29 28 27 28 28 27 25 25 23 21 22 21 23 23 23 25 25 23 24 24 24 24 26 27 28
31 32 32 34 35 36 35 33 32 30 30 30 29 28 27 27 26 28 27 26 26 27 26 26 25 23 22 22 25 25 25 24 24 24 25 22 23 23 24 24 25 26 27
30 30 30 29 29 30 29 29 28 26 25 25 26 25 25 23 26 27 24 22 23 20 19 21 21 24 26 27 28 26 24 21 20 22 24 23 23 23 23 23 24 25 25
31 31 29 28 28 26 26 27 27 25 22 23 24 23 24 24 24 24 22 21 19 18 23 24 23 21 21 21 24 23 22 19 20 20 23 24 23 24 20 22 22 23 23

GFSMA_sfc_30mbdewp_078.txt.gz
Dewpoint
57 60 61 61 61 61 61 61 62 61 60 59 58 57 56 55 55 57 61 62 62 61 58 56 55 54 54 54 52 52 52 52 52 52 52 51 51 51 50 51 50 50 51
57 58 59 60 61 61 61 60 60 60 59 58 58 56 56 52 53 55 59 62 62 61 58 56 55 54 53 53 52 51 51 51 51 50 50 50 50 50 50 49 49 49 49
56 57 57 57 59 60 60 60 59 58 59 58 57 54 52 50 49 51 54 60 61 60 59 56 55 54 53 52 52 50 49 49 49 48 48 47 47 48 48 48 48 48 48
56 55 55 56 57 58 59 58 58 57 57 56 56 54 50 48 46 47 50 58 60 59 58 58 55 53 53 52 52 50 48 46 46 45 45 44 45 45 46 46 46 47 47
57 56 57 56 56 56 56 56 55 56 55 55 55 53 49 48 46 44 48 53 59 58 56 57 56 54 53 51 51 51 48 46 44 43 43 42 42 43 44 45 45 46 47
58 57 57 58 58 57 57 55 54 55 55 55 53 52 49 46 45 44 44 53 55 56 55 54 56 53 53 52 50 50 48 45 43 41 41 41 41 42 43 44 45 46 47
58 57 57 58 59 59 58 58 56 54 54 54 51 49 47 46 43 43 44 44 53 55 53 52 52 51 51 52 51 48 48 46 43 41 40 40 42 42 44 46 45 45 46
58 58 57 58 58 58 59 59 58 56 55 53 52 47 48 47 44 42 42 43 43 51 52 50 49 47 46 48 48 49 47 46 44 40 39 40 42 43 43 44 44 45 45
63 60 58 58 59 59 58 59 59 57 57 55 52 51 46 47 44 43 41 40 41 43 46 48 46 44 42 43 44 46 44 43 42 38 40 41 41 42 42 43 44 44 45
64 64 63 61 59 59 59 58 59 59 57 56 55 53 50 47 46 45 40 43 42 42 43 43 43 41 38 39 41 42 43 41 36 38 38 38 40 40 41 43 43 44 44
63 63 63 63 62 61 60 59 59 59 59 58 55 53 52 50 45 44 46 43 42 43 44 44 44 44 44 43 43 42 40 41 41 41 42 42 45 46 46 43 43 44 44
62 62 62 61 61 62 62 61 60 60 59 59 59 56 54 52 51 47 45 43 42 39 38 38 39 39 40 42 43 45 44 43 43 44 45 45 46 46 47 48 45 43 43
58 61 61 61 61 61 61 61 61 61 60 59 59 58 56 55 53 52 51 46 42 40 40 38 39 40 41 42 43 44 43 43 44 43 44 45 46 47 46 45 44 43 42
57 58 59 60 60 61 61 60 59 59 59 59 58 58 57 55 52 51 50 48 42 39 37 37 37 38 40 42 43 43 43 43 43 44 44 44 44 44 43 41 39 38 37
52 54 55 55 55 55 56 56 55 54 54 51 50 50 49 46 46 46 47 47 47 43 39 37 35 38 39 40 42 41 40 41 42 41 42 41 40 41 39 35 34 34 35
49 49 49 49 48 48 49 49 48 48 48 46 45 45 43 42 42 42 43 43 44 44 42 37 36 36 37 38 39 38 38 39 39 40 39 39 38 34 32 32 33 33 33
41 43 43 41 42 44 46 45 44 44 44 42 41 40 39 40 39 39 40 40 40 40 40 34 34 34 35 36 36 37 37 36 35 36 35 32 30 30 31 31 30 31 32
32 33 32 33 34 35 38 40 40 39 40 39 38 38 37 37 37 37 36 36 35 35 36 34 33 33 33 34 34 33 33 30 29 28 29 29 29 28 27 29 31 31 32
33 33 33 33 34 34 35 35 36 36 36 36 36 36 36 35 35 35 34 33 33 33 33 33 31 32 32 31 30 30 29 28 27 27 26 25 26 27 28 30 31 31 30
34 34 35 35 35 35 35 35 35 34 35 35 35 35 35 34 34 33 33 32 31 31 30 30 30 30 29 29 28 25 24 24 22 23 24 26 26 27 28 29 29 29 28
36 36 35 35 35 34 34 34 34 33 33 33 35 35 35 36 35 34 32 32 32 32 31 28 27 27 26 24 24 23 22 22 22 24 24 24 24 25 25 27 27 27 29
35 35 34 34 34 35 35 35 33 32 32 32 31 32 32 31 33 35 35 33 31 30 29 29 28 26 24 23 22 22 21 20 19 24 24 24 25 24 24 25 27 28 28
34 34 35 36 36 35 35 35 32 29 30 30 29 29 29 29 28 28 28 28 28 28 28 27 25 24 23 21 21 21 23 23 23 24 24 22 24 23 24 24 25 28 29
33 33 34 35 35 36 35 34 32 29 28 28 27 25 25 25 26 28 27 26 26 26 24 26 26 24 22 22 23 23 24 24 24 23 25 21 23 23 23 24 26 27 27
31 31 31 30 29 29 29 28 26 25 24 24 25 25 24 25 27 27 23 22 22 20 21 26 25 25 26 27 27 26 25 22 20 22 24 23 23 23 23 23 24 26 24
29 28 27 27 28 26 29 28 26 24 22 23 23 21 25 24 24 23 22 21 19 19 22 24 23 20 22 24 27 23 22 19 19 20 23 25 23 23 19 22 22 22 22

GFSMA_sfc_30mbdewp_081.txt.gz
Dewpoint
57 60 60 62 62 62 61 61 61 62 60 59 58 58 57 55 55 57 60 63 63 61 60 58 56 55 55 55 54 52 53 53 52 52 53 51 52 51 51 51 51 51 51
56 58 60 60 61 61 61 60 60 60 59 58 58 58 57 56 54 56 58 61 62 62 60 58 57 55 55 54 54 52 52 52 52 52 51 51 50 50 50 50 50 50 50
58 57 58 59 60 60 60 60 60 59 59 58 57 57 56 54 52 53 55 60 61 62 61 58 57 56 55 54 54 52 51 52 51 50 49 49 49 49 49 49 49 49 49
58 57 57 58 58 59 60 59 59 58 58 57 57 57 55 52 49 50 52 56 60 61 61 60 58 56 55 54 54 53 51 49 48 48 47 46 46 46 46 47 47 47 47
58 56 56 56 57 57 58 58 58 57 56 56 56 56 55 51 49 46 47 50 57 59 59 58 59 57 56 54 53 53 52 48 47 46 45 44 44 44 45 45 46 47 47
59 57 56 56 56 56 56 56 56 56 56 55 55 54 54 51 48 47 45 48 52 58 58 57 57 57 56 55 53 52 52 50 46 45 44 43 43 43 43 44 46 47 48
59 58 57 57 58 56 56 56 55 55 54 54 53 52 50 49 48 45 45 45 50 54 56 56 55 55 54 55 54 52 52 51 47 43 42 41 42 43 43 46 46 46 47
58 58 58 57 58 58 58 57 56 55 54 54 53 50 51 51 47 46 45 44 44 51 54 54 53 53 52 51 53 54 52 50 49 46 42 41 41 43 44 44 45 45 46
60 58 58 58 58 58 58 58 58 57 57 55 53 53 49 49 47 46 43 42 43 43 47 52 51 50 47 47 50 51 50 47 47 46 43 44 45 43 43 43 43 44 45
64 63 61 59 58 58 58 58 58 58 58 57 54 53 52 48 49 49 43 43 43 41 42 44 46 46 45 46 49 49 50 50 49 47 48 48 48 48 49 49 48 47 46
63 63 64 63 61 59 59 58 58 59 59 58 57 55 54 51 47 47 49 49 43 44 44 44 45 45 45 46 47 49 49 49 49 48 48 48 48 47 48 48 48 48 50
61 61 62 62 62 62 61 60 60 59 59 59 58 57 55 53 51 50 48 49 47 43 40 40 42 43 44 46 47 48 49 49 48 47 46 46 46 47 46 47 49 49 48
57 60 61 61 60 60 61 61 61 60 59 59 59 58 57 56 55 53 51 51 47 42 41 39 40 41 42 43 45 47 47 48 47 47 47 48 48 47 48 49 47 48 47
56 57 58 60 60 60 60 60 59 59 58 57 57 57 57 54 53 53 52 50 45 42 39 40 38 39 42 44 45 47 47 47 46 46 46 46 48 45 44 43 44 43 41
52 53 54 55 54 55 56 56 54 53 51 50 49 49 49 46 46 46 47 48 48 45 42 38 36 39 40 42 44 42 42 44 44 44 43 43 43 43 43 41 40 38 38
48 48 48 48 48 48 48 48 48 48 46 45 45 45 43 42 42 42 43 43 44 44 42 37 36 37 39 39 40 39 39 41 41 42 42 41 41 40 37 35 34 34 34
40 40 40 41 42 44 45 45 45 44 44 42 42 41 40 40 40 40 40 40 40 40 40 34 35 35 36 37 37 38 38 38 37 37 38 38 36 33 32 32 32 32 32
33 33 34 35 37 38 39 41 40 40 40 40 39 39 38 38 37 37 36 36 36 36 37 35 33 33 34 35 35 35 34 33 31 30 30 30 30 31 30 29 31 32 32
34 34 35 35 35 36 36 36 36 37 36 36 36 36 36 36 35 34 34 33 33 34 34 33 32 33 32 32 32 32 30 28 27 28 28 27 27 27 28 29 32 32 32
35 35 35 35 35 35 35 35 35 34 34 34 34 34 34 34 33 33 32 31 31 31 31 30 30 30 29 30 29 25 24 24 22 23 24 25 27 27 28 30 30 30 30
35 35 35 35 34 34 34 34 34 34 33 34 34 35 36 35 35 33 32 32 31 30 30 28 27 28 26 25 24 23 22 22 21 23 24 23 24 24 25 27 28 28 29
35 34 34 34 35 35 36 35 33 33 33 33 32 32 31 30 33 34 33 32 31 28 28 28 27 25 24 23 22 21 21 20 17 24 24 23 24 23 24 24 27 28 29
35 35 35 34 35 34 35 35 32 30 30 30 29 27 26 28 27 26 28 28 29 29 29 26 24 24 23 22 21 20 22 22 22 23 24 21 24 23 24 24 26 27 30
34 34 34 35 35 34 35 34 31 27 26 25 24 23 24 25 27 26 26 26 26 22 25 26 26 24 24 22 22 22 23 24 24 23 24 21 23 22 23 24 26 28 28
32 32 30 29 28 29 29 27 25 23 23 24 24 24 25 25 27 27 22 22 21 20 23 27 27 27 27 27 26 25 25 24 20 21 23 23 23 22 23 23 23 25 28
30 28 26 27 28 28 29 27 24 23 22 22 22 21 25 24 24 23 22 20 18 18 22 25 22 20 22 25 28 24 22 19 19 19 22 24 24 22 19 20 22 21 21

GFSMA_sfc_30mbdewp_084.txt.gz
Dewpoint
60 60 61 62 63 63 62 61 61 61 61 59 58 57 56 55 55 56 58 61 63 63 61 59 57 56 55 55 54 53 53 53 53 53 53 52 52 52 52 52 52 52 52
56 60 59 59 61 62 61 60 60 60 60 59 57 57 57 57 56 55 56 59 62 63 62 60 58 57 56 55 55 53 52 53 52 52 51 51 51 51 51 51 51 51 51
57 56 59 59 60 60 60 60 59 59 59 58 57 56 56 56 54 53 54 57 60 62 63 61 58 58 56 56 55 54 52 52 52 51 50 50 49 49 49 49 49 49 49
59 57 57 58 59 59 60 59 59 58 58 57 57 57 57 56 53 51 52 54 57 60 61 62 60 58 57 56 55 54 53 51 50 49 48 47 47 47 47 47 47 47 48
60 58 58 58 58 58 58 58 58 58 56 56 56 56 56 55 54 50 48 50 53 58 59 60 61 60 58 56 56 55 54 52 49 47 46 45 44 44 45 45 46 47 48
61 59 57 57 57 56 56 57 57 56 57 56 55 55 55 54 53 51 49 47 48 52 57 58 58 58 58 58 56 55 54 54 50 47 45 44 43 43 44 44 46 48 48
61 59 58 57 56 55 55 56 55 55 55 55 54 53 52 52 52 51 49 47 47 50 53 56 56 56 56 58 57 55 54 54 52 47 44 42 42 43 44 45 46 46 46
60 60 59 58 57 57 56 56 55 54 54 54 53 51 52 52 50 48 47 46 45 46 50 53 54 55 54 54 55 57 55 54 56 50 47 46 44 43 45 44 45 45 45
59 59 58 58 58 58 57 58 57 56 55 55 53 54 51 50 49 49 45 44 44 44 46 50 53 53 53 51 52 54 54 54 56 55 52 49 50 49 48 50 50 51 49
62 60 59 58 58 58 58 58 58 58 57 57 55 54 54 51 52 50 47 44 44 42 43 44 46 49 48 49 50 52 54 53 54 55 53 52 52 51 49 48 48 49 50
63 63 63 61 59 58 58 58 58 58 58 57 57 55 54 52 50 50 50 51 45 44 43 43 45 46 46 47 49 51 52 53 53 53 52 52 51 50 49 49 50 50 50
60 61 62 62 62 61 60 59 59 58 58 58 58 57 56 54 52 50 49 50 50 47 41 41 41 42 44 46 48 49 51 52 52 52 52 50 49 49 49 50 49 48 51
55 58 60 60 61 61 61 60 60 59 59 59 58 58 57 57 55 53 52 51 50 45 42 40 40 41 43 44 46 48 50 51 51 50 50 50 50 50 50 49 49 48 48
54 55 57 59 59 60 60 60 59 59 58 56 55 55 55 52 53 53 52 51 47 44 41 41 38 40 42 43 44 47 48 48 48 48 50 48 46 47 47 46 46 46 45
52 52 53 54 55 56 58 57 55 53 51 50 49 49 49 46 46 47 48 49 48 44 43 38 38 39 41 43 44 43 44 46 46 45 44 44 43 44 43 44 42 41 41
47 47 48 48 48 49 50 50 49 48 46 46 45 45 44 42 42 43 43 44 45 45 43 38 37 37 39 40 42 40 40 41 41 42 42 43 42 42 40 39 39 37 36
38 39 40 42 44 45 46 46 46 45 44 43 42 42 41 41 40 40 39 40 40 40 41 35 35 35 36 37 38 38 38 38 37 38 39 40 39 38 36 34 33 33 33
34 35 36 37 38 39 40 41 41 41 41 40 40 39 39 38 37 37 37 36 36 36 37 36 33 34 34 35 35 35 35 33 32 32 32 32 31 32 31 31 31 32 32
35 35 36 36 36 37 37 37 37 37 37 37 37 37 36 36 35 34 34 33 33 33 33 33 32 33 32 32 32 32 31 30 27 28 28 28 28 28 28 29 31 32 33
35 35 35 35 35 35 35 35 35 34 34 34 34 34 33 33 32 31 31 31 31 31 31 31 30 30 30 30 28 26 24 24 23 23 24 26 27 28 28 28 30 31 31
35 35 34 34 34 35 35 35 35 34 34 34 35 36 36 36 35 33 31 30 30 29 29 28 27 27 26 25 24 23 21 21 21 23 23 23 23 23 24 27 28 28 29
34 34 35 35 35 36 36 35 34 34 34 33 31 31 30 31 33 34 32 32 30 27 27 27 26 24 23 22 22 21 20 19 14 23 24 23 24 23 24 24 27 28 29
35 35 35 35 35 35 36 35 34 32 31 29 26 25 26 28 27 26 29 30 29 30 28 25 23 23 22 22 21 20 21 21 22 23 24 21 23 22 23 23 26 27 29
34 34 35 35 36 36 35 33 31 27 24 23 23 23 24 26 28 24 26 26 23 22 26 26 24 23 23 22 22 21 23 24 25 23 24 20 23 22 23 23 26 28 29
33 32 31 31 30 31 31 29 25 23 23 24 24 24 25 25 26 26 21 22 21 19 25 28 27 27 28 27 25 25 24 24 20 21 23 23 22 22 23 22 22 25 28
30 28 27 27 29 28 27 26 23 22 22 22 21 22 26 24 23 24 21 19 17 18 24 24 21 21 24 27 27 24 22 19 19 19 22 23 23 21 19 20 21 21 22

GFSMA_sfc_30mbdewp_087.txt.gz
Dewpoint
61 63 63 64 64 64 63 63 62 62 62 60 58 56 56 56 55 56 58 59 62 64 62 60 58 57 56 56 54 53 53 53 53 53 53 53 52 52 52 52 52 52 52
59 61 61 62 63 63 63 62 61 61 61 60 59 56 57 58 58 57 56 57 60 63 63 61 60 58 57 56 55 54 53 53 53 53 52 52 51 51 51 51 51 51 51
58 58 60 60 60 61 62 62 61 60 60 59 58 56 56 57 57 56 55 56 58 61 63 62 60 59 58 57 56 55 53 53 52 52 51 50 50 50 49 49 49 49 50
60 58 57 58 59 60 60 60 60 59 59 58 57 57 57 58 57 55 53 53 56 58 60 63 63 60 58 58 57 55 55 52 52 50 49 47 47 47 47 47 48 48 48
61 60 59 58 58 59 59 59 59 59 57 57 57 57 57 57 57 55 54 52 53 55 57 60 61 62 60 58 57 56 56 54 51 50 48 46 45 44 45 45 46 47 48
62 61 60 60 59 58 58 58 58 58 57 57 56 56 56 56 56 55 54 53 51 51 53 56 58 59 60 60 58 57 56 56 52 50 48 47 45 44 44 44 46 48 48
63 61 61 60 58 58 57 57 57 56 56 56 55 55 55 55 55 55 54 53 51 50 50 52 54 56 57 58 59 57 56 56 56 51 48 47 48 46 44 44 46 46 46
63 62 61 60 59 58 57 56 56 55 55 55 54 53 53 54 53 52 52 51 50 49 49 50 52 53 55 56 56 58 58 56 57 55 49 49 49 48 47 49 48 48 49
60 61 61 60 59 59 59 58 57 56 56 56 56 55 52 52 51 52 48 46 46 46 46 48 50 52 53 54 55 55 56 56 57 57 53 51 50 50 50 50 50 49 50
61 60 60 59 59 60 59 59 59 58 57 57 56 54 56 54 53 52 51 48 45 45 45 45 45 47 49 51 52 53 55 55 56 55 57 54 52 52 51 51 50 49 49
63 63 61 60 59 59 59 59 59 58 58 58 58 56 55 54 53 52 51 52 49 46 44 43 46 47 47 48 50 51 54 55 55 55 56 54 53 52 52 51 50 50 51
61 62 63 63 62 60 59 59 59 59 58 58 59 57 56 55 53 52 50 51 51 50 43 42 43 43 45 47 48 49 52 53 54 54 54 54 53 51 51 50 51 51 51
54 57 59 61 62 62 62 61 60 60 59 59 59 59 58 57 56 54 53 52 51 47 44 41 41 42 43 44 46 48 49 51 52 52 53 53 52 50 48 48 49 49 49
54 55 56 58 60 60 60 61 60 60 60 59 57 56 55 53 53 54 53 51 48 46 44 42 40 41 43 44 45 46 47 50 50 50 49 47 47 46 45 45 46 45 45
51 52 53 54 55 58 59 59 57 55 54 52 51 50 49 47 47 48 49 50 49 45 44 40 41 40 42 43 45 45 45 48 47 45 44 44 44 44 43 43 42 41 41
46 47 48 49 49 50 52 53 51 49 49 48 47 46 45 44 43 44 45 45 46 47 44 40 38 38 40 41 41 40 41 41 42 42 42 42 42 42 41 40 40 38 38
38 40 42 44 45 46 47 48 47 46 45 44 44 43 42 41 41 40 41 41 41 42 42 36 36 36 37 38 38 38 38 38 37 38 39 40 39 38 37 36 34 34 34
36 37 38 39 40 41 42 43 43 43 42 42 41 40 39 39 38 38 38 37 37 38 40 37 35 34 35 35 36 35 35 33 33 31 32 32 32 32 32 32 32 32 32
36 36 37 38 38 38 38 38 39 39 39 39 39 38 37 37 36 35 35 35 34 34 35 36 33 33 33 33 33 33 31 28 26 26 28 28 29 28 29 30 31 31 33
35 35 35 36 36 36 36 36 36 36 35 35 35 35 34 34 33 33 33 32 32 33 33 33 33 32 31 31 28 26 25 24 23 22 24 26 29 29 28 28 29 31 32
35 35 35 35 36 36 36 36 35 35 35 35 36 36 35 34 34 33 32 31 31 31 30 31 29 28 27 25 24 23 22 21 21 24 23 23 23 23 23 26 28 28 29
35 35 35 36 36 37 38 37 35 35 34 33 32 32 32 32 34 34 33 32 29 28 28 28 27 25 24 22 22 22 21 20 15 24 24 22 24 23 24 24 26 29 29
35 35 35 36 36 36 36 36 35 33 32 31 29 28 29 28 28 29 31 30 30 31 27 25 22 22 22 22 23 23 22 23 21 24 24 21 23 22 23 23 26 28 29
35 35 35 36 36 36 36 35 33 29 26 24 25 26 27 27 26 26 26 26 24 27 26 24 22 23 23 23 23 23 24 25 26 24 24 22 23 22 23 23 26 29 30
34 33 34 34 34 34 34 31 25 24 24 24 25 26 26 26 28 23 24 24 21 20 27 29 27 28 28 28 26 26 25 25 21 21 23 23 23 23 23 22 21 26 27
32 30 29 29 29 28 27 26 23 23 23 23 24 26 26 24 24 26 19 17 18 18 25 23 21 22 25 28 27 24 25 23 22 22 23 24 24 23 22 21 22 23 22

GFSMA_sfc_30mbdewp_090.txt.gz
Dewpoint
58 60 60 61 61 62 61 61 60 60 60 59 56 51 50 52 53 54 55 59 61 64 63 62 59 57 56 56 55 54 54 54 53 54 53 53 53 53 52 52 52 52 53
56 58 60 60 60 60 60 59 58 57 57 58 57 53 52 54 55 56 55 56 57 61 64 62 61 59 58 57 56 54 53 53 53 53 52 52 52 51 51 51 51 51 51
59 59 56 57 58 58 57 59 59 58 56 55 55 53 50 53 56 56 56 56 56 59 62 63 62 61 59 58 57 56 54 53 53 52 51 51 50 50 50 49 49 49 50
61 60 59 56 56 57 58 58 57 57 56 56 55 55 56 55 55 56 56 56 56 56 59 62 63 62 60 59 58 57 56 54 53 52 51 49 48 48 47 47 48 48 49
61 61 60 59 57 57 58 58 57 57 56 56 57 56 56 56 56 56 56 56 56 55 56 58 61 62 62 60 59 57 58 56 54 52 50 48 47 46 46 46 47 47 49
62 62 61 61 60 59 59 58 58 58 57 56 56 55 56 57 57 57 56 56 55 55 55 55 56 56 60 61 60 57 57 58 55 53 51 48 46 45 45 45 46 48 48
63 63 62 61 61 60 59 59 58 57 57 57 56 56 56 56 56 56 56 56 54 54 54 53 53 53 54 59 60 60 58 57 58 54 51 49 47 46 45 44 46 46 47
64 63 62 62 61 61 60 59 58 57 57 57 55 56 54 54 55 55 54 54 53 52 52 52 52 52 52 53 56 59 59 58 58 58 54 51 49 49 48 46 48 47 47
63 63 63 62 62 61 60 60 59 58 57 58 57 56 54 53 53 53 53 51 50 49 48 48 49 50 51 52 54 56 56 57 57 57 56 51 52 51 50 50 49 50 50
62 62 62 62 62 61 61 61 61 60 59 58 58 57 57 57 54 53 53 52 49 48 48 47 47 48 49 50 51 52 54 55 56 57 57 55 54 53 52 52 52 51 50
64 63 62 61 61 60 61 61 61 60 59 59 59 59 57 56 55 54 52 53 52 48 46 46 47 48 48 49 50 51 52 55 55 56 56 56 57 54 54 53 52 51 51
63 64 64 64 63 62 61 60 60 60 60 60 59 59 58 56 55 54 53 53 53 51 47 46 46 46 46 47 47 48 50 52 53 54 55 55 56 56 53 52 51 51 50
58 60 61 62 62 63 62 62 62 61 61 60 60 59 59 58 57 56 54 53 52 51 48 44 44 45 44 46 46 46 48 50 51 52 53 54 52 50 49 49 49 48 48
52 55 55 58 59 60 61 62 62 62 62 61 60 60 57 54 55 55 54 53 50 50 48 47 43 43 45 45 45 46 47 49 50 51 50 48 47 46 46 45 46 45 44
51 53 54 55 56 58 60 61 61 59 59 56 54 53 51 49 50 50 51 52 51 46 45 44 44 42 43 44 44 45 45 46 46 46 45 45 44 44 44 43 42 42 41
48 50 51 52 53 54 55 56 54 52 52 50 50 49 48 47 46 47 47 47 48 49 45 43 41 40 41 41 41 40 40 41 42 43 42 42 42 42 41 40 40 39 38
43 45 45 47 48 49 50 50 49 49 48 47 48 47 45 44 43 43 44 44 45 45 44 38 38 38 39 39 39 40 38 38 37 38 38 38 38 37 37 36 35 35 35
39 40 42 43 43 44 46 47 46 47 46 45 44 43 41 41 41 41 42 41 42 42 42 39 37 36 37 37 37 36 35 34 34 32 33 33 33 33 33 33 33 33 33
38 39 40 40 41 41 42 43 44 43 43 43 42 42 40 40 39 39 39 39 38 38 40 39 35 35 34 35 35 34 31 30 26 25 27 28 29 29 29 30 31 31 32
37 38 38 38 39 39 39 40 40 40 39 39 39 38 38 38 37 37 36 36 36 36 37 37 36 35 34 33 31 29 27 25 24 22 24 25 27 29 30 29 28 29 32
36 37 37 37 38 38 38 39 39 38 37 36 36 36 36 35 35 34 35 35 35 34 35 36 34 32 32 29 28 25 22 21 21 22 21 20 21 22 23 25 27 29 29
36 36 37 37 37 37 38 38 38 38 37 36 36 36 36 36 36 35 33 31 30 31 31 31 31 28 24 23 22 21 21 20 16 23 22 20 23 22 23 24 26 29 30
36 36 37 37 37 38 38 38 37 36 35 34 34 34 31 31 32 32 32 31 31 29 27 23 21 19 20 21 25 25 22 22 19 22 23 21 22 21 23 22 25 28 29
36 37 36 37 37 37 36 37 35 33 31 30 29 28 26 25 25 25 24 25 26 25 23 21 21 21 22 23 23 26 24 23 25 23 24 24 23 22 23 23 25 29 30
35 35 36 36 36 36 35 34 31 28 25 24 25 27 27 27 26 25 25 24 22 26 29 28 29 28 28 29 27 25 26 25 22 21 23 23 24 24 24 23 21 26 27
34 34 33 34 35 34 33 28 23 21 20 21 23 24 25 23 28 22 17 18 18 19 22 21 22 23 26 28 27 25 25 26 25 25 25 25 25 24 25 24 23 24 23

GFSMA_sfc_30mbdewp_093.txt.gz
Dewpoint
55 54 57 59 60 60 62 60 58 58 58 58 55 49 48 50 52 53 54 59 60 63 64 62 60 58 57 56 55 54 54 54 54 54 54 53 53 53 52 52 52 52 52
54 57 58 58 58 59 58 58 57 56 56 56 55 53 49 50 52 54 55 57 58 59 63 63 62 60 59 58 57 54 54 54 53 53 53 52 52 52 52 52 52 52 52
55 56 56 57 57 57 55 56 56 56 54 53 53 52 50 49 53 55 56 56 57 57 60 64 63 62 60 59 58 57 55 54 54 53 52 51 51 50 50 49 49 50 51
59 59 58 55 55 56 56 57 56 56 54 54 53 54 54 52 53 54 56 56 56 56 59 61 63 63 62 61 59 59 57 55 55 53 52 50 50 49 48 48 48 49 49
60 60 59 57 55 56 57 57 56 56 56 56 56 56 56 56 57 56 56 56 56 57 57 60 61 63 63 62 60 59 59 58 56 54 53 50 49 48 47 47 47 48 49
61 61 60 60 58 57 57 58 58 57 57 56 55 55 56 57 58 57 57 57 56 56 56 57 59 59 59 62 61 59 58 59 58 56 54 51 49 47 47 45 46 47 48
62 62 61 60 60 59 59 59 58 58 58 58 57 57 57 57 57 57 58 57 55 55 55 54 55 55 57 59 61 61 60 58 58 58 55 52 50 48 47 47 46 48 47
64 63 62 62 61 61 60 60 59 58 58 58 57 56 55 56 57 56 56 55 54 54 53 53 53 53 53 54 56 59 60 60 59 58 58 54 52 50 50 48 47 48 48
65 65 64 63 63 62 61 61 60 59 58 58 58 57 55 54 54 55 53 53 52 51 50 49 49 50 51 52 54 55 56 57 57 58 57 57 54 51 52 51 50 49 51
65 65 65 64 63 63 63 62 62 61 60 59 59 59 58 58 55 53 55 54 51 49 50 48 50 50 50 51 51 52 53 54 56 57 57 57 58 54 54 53 52 52 52
65 64 64 63 63 63 62 62 62 62 61 60 59 59 58 58 57 55 53 54 54 50 48 48 48 49 49 50 49 50 51 53 55 55 55 56 56 57 56 54 55 52 52
64 64 65 64 63 62 62 62 62 62 61 60 60 60 58 57 56 55 54 53 54 52 49 48 47 47 47 48 47 48 49 51 52 53 54 56 56 57 57 54 53 51 51
62 62 63 63 63 64 63 63 62 62 61 60 60 60 60 59 58 56 55 54 54 52 49 46 45 45 46 47 47 47 49 50 51 53 55 54 52 51 51 51 51 49 48
51 55 56 57 59 61 61 62 63 62 62 61 60 60 59 57 57 56 55 54 51 51 50 47 44 44 44 45 46 47 49 50 49 50 50 49 48 47 47 47 45 44 44
51 52 53 54 55 56 58 60 62 62 62 61 59 57 55 52 52 52 52 53 52 48 48 45 44 43 43 44 44 44 44 46 47 46 46 46 45 45 43 43 42 42 41
50 51 52 53 53 54 55 57 56 55 54 52 52 51 49 49 49 49 49 49 49 50 47 44 41 41 42 42 42 41 41 41 42 43 43 43 43 42 42 41 40 38 38
45 47 47 49 50 51 52 52 52 51 51 50 49 49 48 47 46 45 46 46 47 47 46 39 40 39 40 40 40 40 39 38 37 37 38 38 37 37 37 36 36 36 36
41 42 43 45 45 46 48 49 48 48 48 47 46 45 44 43 43 44 44 44 44 45 44 40 38 38 39 38 38 38 35 34 34 33 35 35 35 34 34 33 33 33 32
39 40 41 42 42 43 44 46 47 46 46 45 44 43 42 42 42 42 42 42 41 40 42 40 37 36 36 36 36 35 32 31 26 26 26 27 28 29 29 30 31 31 33
38 39 39 39 40 40 41 41 43 43 42 41 41 41 41 41 41 40 39 39 39 38 39 39 37 36 36 34 34 32 30 27 25 22 24 23 24 28 29 29 29 29 31
37 38 38 38 39 40 39 40 41 40 39 39 38 38 38 37 37 37 37 36 37 37 37 37 36 34 34 32 31 26 24 22 24 23 23 22 22 24 25 27 28 28 29
37 37 38 38 38 38 39 39 40 39 39 38 37 37 36 36 36 35 33 33 33 35 35 35 34 34 28 26 24 22 23 22 20 25 24 22 24 23 24 25 28 28 30
38 37 38 37 37 38 39 39 39 38 37 37 36 35 34 34 35 33 32 31 30 30 29 29 26 22 22 22 28 26 23 24 22 24 24 23 23 22 24 22 26 28 29
37 38 37 38 37 37 38 38 37 36 35 35 34 33 30 29 27 27 24 27 26 25 24 21 23 22 25 25 26 27 25 24 25 25 25 24 25 24 25 25 26 28 31
36 36 37 37 36 36 37 36 34 32 30 28 27 27 26 25 27 26 27 25 26 27 29 29 29 29 28 28 28 27 27 26 25 22 25 24 26 26 26 26 25 25 27
35 35 35 36 36 35 35 34 30 27 24 23 26 26 25 27 24 23 25 21 20 22 23 25 26 25 29 28 28 26 27 27 27 26 26 25 25 25 25 26 25 26 25

GFSMA_sfc_30mbdewp_096.txt.gz
Dewpoint
57 56 64 65 64 64 63 62 62 59 59 58 56 51 48 49 52 54 60 60 61 63 64 63 60 58 58 57 55 55 55 54 55 54 54 54 53 53 53 53 53 53 53
57 56 58 62 62 63 63 61 58 57 57 57 57 53 50 50 52 54 58 59 59 60 63 64 63 61 59 59 57 55 55 54 54 53 54 53 53 52 52 52 52 52 52
55 58 59 59 59 58 57 58 57 56 55 54 54 54 51 49 53 55 56 57 58 58 59 63 63 63 61 60 59 58 56 55 54 53 53 52 51 51 50 49 50 50 51
58 58 58 57 58 57 56 57 57 56 55 55 54 54 54 51 51 54 55 56 57 58 59 61 63 63 63 62 60 60 58 56 55 54 53 51 51 50 49 48 49 49 50
60 60 60 58 55 57 57 58 57 57 56 56 56 56 57 57 56 56 56 56 57 57 58 59 61 62 63 63 61 61 60 59 57 56 54 52 50 49 48 48 47 48 50
61 61 61 60 56 57 57 58 58 58 57 57 56 55 56 57 58 58 57 57 57 58 57 58 59 60 60 62 62 60 60 60 59 57 56 54 52 49 48 48 47 48 48
62 61 61 61 60 58 58 58 58 58 58 58 57 57 57 57 57 58 58 57 57 56 55 55 56 56 58 59 61 61 61 60 59 59 58 56 53 51 49 48 48 49 47
64 62 62 62 61 61 60 60 59 58 58 59 57 57 55 56 58 57 58 56 54 54 53 52 52 52 53 57 56 57 57 59 60 60 58 58 55 52 52 50 48 49 49
65 65 64 63 63 62 61 61 60 59 58 58 58 57 55 53 54 55 54 53 52 51 50 49 49 50 51 52 53 53 54 55 57 58 58 58 57 55 53 52 51 50 49
65 65 65 65 64 64 63 62 62 61 59 58 59 58 58 58 55 53 54 53 50 50 49 50 50 50 50 51 51 51 53 55 56 56 56 56 57 57 55 54 53 52 53
65 65 64 64 63 63 63 63 63 62 61 60 60 59 58 58 58 55 53 53 52 49 48 48 48 48 49 48 47 50 51 53 54 54 54 55 57 57 57 56 55 55 53
64 64 64 64 63 63 62 63 63 62 62 61 60 60 58 57 57 56 54 54 53 50 48 47 46 46 47 47 46 49 50 51 51 52 53 56 56 57 57 58 55 53 52
56 62 63 63 63 64 63 63 62 62 62 61 61 60 60 59 58 57 55 53 53 50 47 45 45 45 45 46 47 49 51 52 53 54 55 54 53 54 54 54 53 51 50
56 57 56 56 57 60 62 62 62 63 62 62 61 60 60 60 58 57 55 54 52 51 49 45 44 43 44 45 46 46 49 50 51 51 51 50 50 50 50 48 46 45 45
51 52 53 54 54 56 56 58 60 61 62 62 61 60 58 55 55 54 54 54 52 49 49 45 42 43 43 43 44 43 44 47 47 47 47 47 47 45 45 44 43 42 41
50 51 51 52 53 54 54 55 56 56 57 55 55 54 52 51 51 51 50 51 51 51 48 44 41 42 42 42 42 41 42 42 43 44 44 43 43 43 42 41 40 39 39
44 46 47 48 49 50 51 52 53 53 53 52 51 51 50 49 48 47 47 47 48 48 47 40 40 40 40 40 41 40 39 39 37 39 39 38 38 38 38 37 37 37 37
41 42 43 44 45 45 47 49 49 50 50 50 48 47 46 46 45 45 45 45 46 45 45 41 38 38 39 39 38 38 35 35 33 36 37 37 36 35 35 35 34 34 33
40 40 41 41 42 42 43 45 47 48 47 47 46 44 43 44 43 43 43 42 42 42 43 40 37 37 36 36 36 35 34 29 26 28 27 27 29 29 30 31 31 30 33
38 39 39 39 40 40 41 41 43 44 42 42 43 43 42 43 42 41 41 40 39 39 40 38 37 36 35 34 35 33 29 28 25 23 25 24 24 27 27 28 28 29 30
38 38 38 39 39 39 39 41 41 40 40 39 39 38 38 39 40 39 38 37 38 38 38 37 36 35 33 32 31 27 25 23 24 23 23 22 23 24 25 28 28 28 28
37 38 38 38 38 38 39 40 40 39 39 37 36 36 37 37 37 37 36 36 36 36 36 36 34 33 32 28 24 23 23 21 20 26 24 21 24 22 25 26 29 28 29
38 38 38 38 37 38 39 40 40 39 38 37 36 36 35 36 34 34 34 33 33 32 32 32 32 27 24 24 25 24 23 22 22 25 23 23 24 22 25 24 27 28 28
37 37 36 38 37 38 39 39 38 37 36 36 35 34 33 31 31 26 29 26 25 27 26 24 23 25 25 25 25 26 24 24 25 24 24 22 26 24 26 27 27 27 30
35 36 37 37 36 37 38 38 35 33 32 31 29 28 27 26 27 27 27 26 26 27 30 30 29 29 29 29 26 27 26 25 25 23 25 24 26 25 26 27 26 24 25
35 36 36 36 36 35 37 36 33 29 27 25 27 27 28 26 27 27 26 24 25 26 27 26 24 29 28 29 28 25 27 26 25 25 25 24 24 24 21 26 26 26 26

GFSMA_sfc_30mbdewp_099.txt.gz
Dewpoint
65 65 64 65 64 64 64 63 63 62 60 58 56 51 48 49 53 60 60 61 63 64 64 62 60 59 58 57 56 55 55 54 55 55 54 54 54 53 53 54 54 53 53
59 63 64 64 63 63 64 63 62 60 59 58 57 53 49 49 51 54 59 60 61 62 64 64 63 61 60 59 57 56 55 54 55 54 54 53 53 52 52 52 52 52 53
57 57 63 63 63 62 63 62 59 57 55 55 55 55 51 49 51 54 57 58 59 59 61 62 63 63 62 60 60 58 57 56 55 54 53 52 52 51 50 50 50 51 51
57 58 59 60 59 59 57 57 57 56 55 54 53 53 53 50 52 54 55 56 57 57 59 61 63 63 63 62 61 61 59 57 56 55 54 52 51 50 49 49 49 49 51
59 58 58 57 57 57 57 57 57 57 56 55 55 56 56 55 54 54 56 56 57 58 58 59 61 63 63 63 61 61 61 59 58 57 55 54 51 50 49 48 48 49 50
59 59 60 59 56 57 57 58 57 57 57 57 56 56 56 57 57 57 57 57 57 57 57 58 60 60 60 61 62 61 60 60 60 59 58 56 54 51 49 49 48 49 49
60 60 61 60 58 56 57 57 58 58 57 58 57 56 57 57 57 57 58 58 58 57 56 56 58 57 56 60 61 62 62 61 60 59 59 58 56 53 51 50 49 49 48
62 61 61 61 61 57 57 58 58 58 58 58 56 56 55 56 57 57 58 58 55 54 52 51 51 52 55 55 56 56 57 58 58 59 59 59 58 55 53 53 51 50 50
65 64 62 62 62 61 59 60 59 58 57 58 58 56 54 53 54 55 54 53 52 50 49 49 50 51 52 52 52 52 54 55 56 57 57 58 58 58 55 55 52 51 50
65 65 65 65 64 64 63 62 62 61 59 58 59 59 58 57 54 53 54 51 50 49 50 50 49 49 49 49 49 51 52 54 55 56 55 55 57 57 58 56 54 53 51
63 63 64 64 63 63 63 63 63 62 62 60 60 59 58 58 57 55 53 52 49 48 48 48 47 48 47 46 47 49 51 52 54 54 54 54 56 57 57 57 56 55 55
62 63 64 63 63 62 61 61 62 62 61 61 61 60 58 57 57 56 55 54 53 49 47 46 46 46 46 46 48 49 51 51 52 53 55 56 55 56 57 58 58 57 55
55 60 62 62 61 62 60 61 62 61 61 61 60 60 60 59 58 57 56 54 53 48 46 45 44 44 45 47 48 50 52 54 55 55 55 54 55 56 55 55 55 54 52
55 58 60 59 60 61 60 61 62 62 62 62 61 61 60 60 59 58 56 54 52 51 47 44 43 44 44 46 47 47 49 50 51 51 51 52 53 52 51 50 50 48 47
52 52 53 53 54 56 56 57 58 59 60 61 61 61 60 59 58 57 56 55 53 50 49 44 42 43 43 44 44 44 46 47 48 48 48 47 47 46 46 45 45 44 43
50 51 51 52 53 53 53 54 55 55 56 56 57 58 56 54 54 53 53 53 53 52 49 44 42 42 43 42 43 42 43 43 45 46 45 44 44 43 43 42 41 40 40
46 47 47 48 49 49 51 52 52 53 53 53 53 53 52 51 50 49 49 49 50 50 49 40 40 41 41 41 41 40 40 38 39 41 41 39 39 39 39 39 39 39 39
42 42 43 45 45 45 47 49 50 51 51 51 51 50 49 48 48 47 47 46 47 47 46 42 39 38 39 40 40 38 35 35 35 38 38 38 38 37 37 36 35 35 34
40 40 41 41 41 42 42 44 47 49 49 49 48 47 46 46 45 45 45 44 44 43 43 40 38 38 37 37 37 36 34 28 28 30 29 30 30 30 31 32 31 32 34
39 39 39 39 40 40 40 41 43 45 45 45 45 44 44 44 44 43 42 41 41 41 41 40 37 36 35 36 36 32 29 28 24 24 25 24 25 27 27 28 29 29 31
38 38 38 39 39 38 39 40 41 41 41 40 40 40 40 42 42 41 40 39 39 38 39 38 37 35 34 33 33 29 29 25 24 23 22 22 23 23 24 29 28 29 28
38 38 38 38 38 38 39 40 40 39 39 38 37 37 38 39 39 39 39 38 38 37 37 36 36 34 33 31 27 25 23 21 20 26 23 20 24 22 25 26 30 29 29
37 37 37 37 37 38 39 40 41 39 38 37 36 36 36 36 36 36 37 36 36 36 36 35 35 33 28 26 24 23 22 22 21 24 23 23 24 22 25 26 28 28 28
37 37 36 37 37 38 40 40 39 38 37 37 36 36 35 33 32 31 27 26 27 27 25 27 28 25 25 26 25 24 22 23 24 24 24 22 26 25 26 27 29 27 29
37 36 36 36 36 37 40 39 37 36 35 35 34 33 31 31 31 30 25 24 26 29 30 30 28 28 28 28 27 25 24 24 24 23 25 23 25 24 25 27 26 26 27
35 35 35 36 37 36 38 37 34 32 31 29 27 28 30 27 29 29 26 25 23 28 28 26 29 30 29 30 29 27 26 25 24 24 25 23 23 23 20 25 25 25 26

GFSMA_sfc_30mbdewp_102.txt.gz
Dewpoint
65 64 64 64 63 63 63 62 61 60 60 59 55 51 49 53 58 60 61 63 64 64 63 62 60 59 58 57 56 56 55 56 55 55 55 54 54 54 54 54 53 53 53
65 64 64 64 63 63 63 63 62 62 62 59 57 54 49 49 53 59 59 60 62 64 64 64 62 61 60 59 57 56 55 56 55 55 54 53 52 52 52 53 53 53 53
63 64 63 63 63 63 63 63 62 59 58 57 57 57 53 50 50 53 58 59 60 61 62 63 63 63 62 61 60 58 57 56 55 54 53 52 52 51 50 51 51 51 52
60 60 63 63 63 62 62 61 59 56 55 54 53 53 53 52 50 52 55 57 58 59 59 61 63 63 63 62 61 61 59 58 56 55 54 53 51 51 49 50 50 51 52
57 58 59 61 61 60 59 58 57 56 56 55 55 55 55 54 52 52 53 55 56 57 57 58 60 63 63 63 61 61 61 60 59 57 56 55 53 51 49 49 49 50 51
58 58 59 58 58 57 57 57 57 57 56 56 56 56 56 57 57 57 56 57 57 57 58 58 59 60 61 61 62 61 61 60 60 59 58 57 55 52 50 50 49 50 50
59 59 59 59 56 56 57 57 57 57 57 57 56 56 57 57 56 56 58 58 58 58 57 58 58 58 56 60 60 61 61 60 60 60 60 59 57 55 52 51 50 50 50
60 60 60 60 59 56 57 57 57 57 58 58 56 56 54 55 57 57 58 58 57 55 52 52 52 55 55 55 55 56 56 57 58 58 59 59 59 58 55 52 52 51 50
63 62 62 61 61 59 57 58 59 58 57 59 58 56 54 53 54 55 53 53 52 50 50 50 51 52 52 51 51 52 54 55 56 56 57 58 58 58 58 55 54 52 52
64 64 64 64 64 63 62 61 62 61 60 58 59 59 58 57 55 53 54 51 50 49 50 49 49 49 48 48 49 51 52 54 55 56 55 55 56 57 57 57 56 54 53
63 64 64 64 64 64 64 63 62 62 62 60 60 59 59 58 58 56 53 51 49 48 48 48 48 48 46 47 48 49 51 52 53 54 54 54 55 56 56 57 57 55 54
62 63 63 63 63 63 62 61 61 61 60 60 60 59 58 56 56 56 55 54 52 48 47 46 46 46 46 47 49 51 53 53 52 53 55 55 55 57 57 57 57 57 56
58 61 62 60 60 60 60 59 58 60 60 59 59 59 59 58 57 57 56 55 53 48 46 45 45 45 46 46 48 50 52 54 55 55 55 55 56 56 56 57 58 57 54
56 57 60 58 58 58 59 58 58 60 61 58 57 59 60 60 58 58 56 55 52 49 46 45 43 44 45 46 47 48 49 51 52 52 52 52 51 52 52 52 52 51 50
54 56 56 56 56 57 57 57 58 58 58 59 59 60 59 59 59 58 57 56 55 50 49 44 43 43 44 44 45 45 46 48 49 49 48 48 47 47 47 47 47 46 45
51 52 52 52 53 53 53 53 54 54 54 55 56 56 57 57 57 56 56 55 54 53 50 44 42 43 43 43 44 43 44 44 47 46 45 45 44 44 44 43 43 42 42
48 48 49 49 49 50 50 51 52 52 52 53 53 54 54 53 54 52 52 52 52 52 50 41 41 42 42 42 42 42 40 39 41 42 42 41 41 41 41 41 41 40 40
43 43 44 45 45 45 45 47 49 49 50 51 51 51 51 50 50 49 49 49 49 49 47 43 39 40 40 41 41 38 37 36 38 39 40 39 39 39 39 38 37 36 36
41 41 42 42 42 41 42 43 44 47 49 49 50 49 49 48 48 47 47 46 46 45 44 42 39 38 38 39 39 36 32 30 32 33 34 34 33 33 34 34 34 34 35
39 39 39 40 40 40 40 41 42 44 46 46 46 46 46 46 46 45 44 44 43 43 42 40 38 37 36 37 37 34 31 28 24 24 27 26 25 28 29 30 30 30 31
38 38 39 39 38 38 39 40 40 41 42 41 41 41 41 43 44 43 42 42 41 40 41 39 37 36 34 35 35 32 30 26 24 23 22 22 24 23 24 30 28 29 29
38 38 38 38 38 38 39 40 41 39 39 39 39 38 39 41 41 42 41 40 39 38 38 38 37 35 34 33 31 29 27 23 23 26 21 21 24 22 25 25 30 30 30
37 37 37 37 37 37 39 40 41 40 39 38 37 37 36 37 38 38 38 38 39 39 38 36 37 35 33 31 28 25 24 22 21 24 22 22 24 23 25 26 29 28 29
36 36 37 36 36 37 39 40 40 38 38 38 37 37 36 34 34 32 29 29 28 26 31 34 35 33 29 28 27 25 23 23 24 25 24 23 26 24 26 27 30 27 28
37 37 36 35 35 36 38 40 38 36 36 36 35 35 34 33 34 31 27 27 28 29 31 30 29 29 30 29 27 24 22 22 22 23 25 23 24 24 25 26 25 28 29
37 36 35 35 36 36 38 39 36 34 33 33 30 30 34 31 33 31 25 24 26 29 29 29 30 30 29 29 29 24 25 21 23 22 25 23 23 22 22 24 25 25 25

GFSMA_sfc_30mbdewp_105.txt.gz
Dewpoint
63 62 62 62 61 62 61 60 58 57 57 59 57 55 50 54 58 60 61 63 64 64 63 61 60 59 59 58 57 56 56 56 56 55 55 54 54 54 54 54 54 53 53
64 63 62 62 62 62 62 61 61 61 61 61 58 55 50 50 54 59 60 61 62 64 65 64 62 61 60 59 58 57 56 56 55 55 54 53 53 53 53 53 53 53 53
65 64 63 63 63 63 62 63 62 61 60 60 58 57 55 50 50 54 58 59 60 61 63 64 63 63 62 61 60 58 57 57 55 55 54 53 52 51 51 52 52 52 53
64 64 63 63 63 63 62 62 61 59 57 56 54 54 54 53 50 50 54 57 58 59 60 61 63 63 63 63 62 61 59 58 57 56 55 53 52 51 50 51 51 52 52
61 62 63 63 63 62 61 61 59 57 56 55 55 54 54 55 53 51 52 54 56 57 58 58 59 61 62 62 62 61 60 60 59 58 57 55 53 51 50 50 50 51 51
58 60 60 61 61 61 60 59 57 57 56 56 55 55 56 56 57 56 55 56 56 57 57 57 58 59 60 61 62 61 61 60 60 60 59 57 55 53 51 51 50 51 51
57 58 58 58 59 58 58 57 57 56 56 57 56 56 56 57 57 56 57 58 58 58 58 58 58 58 58 60 60 60 60 60 60 60 60 59 58 56 54 52 52 51 51
58 58 59 59 57 57 57 57 57 57 57 57 56 55 54 54 56 55 57 57 56 54 54 54 54 56 56 54 55 55 56 57 57 57 59 60 59 59 56 54 53 52 52
61 60 60 61 60 58 57 57 58 58 57 58 58 56 54 53 54 54 52 53 53 53 51 51 52 52 51 51 51 51 53 55 56 56 57 57 58 58 58 57 55 54 53
63 63 62 62 62 62 61 59 60 60 60 59 60 60 59 58 55 54 54 50 49 50 50 50 50 49 48 48 49 50 52 53 55 56 56 55 56 56 57 58 57 56 54
64 64 64 64 64 64 64 63 62 62 61 60 59 59 59 59 58 57 54 53 50 49 49 49 49 47 47 48 48 50 51 52 53 54 54 54 54 55 55 55 56 57 55
63 63 63 63 63 63 63 63 63 62 62 61 60 60 57 56 56 56 55 54 52 48 48 47 47 47 46 47 50 51 53 56 53 53 55 55 55 56 57 57 56 57 57
61 61 62 62 62 61 62 61 58 57 58 59 59 59 59 58 57 56 56 54 53 49 47 46 46 45 46 47 49 50 52 54 55 56 57 55 55 55 56 57 58 57 59
58 60 60 59 59 59 59 57 57 57 57 57 59 58 58 59 59 58 56 53 52 50 46 46 44 44 45 46 48 48 50 51 53 53 52 52 51 52 52 53 55 54 53
55 56 57 57 57 57 57 58 58 58 58 58 58 59 58 59 59 59 57 56 54 51 49 46 44 44 45 45 46 46 47 49 49 49 49 49 48 48 48 48 48 48 47
53 54 54 53 53 53 53 53 53 53 53 53 54 54 55 56 56 57 57 56 55 54 51 45 43 43 44 44 45 44 45 46 47 47 46 46 45 44 44 44 44 44 43
50 50 50 50 50 49 49 49 50 51 51 51 52 52 52 53 53 53 53 53 53 53 52 42 42 42 43 43 43 43 42 41 43 44 43 43 42 42 42 43 42 42 42
45 45 46 46 45 45 44 45 46 48 49 49 51 51 51 51 51 50 50 51 51 50 48 44 39 40 41 42 41 40 39 36 39 41 41 41 41 41 40 40 39 38 38
42 42 42 42 41 41 41 41 42 43 46 48 48 49 49 48 49 48 47 47 47 47 45 43 39 39 39 41 39 36 34 32 34 39 39 38 37 37 37 36 36 36 37
39 39 40 40 40 39 40 40 40 41 43 44 44 44 45 46 46 46 45 45 44 44 43 42 39 37 37 38 38 34 31 27 26 25 28 28 27 31 32 32 32 31 32
38 38 38 38 38 38 40 40 40 39 40 41 40 40 40 42 43 44 44 43 42 42 42 40 39 37 35 36 36 33 31 26 24 23 22 23 25 23 26 30 29 30 29
38 38 38 38 37 38 40 40 40 40 39 38 38 38 38 39 40 42 42 42 41 40 40 39 38 37 35 35 33 32 28 26 26 25 21 21 23 22 25 26 30 30 30
37 36 36 36 36 37 39 40 41 39 38 39 38 37 37 37 38 39 39 38 39 40 39 38 38 37 35 34 32 29 27 24 22 24 21 19 24 23 25 26 31 29 29
36 36 36 36 35 36 39 39 40 37 37 37 38 37 37 36 35 34 32 32 29 29 33 36 36 36 35 32 32 29 26 24 24 25 23 20 25 23 26 26 32 28 28
36 36 36 36 35 35 37 39 39 36 35 35 36 35 35 34 35 34 30 30 29 29 31 32 32 32 31 31 28 26 24 23 22 22 25 24 25 25 25 26 26 29 30
36 36 36 35 35 36 37 39 39 34 33 34 32 31 35 34 35 34 26 27 28 29 30 30 30 30 31 31 29 25 25 22 22 21 25 22 23 23 21 24 25 25 25

GFSMA_sfc_30mbdewp_108.txt.gz
Dewpoint
62 62 62 61 61 60 59 58 57 56 56 58 58 55 50 54 58 60 60 63 64 64 62 61 60 60 59 58 57 57 57 56 56 55 55 55 55 55 54 55 54 54 54
61 61 60 60 60 60 60 59 58 58 60 61 60 56 51 50 54 58 60 60 62 64 65 63 62 61 60 59 58 57 57 56 56 55 55 54 54 54 54 54 54 54 54
62 62 61 61 61 62 62 62 61 61 61 60 59 58 57 52 49 53 59 59 59 62 63 64 64 63 62 62 60 59 57 57 56 55 54 53 52 52 53 53 52 54 54
64 63 62 62 62 62 62 62 61 60 59 57 56 55 55 54 52 50 53 56 58 59 60 61 63 63 63 63 61 61 60 58 57 57 55 53 52 51 51 52 52 53 53
64 64 63 62 62 62 62 61 61 59 58 56 55 55 54 54 54 51 51 53 56 57 58 58 59 60 62 63 62 62 60 61 59 58 57 56 53 52 51 51 51 52 52
62 64 63 63 62 62 61 60 60 58 56 56 56 55 56 56 56 56 55 54 55 56 57 57 57 58 60 60 61 61 61 60 60 60 59 58 56 54 52 52 51 52 52
59 60 61 61 62 61 61 60 58 57 56 57 56 56 56 57 57 57 57 57 58 58 57 58 58 58 60 59 59 60 59 59 59 60 59 59 59 57 55 53 53 52 52
58 58 59 58 58 59 59 58 57 57 57 57 56 55 54 54 55 54 56 57 56 55 55 56 57 56 55 54 54 55 56 57 57 57 57 59 59 59 58 57 54 53 53
58 58 59 59 58 58 58 57 57 57 56 58 58 57 54 53 55 54 52 54 54 54 53 53 54 53 52 51 51 51 53 55 56 57 57 57 57 58 58 58 57 55 54
61 60 60 61 60 60 59 59 60 59 59 58 60 60 59 58 55 54 53 51 51 51 52 52 51 51 50 49 49 50 51 52 54 55 55 55 55 55 56 56 58 57 55
63 63 62 63 63 63 63 63 62 61 61 60 59 59 59 58 58 56 54 54 51 51 51 51 50 49 48 48 48 52 54 55 53 54 54 54 55 55 55 55 55 57 57
63 64 64 64 63 63 63 63 63 62 61 61 60 59 58 56 56 56 55 55 54 51 50 50 49 48 48 48 51 52 54 56 53 52 55 55 56 56 56 57 57 55 57
61 62 62 62 62 62 62 62 61 61 60 60 60 59 59 58 58 57 55 53 54 51 48 48 48 47 47 47 49 51 53 55 56 56 57 56 55 55 55 57 58 57 56
60 61 61 61 60 60 59 58 57 56 57 57 57 57 58 58 59 58 56 55 52 52 48 48 45 45 46 47 48 50 51 52 53 53 53 52 51 51 52 54 54 55 56
57 60 58 57 56 57 57 57 57 57 57 57 57 57 57 57 58 58 58 57 54 51 50 48 46 44 45 47 47 48 49 50 50 50 49 49 49 48 48 49 51 51 50
54 54 54 54 53 53 52 52 51 51 51 51 52 52 51 53 53 54 55 56 56 54 52 48 45 44 45 45 46 45 47 48 48 48 47 46 46 46 45 45 46 46 46
51 51 51 50 50 49 48 49 49 50 50 50 51 51 51 51 52 52 52 52 53 53 52 43 42 43 43 44 44 43 43 43 45 45 44 44 44 43 44 44 44 44 44
46 47 47 46 45 44 44 44 44 45 46 47 48 50 49 50 49 50 50 50 50 51 50 47 40 41 42 43 42 41 38 38 41 42 43 43 43 43 43 42 41 41 40
43 43 43 42 41 41 40 40 41 42 43 45 45 46 46 46 47 47 47 47 47 47 46 44 40 40 40 42 40 38 35 36 39 42 42 41 40 39 39 38 38 38 39
40 40 40 39 39 39 39 39 40 40 40 41 41 41 41 42 43 45 45 45 45 45 44 43 40 39 39 40 39 35 32 29 27 28 31 30 33 34 35 34 35 35 35
38 39 38 38 38 39 40 39 39 39 38 39 39 39 39 40 42 44 44 43 43 43 43 42 40 38 37 37 37 35 33 27 25 24 24 26 26 25 29 31 31 30 30
37 38 38 37 37 38 41 41 40 38 38 38 37 37 37 38 39 41 42 42 42 41 41 40 39 38 37 37 36 34 30 26 28 25 22 22 24 22 24 28 30 30 29
37 36 36 36 36 37 40 40 41 37 37 37 37 37 37 37 37 38 37 37 38 39 41 39 39 38 37 35 35 32 30 28 27 25 20 20 24 22 25 27 32 31 29
36 36 36 36 35 36 39 39 39 36 35 35 36 36 37 37 36 37 34 33 31 30 31 37 37 38 37 35 35 34 30 26 25 25 23 18 24 23 26 27 33 30 29
35 36 36 36 35 35 37 39 39 36 34 33 35 35 35 35 35 37 32 31 30 30 32 34 34 34 34 35 31 29 27 26 23 22 24 24 25 24 25 26 27 28 28
36 36 36 36 36 35 36 38 39 36 34 33 32 31 31 36 35 36 29 28 28 29 30 30 30 30 31 33 30 27 27 27 23 21 24 22 24 23 22 25 26 25 27

GFSMA_sfc_30mbdewp_111.txt.gz
Dewpoint
63 64 63 63 62 62 60 59 57 57 57 57 57 56 53 57 59 60 61 62 64 63 62 61 60 60 59 58 58 58 57 56 56 56 55 55 55 55 55 55 55 55 54
62 62 62 61 61 60 59 57 56 57 58 60 59 56 51 52 55 59 60 60 62 64 65 63 62 61 60 59 58 57 58 57 56 55 55 55 54 54 54 54 54 55 54
62 61 60 59 59 60 60 60 60 61 62 61 61 59 58 54 51 53 58 59 60 61 63 65 64 63 63 62 60 59 58 58 57 56 55 53 53 53 54 53 54 54 54
61 60 59 60 61 62 62 62 62 61 61 59 59 58 56 56 55 51 53 56 58 58 60 61 62 63 62 62 62 61 61 59 59 58 56 54 53 52 53 52 53 54 54
62 62 61 61 62 62 62 62 61 61 60 59 57 56 55 55 55 53 52 52 55 58 58 59 59 60 61 63 62 61 60 61 60 59 58 57 54 52 52 52 52 53 53
64 64 63 62 62 62 62 62 61 60 59 57 56 56 56 57 57 56 54 53 54 56 57 58 58 58 59 61 61 61 60 60 60 61 60 59 57 55 53 53 52 53 52
63 64 64 63 63 62 62 61 60 60 58 57 57 57 57 57 57 57 57 57 58 58 58 58 58 59 60 61 61 60 60 59 59 59 60 60 60 58 56 54 54 53 53
60 61 62 61 62 62 61 60 59 57 57 58 56 56 55 55 56 55 56 57 57 56 57 59 59 59 57 56 56 56 57 57 57 57 57 58 59 59 59 57 55 54 54
59 59 60 60 60 60 60 59 59 58 57 58 58 57 55 53 56 56 53 54 56 55 55 55 56 55 54 53 53 52 53 55 57 57 57 57 57 58 58 58 58 57 55
60 60 60 60 60 60 60 59 59 59 59 58 60 60 60 59 55 54 54 52 52 52 53 53 52 52 51 51 50 50 51 52 55 55 55 55 55 55 56 56 57 58 57
61 61 61 62 62 62 61 61 60 60 60 60 60 59 59 59 59 57 54 55 54 53 53 52 52 51 50 51 50 52 54 55 54 54 54 54 55 55 55 56 55 55 57
63 63 63 63 63 62 63 63 62 62 61 61 61 60 58 56 56 56 55 55 55 54 52 51 51 50 49 49 51 52 53 56 54 52 54 56 57 56 56 56 56 57 55
62 62 63 63 63 62 63 62 62 62 61 60 59 60 60 59 58 57 56 54 53 53 51 49 50 50 48 49 50 51 53 56 55 57 57 56 55 54 55 55 57 58 56
62 62 62 62 62 62 61 61 59 59 59 59 58 57 58 58 58 58 56 54 52 53 51 51 48 48 47 48 49 51 53 54 54 54 54 53 52 52 53 53 54 57 57
60 61 60 59 59 58 58 57 57 57 58 57 57 57 56 56 56 57 57 57 54 51 50 51 49 46 47 47 49 49 50 52 52 51 50 50 50 49 49 50 52 52 52
58 57 56 55 54 54 54 54 53 52 51 51 52 52 51 52 52 53 54 54 53 52 49 51 48 46 46 46 47 47 49 50 50 49 48 48 48 47 47 47 49 50 51
53 53 52 51 50 49 49 49 49 49 49 50 51 51 49 50 51 51 52 52 52 52 50 47 44 44 44 45 46 45 46 45 47 47 46 45 45 45 46 45 46 46 47
49 49 48 46 45 44 44 44 44 45 46 47 48 49 48 48 49 49 49 50 50 50 49 48 43 42 43 44 44 43 40 41 43 44 44 44 45 45 44 44 44 44 43
45 45 44 42 41 41 41 41 41 42 43 44 44 45 44 45 46 46 46 47 47 47 47 45 42 41 41 43 42 40 37 38 40 44 44 43 43 42 42 40 40 41 41
42 41 40 40 40 40 40 40 40 40 41 41 41 41 41 42 42 44 45 45 45 45 45 44 41 40 40 41 40 37 35 33 32 31 35 36 38 39 39 39 39 38 37
39 39 38 38 39 40 39 39 39 39 39 39 39 39 39 40 40 42 44 44 43 43 43 43 41 39 38 38 38 37 35 32 29 28 29 29 29 30 32 34 33 32 33
38 38 38 38 39 40 41 41 39 38 38 37 37 38 38 38 39 40 42 42 42 42 41 41 40 39 39 38 38 36 32 30 30 27 26 26 25 24 26 30 31 30 29
37 37 37 37 37 40 41 41 38 37 37 36 37 37 37 37 37 37 37 37 36 37 40 41 39 39 38 37 37 35 32 31 31 27 24 24 24 23 25 26 31 31 31
37 37 37 37 36 38 40 39 39 36 35 35 36 36 37 37 37 37 36 34 33 31 33 33 38 38 38 37 37 36 34 28 26 25 24 25 24 22 26 28 34 31 30
36 36 37 37 36 36 38 39 38 36 35 34 35 35 35 36 36 37 34 32 31 31 33 36 36 36 36 37 34 32 30 29 26 24 24 24 24 25 26 26 30 31 29
36 37 37 37 37 36 37 39 39 36 35 34 32 32 32 33 37 37 33 29 28 29 30 29 29 30 32 34 32 30 31 31 27 26 25 25 25 25 24 26 28 29 31

GFSMA_sfc_30mbdewp_114.txt.gz
Dewpoint
62 63 63 63 61 60 59 56 55 56 56 56 56 55 54 56 57 57 57 62 63 63 62 61 61 60 59 59 59 58 57 57 56 56 55 55 55 56 56 55 55 55 54
60 60 60 60 60 58 56 55 53 53 54 55 55 53 51 52 53 56 57 59 62 64 64 63 62 61 61 60 59 58 58 57 56 56 55 55 55 55 55 55 55 55 55
60 59 58 58 57 56 55 54 53 54 56 58 58 56 56 55 52 52 53 55 58 61 63 65 64 63 62 62 61 60 59 58 58 57 56 54 54 54 54 54 55 55 55
59 58 57 56 55 55 54 54 53 56 59 60 59 58 57 57 56 54 53 54 56 56 60 62 64 64 63 63 62 62 61 60 60 58 57 55 53 53 54 53 54 54 54
57 56 55 54 56 58 59 60 60 60 60 60 58 57 56 55 55 54 54 53 53 56 57 60 60 61 62 63 62 61 60 61 61 60 59 57 56 53 53 53 53 54 54
56 56 57 58 60 60 60 60 60 61 60 59 56 56 56 57 56 56 55 54 53 55 56 56 58 58 59 61 62 61 60 60 61 61 61 60 58 56 54 53 53 54 53
61 61 61 61 62 61 61 61 61 61 60 59 57 55 56 57 58 58 58 57 57 57 57 57 58 59 60 61 62 61 60 60 59 60 60 61 60 59 57 55 54 53 54
63 62 62 62 62 62 62 61 61 60 60 58 55 56 53 55 56 56 57 58 58 58 58 59 60 60 60 58 58 57 57 58 58 57 58 58 59 59 59 58 56 55 55
62 62 62 62 62 62 62 61 61 60 58 59 58 57 54 52 56 58 55 55 56 57 56 56 57 57 56 55 54 53 53 54 57 57 57 57 57 58 59 58 58 57 56
60 61 61 61 61 62 61 61 61 61 59 58 60 60 60 59 55 52 56 54 54 54 54 55 55 54 53 53 52 52 53 52 54 56 56 56 56 56 56 56 57 58 58
61 61 61 61 61 61 61 61 60 59 60 59 59 60 60 59 59 57 54 55 55 56 55 54 53 53 51 51 52 53 54 54 56 55 55 55 55 55 55 56 56 56 56
62 62 62 62 62 62 62 61 61 60 60 61 60 60 59 57 57 57 55 55 55 55 54 53 53 53 51 50 51 52 53 55 57 55 53 54 56 57 56 56 56 56 55
62 63 63 63 63 63 63 61 61 62 62 61 61 60 59 58 57 56 55 54 54 54 53 52 53 52 50 49 50 51 52 55 57 54 56 56 55 55 55 55 55 56 55
62 63 63 63 63 63 62 62 62 61 62 61 60 60 58 57 58 57 55 54 52 50 52 52 51 51 51 51 51 51 53 54 56 57 56 54 52 53 53 53 54 56 58
62 63 63 62 63 62 61 61 60 59 59 58 57 57 57 57 56 57 57 56 53 48 47 49 52 49 50 50 50 51 52 53 53 52 52 51 51 50 51 52 52 53 56
61 62 61 61 59 59 58 58 57 57 57 56 55 54 52 52 52 53 53 52 52 52 47 50 51 49 49 48 49 50 50 51 51 51 50 49 48 48 48 49 51 52 52
59 58 57 56 55 54 54 54 53 52 51 51 52 51 50 49 50 50 51 51 51 51 50 50 49 47 47 48 47 47 48 48 49 49 48 47 46 46 47 47 48 50 51
55 54 53 52 50 50 50 50 48 48 48 48 48 48 47 47 48 49 49 49 50 50 49 48 47 45 46 46 46 45 43 43 45 46 46 45 46 46 46 46 45 45 46
51 50 49 47 46 45 44 44 44 44 45 45 46 46 46 46 46 47 46 47 47 47 47 47 45 42 43 44 43 41 40 40 42 45 45 45 45 44 43 43 43 43 43
47 46 45 43 42 41 41 41 41 42 42 42 43 43 43 43 44 44 45 45 44 45 46 45 43 42 42 42 42 39 37 37 36 37 40 41 42 41 41 40 42 41 40
43 42 41 40 40 40 40 40 41 41 41 41 41 40 41 41 40 42 42 43 42 42 43 44 42 41 40 39 39 38 37 35 33 33 33 33 33 35 36 39 38 37 36
40 40 39 40 40 40 41 40 40 39 39 39 39 39 39 39 40 40 42 42 42 41 41 42 41 40 40 39 39 37 34 33 34 31 31 30 28 29 30 33 33 30 31
39 39 39 40 40 41 42 40 39 39 39 38 38 39 38 38 38 38 38 37 37 37 38 39 40 40 40 39 38 36 34 33 34 29 29 29 26 26 26 26 31 31 30
39 39 39 39 41 41 41 40 39 38 37 36 37 37 37 37 37 38 38 37 36 34 33 36 34 36 38 38 38 38 36 31 28 26 26 29 26 25 26 26 34 32 32
39 39 39 38 39 39 40 40 39 37 36 36 35 36 36 36 37 37 37 35 34 33 32 36 36 37 37 37 37 34 33 31 29 26 24 26 26 26 26 25 30 33 31
39 39 39 39 38 38 39 40 39 37 36 35 34 34 33 34 36 37 37 34 32 31 31 30 30 31 32 35 33 31 33 33 30 29 27 25 26 27 26 27 30 31 30

GFSMA_sfc_30mbdewp_117.txt.gz
Dewpoint
59 64 64 63 59 58 57 56 55 55 55 54 54 53 54 55 55 56 60 62 63 62 62 61 61 60 60 59 59 58 57 57 56 56 55 56 56 57 56 56 56 55 55
59 62 63 63 60 58 57 54 53 54 54 53 53 52 51 52 53 55 57 61 63 64 63 62 62 61 61 60 59 59 58 58 57 56 55 55 55 55 55 55 56 55 55
59 61 60 59 58 58 55 53 52 52 53 54 54 53 52 51 51 52 53 56 61 62 64 65 64 63 62 62 61 60 60 59 58 57 56 55 54 55 55 54 55 55 55
59 59 58 58 57 55 54 52 52 53 56 58 58 57 57 57 55 54 53 53 55 57 61 63 65 64 64 63 63 62 61 61 60 59 58 56 54 54 55 54 55 54 55
58 58 56 56 55 54 52 53 53 55 58 59 58 57 57 55 55 54 53 53 54 55 57 60 60 62 63 63 63 62 62 62 62 61 60 59 57 55 54 54 54 54 54
57 56 55 53 54 56 57 59 58 59 59 58 57 55 56 57 56 55 54 54 53 54 55 57 60 59 59 60 62 62 62 60 61 62 62 61 59 58 56 54 54 54 54
55 54 54 55 57 58 58 59 59 59 60 60 57 56 56 56 57 57 57 57 56 57 57 58 58 59 59 60 62 62 61 60 60 59 59 60 60 60 59 57 55 55 54
56 56 58 58 59 60 60 60 60 60 60 60 56 55 54 56 56 57 57 58 58 58 59 59 60 60 61 60 57 56 56 58 58 58 58 58 58 59 59 59 58 56 55
61 61 61 60 61 61 61 61 61 61 59 59 58 57 53 53 56 57 57 56 57 58 57 57 58 58 57 56 55 54 55 56 57 58 58 57 57 57 57 58 59 58 57
63 63 63 63 62 63 62 62 62 62 62 60 60 60 60 58 55 53 56 55 55 55 56 56 56 55 55 54 53 53 54 55 56 57 57 57 56 56 56 55 56 57 58
62 63 62 62 62 63 63 62 62 61 61 60 59 60 59 59 58 56 53 55 56 57 57 55 55 54 53 52 52 53 54 55 56 57 58 56 55 55 56 56 57 57 57
61 62 62 62 62 62 62 62 62 62 61 61 60 60 59 58 57 56 55 55 55 55 56 55 54 54 54 53 52 52 53 53 56 57 58 57 55 57 56 56 56 56 56
61 62 62 62 62 63 62 61 62 61 61 61 60 60 60 59 58 55 54 54 54 54 55 54 54 55 53 52 51 51 52 53 56 56 56 57 57 56 55 54 54 54 55
62 62 62 63 62 62 62 63 62 61 62 62 61 60 59 58 58 57 56 54 53 53 52 51 53 52 52 52 51 51 51 54 55 57 58 56 54 53 53 53 53 54 55
62 63 63 62 62 62 62 62 62 61 61 61 60 58 57 57 57 57 56 56 54 49 47 48 52 51 51 51 51 51 51 53 53 53 53 52 51 51 52 52 53 52 54
62 62 62 62 62 62 62 62 60 59 58 58 57 57 56 54 53 53 53 52 52 51 48 48 52 51 50 49 50 50 51 51 52 52 51 51 50 49 49 50 51 52 52
61 61 61 61 61 60 60 58 57 56 56 54 53 52 51 50 50 51 51 51 50 50 49 49 50 50 49 49 48 48 49 49 50 50 49 48 47 47 47 48 49 51 52
60 60 59 58 57 57 56 55 53 52 51 50 50 49 48 48 48 49 50 49 49 49 49 46 48 47 47 47 47 46 45 44 46 47 47 46 46 47 47 47 46 46 50
57 57 56 54 53 52 51 50 49 48 47 47 47 47 47 46 47 48 48 47 46 46 46 47 46 44 44 44 44 42 41 42 42 45 46 46 47 46 45 45 45 45 44
54 52 50 48 47 46 45 44 44 44 44 44 45 45 44 44 44 45 45 45 44 44 44 44 45 44 43 43 43 41 39 38 38 39 43 44 44 44 43 43 44 42 41
49 46 44 43 42 42 41 42 42 43 42 42 43 42 43 41 40 42 42 43 42 42 41 42 41 42 41 40 40 40 38 36 36 36 36 37 37 38 40 41 40 39 38
43 42 42 41 41 39 41 42 42 41 41 41 40 40 40 39 40 40 42 41 42 41 40 40 40 40 40 40 40 38 36 35 36 35 35 34 31 33 33 36 35 35 36
42 41 41 41 41 41 41 41 41 41 40 40 40 40 39 38 38 39 39 38 38 37 37 38 38 39 40 40 39 37 36 35 36 32 33 33 28 28 29 31 33 32 31
41 41 41 42 42 42 41 40 40 40 39 38 38 38 38 38 38 38 38 38 38 37 35 36 36 35 35 37 38 38 37 34 29 28 30 31 28 27 27 26 31 32 31
41 40 40 41 42 42 42 40 39 39 38 37 36 37 37 37 37 37 38 36 36 35 33 36 35 35 36 38 39 36 34 32 31 29 26 28 26 27 27 27 32 34 33
40 40 40 40 40 40 41 41 40 38 37 36 35 35 35 35 37 38 37 36 34 33 31 32 31 31 32 32 33 31 34 33 31 30 28 26 26 27 26 28 30 33 32

GFSMA_sfc_30mbdewp_120.txt.gz
Dewpoint
65 63 63 62 61 61 61 60 59 57 56 55 54 54 55 55 57 60 62 62 63 62 62 61 61 61 60 60 59 58 57 57 56 56 56 56 57 57 57 56 56 56 55
64 63 62 62 60 59 59 58 56 56 55 54 53 53 52 54 55 58 61 62 63 63 63 62 62 61 61 60 60 59 58 58 57 56 55 55 56 56 56 56 56 56 55
63 62 61 62 61 59 56 54 54 54 53 55 54 52 51 51 52 54 59 60 62 63 64 64 63 63 63 62 61 61 60 60 59 58 57 55 55 55 55 55 55 55 54
62 61 60 62 60 57 55 54 53 53 56 57 58 56 57 57 55 52 53 58 60 61 62 64 65 65 64 64 63 63 62 62 61 60 59 57 55 55 55 54 55 55 54
61 61 60 59 57 55 54 53 53 54 58 59 58 58 57 56 56 55 54 54 55 57 59 60 61 63 63 62 62 62 62 62 62 62 61 60 58 56 55 55 54 55 54
59 58 57 56 55 54 55 55 54 58 59 59 58 57 57 57 57 56 55 54 54 55 55 59 60 60 60 61 62 63 62 61 61 61 61 61 61 59 58 55 55 55 55
58 56 55 54 55 57 58 59 59 59 60 60 58 57 57 57 57 57 58 58 58 59 59 61 62 60 60 61 62 62 62 61 60 59 59 59 59 60 59 59 56 56 55
57 55 55 55 58 58 59 59 60 60 60 60 57 56 55 56 57 57 58 58 58 59 58 59 60 61 61 59 58 58 58 58 59 60 61 59 59 58 58 58 59 58 57
56 56 58 58 59 60 59 60 61 61 59 60 58 58 53 54 56 57 57 57 57 57 57 57 58 58 58 57 56 55 56 56 58 59 59 59 58 57 57 57 57 59 58
58 60 61 60 61 62 61 62 62 62 62 59 59 59 59 59 55 54 55 54 55 55 56 56 56 56 56 55 54 53 54 56 57 58 58 58 58 56 56 56 57 57 57
62 63 62 63 63 63 63 62 61 61 60 60 59 60 59 58 58 56 53 55 56 56 57 56 55 54 53 53 53 53 53 55 57 58 58 58 58 56 56 57 57 57 57
63 63 63 63 63 63 62 62 61 61 60 60 60 60 59 57 57 56 54 53 54 55 56 56 55 54 53 53 53 52 52 53 54 56 58 58 57 57 57 56 56 56 55
61 61 62 62 62 62 62 61 60 61 60 60 60 60 60 59 59 56 54 52 53 54 54 54 54 54 54 52 51 51 51 52 54 56 56 57 57 57 55 54 54 53 53
61 62 62 62 62 62 61 61 61 61 61 61 61 61 60 58 58 57 55 54 52 50 52 52 53 52 52 52 51 51 51 53 54 57 57 57 55 54 53 53 53 53 53
61 61 62 62 61 62 61 61 60 61 61 61 60 60 58 57 57 57 56 56 54 49 47 49 51 50 51 51 51 51 51 53 53 53 53 53 52 52 52 52 52 52 53
62 62 62 61 61 61 61 62 61 61 60 59 58 57 56 55 54 54 53 52 51 51 47 49 50 50 50 49 50 49 50 51 52 52 51 51 50 50 49 50 50 51 52
61 61 61 62 61 61 61 61 60 59 58 57 56 55 53 52 51 51 51 50 50 50 48 48 50 49 48 48 48 48 49 49 50 50 50 49 48 48 48 49 49 51 52
61 60 60 60 60 60 60 59 58 58 56 54 53 51 50 49 48 49 50 49 48 48 48 46 47 46 46 46 46 46 45 44 46 48 48 47 48 47 48 47 47 48 51
60 60 59 58 58 58 58 58 56 54 52 51 50 49 48 47 47 48 47 46 46 46 46 45 45 45 44 44 44 43 41 42 42 44 47 47 48 47 46 46 46 45 46
57 57 57 56 55 55 54 51 50 48 47 46 46 46 45 45 45 46 46 45 44 44 43 43 43 44 43 43 43 42 40 39 39 40 44 46 47 45 45 44 44 43 43
53 51 50 50 49 48 45 45 45 44 44 44 43 43 43 41 42 42 42 43 42 41 41 40 39 41 41 40 40 41 39 38 37 37 39 40 40 41 42 43 41 40 40
48 46 45 44 42 41 43 43 43 43 42 42 40 40 39 39 40 41 42 42 41 40 39 39 39 38 38 39 40 39 37 36 37 36 37 37 35 36 35 38 39 39 37
46 45 44 42 41 42 43 43 42 42 41 41 40 39 39 39 39 40 40 39 39 38 39 38 37 37 38 39 39 38 37 36 36 35 35 35 31 32 32 33 37 34 35
44 43 43 42 41 42 42 42 41 41 40 39 39 39 39 38 39 38 38 38 38 38 36 36 36 35 36 36 37 38 37 36 32 30 33 34 29 30 30 28 34 35 34
41 41 42 42 41 41 41 41 40 39 38 37 38 38 38 37 38 38 37 36 36 36 35 37 35 35 35 37 39 37 35 33 33 32 28 30 28 29 29 28 31 34 33
41 40 40 41 42 41 41 40 39 38 37 36 36 36 37 36 39 38 36 36 35 33 31 31 31 30 31 31 33 32 34 33 33 32 30 29 27 28 27 29 30 32 34